[[{"header":{"parameterUnit":"m.s-1","parameterCategory":1,"la1":30.6,"la2":28.766,"lo1":-90.7593,"lo2":-88.6598,"dy":0.0162,"dx":0.0183,"nx":116,"ny":114,"refTime":"2023-09-15T00:00:00:Z","depth":0,"parameterNumber":2,"parameterNumberName":"U-component_of_WINDS"},"data":[0.0,0.0,0.0,0.0,0.0,0.0,0.0,0.0,0.0,0.0,0.0,0.0,0.0,0.0,0.0,0.0,0.0,0.0,0.0,0.0,0.0,0.0,0.0,0.0,0.0,0.0,0.0,0.0,0.0,0.0,0.0,0.0,0.0,0.0,0.0,0.0,0.0,0.0,0.0,0.0,0.0,0.0,0.0,0.0,0.0,0.0,0.0,0.0,0.0,0.0,0.0,0.0,0.0,0.0,0.0,0.0,0.0,0.0,0.0,0.0,0.0,0.0,0.0,0.0,0.0,0.0,0.0,0.0,0.0,0.0,0.0,0.0,0.0,0.0,0.0,0.0,0.0,0.0,0.0,0.0,0.0,0.0,0.0,0.0,0.0,0.0,0.0,0.0,0.0,0.0,0.0,0.0,0.0,0.0,0.0,0.0,0.0,0.0,0.0,0.0,0.0,0.0,0.0,0.0,0.0,0.0,0.0,0.0,0.0,0.0,0.0,0.0,0.0,0.0,0.0,0.0,0.0,0.0,0.0,0.0,0.0,0.0,0.0,0.0,0.0,0.0,0.0,0.0,0.0,0.0,0.0,0.0,0.0,0.0,0.0,0.0,0.0,0.0,0.0,0.0,0.0,0.0,0.0,0.0,0.0,0.0,0.0,0.0,0.0,0.0,0.0,0.0,0.0,0.0,0.0,0.0,0.0,0.0,0.0,0.0,0.0,0.0,0.0,0.0,0.0,0.0,0.0,0.0,0.0,0.0,0.0,0.0,0.0,0.0,0.0,0.0,0.0,0.0,0.0,0.0,0.0,0.0,0.0,0.0,0.0,0.0,0.0,0.0,0.0,0.0,0.0,0.0,0.0,0.0,0.0,0.0,0.0,0.0,0.0,0.0,0.0,0.0,0.0,0.0,0.0,0.0,0.0,0.0,0.0,0.0,0.0,0.0,0.0,0.0,0.0,0.0,0.0,0.0,0.0,0.0,0.0,0.0,0.0,0.0,0.0,0.0,0.0,0.0,0.0,0.0,0.0,0.0,0.0,0.0,0.0,0.0,0.0,0.0,0.0,0.0,0.0,0.0,0.0,0.0,0.0,0.0,0.0,0.0,0.0,0.0,0.0,0.0,0.0,0.0,0.0,0.0,0.0,0.0,0.0,0.0,0.0,0.0,0.0,0.0,0.0,0.0,0.0,0.0,0.0,0.0,0.0,0.0,0.0,0.0,0.0,0.0,0.0,0.0,0.0,0.0,0.0,0.0,0.0,0.0,0.0,0.0,0.0,0.0,0.0,0.0,0.0,0.0,0.0,0.0,0.0,0.0,0.0,0.0,0.0,0.0,0.0,0.0,0.0,0.0,0.0,0.0,0.0,0.0,0.0,0.0,0.0,0.0,0.0,0.0,0.0,0.0,0.0,0.0,0.0,0.0,0.0,0.0,0.0,0.0,0.0,0.0,0.0,0.0,0.0,0.0,0.0,0.0,0.0,0.0,0.0,0.0,0.0,0.0,0.0,0.0,0.0,0.0,0.0,0.0,0.0,0.0,0.0,0.0,0.0,0.0,0.0,0.0,0.0,0.0,0.0,0.0,0.0,0.0,0.0,0.0,0.0,0.0,0.0,0.0,0.0,0.0,0.0,0.0,0.0,0.0,0.0,0.0,0.0,0.0,0.0,0.0,0.0,0.0,0.0,0.0,0.0,0.0,0.0,0.0,0.0,0.0,0.0,0.0,0.0,0.0,0.0,0.0,0.0,0.0,0.0,0.0,0.0,0.0,0.0,0.0,0.0,0.0,0.0,0.0,0.0,0.0,0.0,0.0,0.0,0.0,0.0,0.0,0.0,0.0,0.0,0.0,0.0,0.0,0.0,0.0,0.0,0.0,0.0,0.0,0.0,0.0,0.0,0.0,0.0,0.0,0.0,0.0,0.0,0.0,0.0,0.0,0.0,0.0,0.0,0.0,0.0,0.0,0.0,0.0,0.0,0.0,0.0,0.0,0.0,0.0,0.0,0.0,0.0,0.0,0.0,0.0,0.0,0.0,0.0,0.0,0.0,0.0,0.0,0.0,0.0,0.0,0.0,0.0,0.0,0.0,0.0,0.0,0.0,0.0,0.0,0.0,0.0,0.0,0.0,0.0,0.0,0.0,0.0,0.0,0.0,0.0,0.0,0.0,0.0,0.0,0.0,0.0,0.0,0.0,0.0,0.0,0.0,0.0,0.0,0.0,0.0,0.0,0.0,0.0,0.0,0.0,0.0,0.0,0.0,0.0,0.0,0.0,0.0,0.0,0.0,0.0,0.0,0.0,0.0,0.0,0.0,0.0,0.0,0.0,0.0,0.0,0.0,0.0,0.0,0.0,0.0,0.0,0.0,0.0,0.0,0.0,0.0,0.0,0.0,0.0,0.0,0.0,0.0,0.0,0.0,0.0,0.0,0.0,0.0,0.0,0.0,0.0,0.0,0.0,0.0,0.0,0.0,0.0,0.0,0.0,0.0,0.0,0.0,0.0,0.0,0.0,0.0,0.0,0.0,0.0,0.0,0.0,0.0,0.0,0.0,0.0,0.0,0.0,0.0,0.0,0.0,0.0,0.0,0.0,0.0,0.0,0.0,0.0,0.0,0.0,0.0,0.0,0.0,0.0,0.0,0.0,0.0,0.0,0.0,0.0,0.0,0.0,0.0,0.0,0.0,0.0,0.0,0.0,0.0,0.0,0.0,0.0,0.0,0.0,0.0,0.0,0.0,0.0,0.0,0.0,0.0,0.0,0.0,0.0,0.0,0.0,0.0,0.0,0.0,0.0,0.0,0.0,0.0,0.0,0.0,0.0,0.0,0.0,0.0,0.0,0.0,0.0,0.0,0.0,0.0,0.0,0.0,0.0,0.0,0.0,0.0,0.0,0.0,0.0,0.0,0.0,0.0,0.0,0.0,0.0,0.0,0.0,0.0,0.0,0.0,0.0,0.0,0.0,0.0,0.0,0.0,0.0,0.0,0.0,0.0,0.0,0.0,0.0,0.0,0.0,0.0,0.0,0.0,0.0,0.0,0.0,0.0,0.0,0.0,0.0,0.0,0.0,0.0,0.0,0.0,0.0,0.0,0.0,0.0,0.0,0.0,0.0,0.0,0.0,0.0,0.0,0.0,0.0,0.0,0.0,0.0,0.0,0.0,0.0,0.0,0.0,0.0,0.0,0.0,0.0,0.0,0.0,0.0,0.0,0.0,0.0,0.0,0.0,0.0,0.0,0.0,0.0,0.0,0.0,0.0,0.0,0.0,0.0,0.0,0.0,0.0,0.0,0.0,0.0,0.0,0.0,0.0,0.0,0.0,0.0,0.0,0.0,0.0,0.0,0.0,0.0,0.0,0.0,0.0,0.0,0.0,0.0,0.0,0.0,0.0,0.0,0.0,0.0,0.0,0.0,0.0,0.0,0.0,0.0,0.0,0.0,0.0,0.0,0.0,0.0,0.0,0.0,0.0,0.0,0.0,0.0,0.0,0.0,0.0,0.0,0.0,0.0,0.0,0.0,0.0,0.0,0.0,0.0,0.0,0.0,0.0,0.0,0.0,0.0,0.0,0.0,0.0,0.0,0.0,0.0,0.0,0.0,0.0,0.0,0.0,0.0,0.0,0.0,0.0,0.0,0.0,0.0,0.0,0.0,0.0,0.0,0.0,0.0,0.0,0.0,0.0,0.0,0.0,0.0,0.0,0.0,0.0,0.0,0.0,0.0,0.0,0.0,0.0,0.0,0.0,0.0,0.0,0.0,0.0,0.0,0.0,0.0,0.0,0.0,0.0,0.0,0.0,0.0,0.0,0.0,0.0,0.0,0.0,0.0,0.0,0.0,0.0,0.0,0.0,0.0,0.0,0.0,0.0,0.0,0.0,0.0,0.0,0.0,0.0,0.0,0.0,0.0,0.0,0.0,0.0,0.0,0.0,0.0,0.0,0.0,0.0,0.0,0.0,0.0,0.0,0.0,0.0,0.0,0.0,0.0,0.0,0.0,0.0,0.0,0.0,0.0,0.0,0.0,0.0,0.0,0.0,0.0,0.0,0.0,0.0,0.0,0.0,0.0,0.0,0.0,0.0,0.0,0.0,0.0,0.0,0.0,0.0,0.0,0.0,0.0,0.0,0.0,0.0,0.0,0.0,0.0,0.0,0.0,0.0,0.0,0.0,0.0,0.0,0.0,0.0,0.0,0.0,0.0,0.0,0.0,0.0,0.0,0.0,0.0,0.0,0.0,0.0,0.0,0.0,0.0,0.0,0.0,0.0,0.0,0.0,0.0,0.0,0.0,0.0,0.0,0.0,0.0,0.0,0.0,0.0,0.0,0.0,0.0,0.0,0.0,0.0,0.0,0.0,0.0,0.0,0.0,0.0,0.0,0.0,0.0,0.0,0.0,0.0,0.0,0.0,0.0,0.0,0.0,0.0,0.0,0.0,0.0,0.0,0.0,0.0,0.0,0.0,0.0,0.0,0.0,0.0,0.0,0.0,0.0,0.0,0.0,0.0,0.0,0.0,0.0,0.0,0.0,0.0,0.0,0.0,0.0,0.0,0.0,0.0,0.0,0.0,0.0,0.0,0.0,0.0,0.0,0.0,0.0,0.0,0.0,0.0,0.0,0.0,0.0,0.0,0.0,0.0,0.0,0.0,0.0,0.0,0.0,0.0,0.0,0.0,0.0,0.0,0.0,0.0,0.0,0.0,0.0,0.0,0.0,0.0,0.0,0.0,0.0,0.0,0.0,0.0,0.0,0.0,0.0,0.0,0.0,0.0,0.0,0.0,0.0,0.0,0.0,0.0,0.0,0.0,0.0,0.0,0.0,0.0,0.0,0.0,0.0,0.0,0.0,0.0,0.0,0.0,0.0,0.0,0.0,0.0,0.0,0.0,0.0,0.0,0.0,0.0,0.0,0.0,0.0,0.0,0.0,0.0,0.0,0.0,0.0,0.0,0.0,0.0,0.0,0.0,0.0,0.0,0.0,0.0,0.0,0.0,0.0,0.0,0.0,0.0,0.0,0.0,0.0,0.0,0.0,0.0,0.0,0.0,0.0,0.0,0.0,0.0,0.0,0.0,0.0,0.0,0.0,0.0,0.0,0.0,0.0,0.0,0.0,0.0,0.0,0.0,0.0,0.0,0.0,0.0,0.0,0.0,0.0,0.0,0.0,0.0,0.0,0.0,0.0,0.0,0.0,0.0,0.0,0.0,0.0,0.0,0.0,0.0,0.0,0.0,0.0,0.0,0.0,0.0,0.0,0.0,0.0,0.0,0.0,0.0,0.0,0.0,0.0,0.0,0.0,0.0,0.0,0.0,0.0,0.0,0.0,0.0,0.0,0.0,0.0,0.0,0.0,0.0,0.0,0.0,0.0,0.0,0.0,0.0,0.0,0.0,0.0,0.0,0.0,0.0,0.0,0.0,0.0,0.0,0.0,0.0,0.0,0.0,0.0,0.0,0.0,0.0,0.0,0.0,0.0,0.0,0.0,0.0,0.0,0.0,0.0,0.0,0.0,0.0,0.0,0.0,0.0,0.0,0.0,0.0,0.0,0.0,0.0,0.0,0.0,0.0,0.0,0.0,0.0,0.0,0.0,0.0,0.0,0.0,0.0,0.0,0.0,0.0,0.0,0.0,0.0,0.0,0.0,0.0,0.0,0.0,0.0,0.0,0.0,0.0,0.0,0.0,0.0,0.0,0.0,0.0,0.0,0.0,0.0,0.0,0.0,0.0,0.0,0.0,0.0,0.0,0.0,0.0,0.0,0.0,0.0,0.0,0.0,0.0,0.0,0.0,0.0,0.0,0.0,0.0,0.0,0.0,0.0,0.0,0.0,0.0,0.0,0.0,0.0,0.0,0.0,0.0,0.0,0.0,0.0,0.0,0.0,0.0,0.0,0.0,0.0,0.0,0.0,0.0,0.0,0.0,0.0,0.0,0.0,0.0,0.0,0.0,0.0,0.0,0.0,0.0,0.0,0.0,0.0,0.0,0.0,0.0,0.0,0.0,0.0,0.0,0.0,0.0,0.0,0.0,0.0,0.0,0.0,0.0,0.0,0.0,0.0,0.0,0.0,0.0,0.0,0.0,0.0,0.0,0.0,0.0,0.0,0.0,0.0,1.382,1.2089,0.0,0.0,0.0,0.0,0.0,0.0,0.0,0.0,0.0,0.0,0.0,0.0,0.0,0.0,0.0,0.0,0.0,0.0,0.0,0.0,0.0,0.0,0.0,0.0,0.0,0.0,0.0,0.0,0.0,0.0,0.0,0.0,0.0,0.0,0.0,0.0,0.0,0.0,0.0,0.0,0.0,0.0,0.0,0.0,0.0,0.0,0.0,0.0,0.0,0.0,0.0,0.0,0.0,0.0,0.0,0.0,0.0,0.0,0.0,0.0,0.0,0.0,0.0,0.0,0.0,0.0,0.0,0.0,0.0,0.0,0.0,0.0,0.0,0.0,0.0,0.0,0.0,0.0,0.0,0.0,0.0,0.0,0.0,0.0,0.0,0.0,0.0,0.0,0.0,0.0,0.0,0.0,0.0,0.0,0.0,0.0,0.0,0.0,0.0,0.0,0.0,0.0,0.0,0.0,0.0,0.0,0.0,0.0,0.0,0.0,0.0,0.0,0.0,0.0,1.3831,1.3147,0.0,0.0,0.0,0.0,0.0,0.0,0.0,0.0,0.0,0.0,0.0,0.0,0.0,0.0,0.0,0.0,0.0,0.0,0.0,0.0,0.0,0.0,0.0,0.0,0.0,0.0,0.0,0.0,0.0,0.0,0.0,0.0,0.0,0.0,0.0,0.0,0.0,0.0,0.0,0.0,0.0,0.0,0.0,0.0,0.0,0.0,0.0,0.0,0.0,0.0,0.0,0.0,0.0,0.0,0.0,0.0,0.0,0.0,0.0,0.0,0.0,0.0,0.0,0.0,0.0,0.0,0.0,0.0,0.0,0.0,0.0,0.0,0.0,0.0,0.0,0.0,0.0,0.0,0.0,0.0,0.0,0.0,0.0,0.0,0.0,0.0,0.0,0.0,0.0,0.0,0.0,0.0,0.0,0.0,0.0,0.0,0.0,0.0,0.0,0.0,0.0,0.0,0.0,0.0,0.0,0.0,0.0,0.0,1.541,1.5806,1.5281,1.4973,1.4628,1.4267,1.4717,1.5068,1.5207,1.346,0.0,0.0,0.0,0.0,0.0,0.0,0.0,0.0,0.0,0.0,0.0,0.0,0.0,0.0,0.0,0.0,0.0,0.0,0.0,0.0,0.0,0.0,0.0,0.0,0.0,0.0,0.0,0.0,0.0,0.0,0.0,0.0,0.0,0.0,0.0,0.0,0.0,0.0,0.709,0.6469,0.6452,0.71,0.8937,0.0,0.0,0.0,0.0,0.0,0.0,0.0,0.0,0.0,0.0,0.0,0.0,0.0,0.0,0.0,0.0,0.0,0.0,0.0,0.0,0.0,0.0,0.0,0.0,0.0,0.0,0.0,0.0,0.0,0.0,0.0,0.0,0.0,0.0,0.0,0.0,0.0,0.0,0.0,0.0,0.0,0.0,0.0,1.4351,1.4124,0.0,0.0,0.0,0.0,0.0,0.0,0.0,0.0,0.0,0.0,0.0,0.0,0.0,1.243,1.313,1.4704,1.5652,1.5949,1.8081,1.8499,1.7347,1.7855,1.776,1.7144,1.5656,0.0,1.5018,1.4621,0.0,0.0,0.0,0.0,0.0,0.0,0.0,0.0,0.0,0.0,0.0,0.0,0.0,0.0,0.0,0.0,0.0,0.0,0.0,0.0,0.0,0.0,0.0,0.0,0.0,0.0,0.0,0.0,0.0,0.0,0.0,0.0,0.0,0.0,0.0,0.0,0.7672,0.7926,0.861,0.8069,0.8127,0.872,0.9362,0.9611,0.956,1.0281,0.0,0.0,0.0,0.0,0.0,0.0,0.0,0.0,0.0,0.0,0.0,0.0,0.0,0.0,0.0,0.0,0.0,0.0,0.0,0.0,0.0,0.0,0.0,0.0,0.0,0.0,0.0,0.0,0.0,0.0,0.0,0.0,0.0,0.0,0.0,0.0,0.0,0.0,0.0,1.4025,1.4337,1.335,1.3412,1.2831,0.0,0.0,0.0,0.0,0.0,0.0,0.0,0.0,0.0,1.226,1.3472,1.4133,1.408,1.663,1.7844,1.7774,1.9078,1.9375,1.8837,1.9368,1.9223,1.8561,1.801,1.7504,1.6988,1.5137,1.4577,1.4711,0.0,0.0,0.0,0.0,1.0947,1.1868,0.0,0.0,0.0,0.0,0.0,0.0,0.0,0.0,0.0,0.0,0.0,0.0,0.0,0.0,0.0,0.452,0.0,0.0,0.0,0.0,0.0,0.0,0.0,0.0,0.0,0.0,0.0,0.0,0.9304,0.969,1.0231,0.9819,0.9856,1.0298,0.9901,0.9493,0.9171,0.9664,1.0021,0.0,0.0,0.0,0.0,0.0,0.0,0.0,0.0,0.0,0.0,0.0,0.0,0.0,0.0,0.0,0.0,0.0,0.0,0.0,0.0,0.0,0.0,0.0,0.0,0.0,0.0,0.0,0.0,0.0,0.0,0.0,0.0,0.0,0.0,0.0,0.0,0.0,0.0,1.4061,1.4249,1.2981,1.3178,1.2819,0.0,0.0,0.0,0.0,0.0,0.0,1.3148,1.3342,1.3253,1.2776,1.5046,1.6053,1.5636,1.8209,1.9369,1.9132,1.953,1.969,1.9711,2.0,1.979,1.9225,1.9562,1.9309,1.8474,1.6072,1.5251,1.5375,1.4297,1.3376,1.2651,1.2201,1.2539,1.3258,0.0,0.0,0.0,0.0,0.0,0.0,0.0,0.0,0.0,0.0,0.0,0.0,0.0,0.0,0.3833,0.3433,0.4194,0.4342,0.0,0.0,0.0,0.0,0.0,0.0,0.0,0.0,0.0,1.0298,1.0582,1.0829,1.1145,1.0714,1.0643,1.0847,1.0429,1.001,0.9597,0.9864,1.0287,1.0737,0.0,0.0,0.0,0.0,0.0,0.0,0.0,0.0,0.0,0.0,0.0,0.0,0.0,0.0,0.0,0.0,0.0,0.0,0.0,0.0,0.0,0.0,0.0,0.0,0.0,0.0,0.0,0.0,0.0,0.0,0.0,0.0,0.0,0.0,0.0,0.0,0.0,0.0,0.0,1.4009,1.4462,0.0,0.0,0.0,0.0,1.2463,1.2663,1.3021,1.3631,1.4033,1.5072,1.694,1.7167,1.7678,1.8659,1.8835,1.9169,1.9639,1.969,1.969,1.969,1.9711,1.9546,1.9192,1.9225,1.8856,1.8223,1.8053,1.8078,1.7944,1.5291,1.4534,1.4637,1.1966,1.2674,1.4898,0.0,0.0,0.0,0.0,0.0,0.0,0.0,0.0,0.0,0.0,0.0,0.0,0.0,0.391,0.4188,0.4024,0.4633,0.4892,0.4484,0.0,0.0,0.0,0.0,0.0,0.0,0.0,0.9583,1.1546,1.1487,1.1751,1.2272,1.1864,1.1679,1.1728,1.1006,1.0918,1.1227,1.0774,1.0644,1.0766,1.1183,1.137,0.0,0.0,0.0,0.0,0.0,0.0,0.0,0.0,0.0,0.0,0.0,0.0,0.0,0.0,0.0,0.0,0.0,0.0,0.0,0.0,0.0,0.0,0.0,0.0,0.0,0.0,0.0,0.0,0.0,0.0,0.0,0.0,0.0,0.0,0.0,0.0,0.0,1.5067,1.4689,0.0,1.4012,1.386,1.3636,1.3318,1.4422,1.5256,1.5496,1.5653,1.6414,1.7882,1.8274,1.9002,2.0171,2.0519,2.0807,2.0976,2.0976,2.0752,2.0348,2.0618,2.0274,1.9526,1.9805,1.9633,1.9163,1.9163,1.8753,1.7942,1.6619,1.6491,1.6886,1.5518,1.6085,1.7511,0.0,0.0,0.0,0.0,0.0,0.0,0.0,0.0,0.0,0.0,0.0,0.4118,0.3979,0.4405,0.4804,0.5114,0.5252,0.5188,0.4888,0.0,0.0,0.0,0.0,0.0,0.0,0.9736,1.0876,1.2656,1.2469,1.2535,1.2871,1.2432,1.2319,1.2443,1.1542,1.1794,1.2761,1.1767,1.1402,1.1531,1.207,1.1775,1.109,0.0,0.0,0.0,0.0,0.0,0.0,0.0,0.0,0.0,0.0,0.0,0.0,0.0,0.0,0.0,0.0,0.0,0.0,0.0,0.0,0.0,0.0,0.0,0.0,0.0,0.0,0.0,0.0,0.0,0.0,0.0,0.0,0.0,0.0,1.425,1.5054,1.5379,1.4979,1.4638,1.4619,1.4637,1.4638,1.4619,1.5811,1.6609,1.6798,1.681,1.7419,1.8782,1.9167,1.9936,2.1167,2.152,2.1695,2.1695,2.1695,2.147,2.1036,2.109,2.0409,1.9239,1.9823,1.9652,1.8921,1.9474,1.9227,1.8455,1.7927,1.7862,1.8066,1.7706,1.8145,1.893,0.0,0.0,0.0,0.0,0.0,0.0,0.0,0.0,0.0,0.0,0.4428,0.4837,0.5251,0.536,0.5744,0.6586,0.5859,0.5117,0.4531,0.4561,0.0,0.0,0.0,0.0,1.062,1.1746,1.2717,1.3596,1.3516,1.3301,1.2939,1.2451,1.2549,1.3031,1.2111,1.2557,1.3971,1.2766,1.2538,1.2976,1.3032,1.2118,1.0743,0.0,0.0,0.0,0.0,0.0,0.0,0.0,0.0,0.0,0.0,0.0,0.0,0.0,0.0,0.0,0.0,0.0,0.0,0.0,0.0,0.0,0.0,0.0,0.0,0.0,0.0,0.0,0.0,0.0,0.0,0.0,0.0,0.0,1.2179,1.4594,1.6132,1.513,1.5429,1.5957,1.6497,1.6057,1.5969,1.6509,1.6559,1.6823,1.742,1.742,1.8137,1.9816,1.9874,2.0457,2.1655,2.1739,2.1769,2.1784,2.1769,2.1754,2.1739,2.1081,1.9864,1.8373,1.9358,1.8876,1.7539,1.909,1.972,1.9683,1.9132,1.8574,1.8145,1.8145,1.8458,1.9006,0.0,0.0,0.0,0.0,0.0,0.0,0.0,0.0,0.0,0.0,0.5885,0.6639,0.7058,0.7743,0.8253,0.8407,0.7261,0.6632,0.6864,0.0,0.0,0.0,0.0,0.0,1.2186,1.2666,1.3647,1.5256,1.4049,1.3741,1.4125,1.3621,1.3236,1.2952,1.3297,1.335,1.3236,1.348,1.3352,1.2962,1.3397,1.2678,1.1423,0.0,0.0,0.0,0.0,0.0,0.0,0.0,0.0,0.0,0.0,0.0,0.0,0.0,0.0,0.0,0.0,0.0,0.0,0.0,0.0,0.0,0.0,0.0,0.0,0.0,0.0,0.0,0.0,0.0,0.0,0.0,1.5914,1.6767,1.5981,1.6211,1.671,1.7225,1.7061,1.6974,1.7137,1.7011,1.6986,1.7137,1.7513,1.802,1.8591,1.7441,1.7583,1.9392,1.9447,2.0032,2.1178,2.2468,2.3325,2.3819,2.331,2.3071,2.3056,2.2413,2.1625,2.0757,2.1028,2.0624,1.9819,2.0251,2.0438,2.0341,1.9322,1.9043,1.9207,1.8817,1.9006,1.9309,0.0,0.0,0.0,0.0,0.0,0.0,0.0,0.0,0.0,0.0,0.6884,0.787,0.8448,0.8972,0.9423,0.9719,0.837,0.7614,0.771,0.0,0.0,0.0,0.0,1.1505,1.3247,1.3774,1.4668,1.5879,1.4942,1.4696,1.4991,1.466,1.4337,1.405,1.4,1.3987,1.3993,1.3736,1.3465,1.3286,1.3372,1.2711,1.1657,1.197,1.1614,1.0782,1.0012,1.0733,1.1836,1.0493,0.0,0.0,0.0,0.0,0.0,0.0,0.0,0.0,0.0,0.0,0.0,0.0,0.0,0.0,0.0,0.0,0.0,0.0,0.0,0.0,0.0,0.0,0.0,0.0,1.7276,1.8932,1.9083,1.8216,1.7727,1.8154,1.7928,1.7727,1.7727,1.794,1.7978,1.7739,1.8442,1.9137,1.98,1.9139,1.9112,2.0019,2.1023,2.1542,2.1435,2.3451,2.4642,2.5031,2.4627,2.4298,2.4014,2.3355,2.2357,2.1104,2.152,2.1078,2.0131,2.081,2.1126,2.1013,0.0,0.0,0.0,0.0,1.9442,1.9585,0.0,0.0,0.0,0.0,0.0,0.0,0.0,0.0,0.0,0.0,0.0,0.8802,0.972,0.9745,0.9978,1.0696,0.9281,0.8175,0.0,0.0,0.0,1.0807,1.2529,1.3652,1.4072,1.5032,1.5776,1.6224,1.6073,1.5929,1.5788,1.5742,1.5706,1.5631,1.4622,1.4716,1.5439,1.3851,1.3389,1.3793,1.3253,1.249,1.1611,1.1611,1.1103,1.0316,0.9953,1.0115,1.0427,1.0243,0.0,0.0,0.0,0.0,0.0,0.0,0.0,0.0,0.0,0.0,0.0,0.0,0.0,0.0,0.0,0.0,0.0,0.0,0.0,0.0,0.0,0.0,0.0,0.0,1.8734,2.0363,2.143,2.0326,1.9196,1.8643,1.8518,1.848,1.848,1.8932,1.9007,1.8518,1.9522,2.0425,2.1153,2.1589,0.0,0.0,0.0,2.3746,2.2119,2.4446,2.5644,2.5719,2.5644,2.5345,2.4776,2.4059,2.2617,2.0759,2.1545,2.1015,1.9706,2.1188,2.1799,2.1739,2.0991,2.0722,2.0617,1.9743,1.9555,1.966,0.0,0.0,0.0,0.0,0.0,0.0,0.0,0.0,0.0,0.8497,0.9552,1.0596,1.1788,1.1911,1.1887,1.1868,0.9944,0.869,0.0,0.0,0.9967,1.2374,1.2838,1.3946,1.592,1.6156,1.6925,1.8189,1.7255,1.7076,1.7594,1.7168,1.6688,1.6253,1.6425,1.6011,1.5264,1.4851,1.4408,1.4034,1.3887,1.2995,1.1734,1.1734,1.1305,1.0691,1.0643,1.0972,1.1358,1.0302,1.0625,1.1404,1.1301,0.0,0.0,0.0,0.0,0.0,0.0,0.0,0.0,0.0,0.0,0.0,0.0,0.0,0.0,0.0,0.0,0.0,0.0,0.0,0.0,1.9731,2.0611,2.1393,2.2058,2.1882,2.1468,2.0928,2.0464,2.024,2.024,2.0288,2.03,2.02,2.134,2.2339,2.3026,2.2401,2.2245,2.2626,2.3064,2.3169,2.279,2.4637,2.5869,2.6393,2.5869,0.0,2.6168,2.4971,2.4179,2.3747,2.3372,2.276,2.2032,2.2368,2.2488,2.2368,2.1171,2.0722,2.046,1.8484,1.8569,1.9489,0.0,0.0,0.0,0.0,0.0,0.0,0.0,0.0,0.0,0.0,0.982,1.0699,1.1556,1.1609,1.1598,1.1557,1.0335,0.0,0.0,1.0825,1.2053,1.3796,1.438,1.529,1.6472,1.6866,1.7578,1.8715,1.8137,1.81,1.8534,1.8277,1.7735,1.7069,1.6996,1.6513,1.5792,1.543,1.5054,1.4756,1.4541,1.3974,1.327,1.2804,1.2323,1.1841,1.1841,1.2098,1.2229,1.1628,1.178,1.2227,1.2032,1.1788,1.1406,0.0,0.0,0.0,0.0,0.0,0.0,0.0,0.0,0.0,0.0,0.0,0.0,0.0,0.0,1.4986,0.0,0.0,1.897,2.0872,2.1594,2.2297,2.3414,2.3565,2.315,2.2033,2.1895,2.1895,2.1895,2.1895,2.1939,2.2021,2.2913,2.3811,2.4563,2.4702,2.4589,2.4017,2.5501,2.556,2.4002,2.6065,2.7096,2.7081,2.6752,2.6587,2.6557,2.557,2.4941,2.4552,2.3894,2.343,2.3131,2.3131,2.3131,2.3011,2.171,2.1201,2.1013,1.9538,1.9313,1.9645,0.0,0.0,0.0,0.0,0.0,0.0,0.0,0.0,0.0,0.0,0.9852,1.0487,1.1042,1.0973,1.0787,0.0,0.0,0.0,0.0,1.2664,1.3926,1.4863,1.5956,1.6539,1.6708,1.7413,1.8224,1.9095,1.9095,1.9214,1.951,1.951,1.9013,1.8143,1.7546,1.7003,1.6659,1.5959,1.5664,1.5635,1.5303,1.5107,1.4961,1.4268,1.3584,1.2998,1.2998,1.3037,1.3065,1.2929,1.2968,1.3065,1.2929,1.2881,1.2511,1.0577,1.0422,0.0,0.0,0.0,0.0,0.0,0.0,0.0,0.0,0.0,1.412,1.438,1.5458,1.6494,1.6935,1.8113,1.9711,2.1881,2.2548,2.3301,2.477,2.5071,2.4644,2.3276,2.3326,2.3366,2.3253,2.3301,2.3348,2.355,2.4279,2.5078,2.592,2.7215,2.7258,2.5761,2.8092,2.8122,2.5541,2.7423,2.8113,2.7625,2.7625,2.734,2.6752,2.6093,2.5435,2.4731,2.3954,2.3595,2.3595,2.3595,2.3535,2.331,2.2293,2.1739,2.1425,2.0752,2.0243,1.9959,0.0,0.0,0.0,0.0,0.0,0.0,0.0,0.0,0.0,0.0,0.0,0.0,0.0,0.0,0.0,0.0,0.0,0.0,1.1475,1.2764,1.4053,1.5283,1.6063,1.6821,1.7468,1.8221,1.9179,2.0457,2.0457,2.0736,2.1217,2.1217,2.0748,1.9908,1.9158,1.8425,1.7584,1.6874,1.6519,1.6519,1.6533,1.6269,1.5908,1.587,1.4805,1.3437,1.3437,1.357,1.3637,1.3055,1.3238,1.36,1.3065,1.2881,1.2686,1.1689,0.0,0.9794,0.8636,0.7617,0.7459,1.004,1.1123,1.2146,0.0,0.0,1.8068,1.7768,1.9984,2.2011,2.2071,2.3144,2.4117,2.4417,2.448,2.477,2.5423,2.595,2.6269,2.6013,2.5184,2.4443,2.3954,2.3904,2.3959,2.4168,2.5398,2.6512,2.7245,2.8611,2.8979,2.8226,2.8547,2.8263,2.73,2.7575,2.7649,2.7625,2.7625,2.758,2.749,2.6782,2.6123,2.5435,2.4148,2.3595,2.3595,2.3595,2.3266,2.2813,2.2622,2.1859,2.0737,2.0049,2.0139,2.0617,0.0,0.0,0.0,0.0,0.0,0.0,0.0,0.0,0.0,0.0,0.0,0.0,0.0,0.0,0.0,0.0,0.0,0.0,1.2598,1.4405,1.5924,1.7173,1.7901,1.8473,1.8739,1.9474,2.0296,2.1142,2.1142,2.1267,2.1493,2.182,2.1399,2.0346,2.0317,1.9716,1.8672,1.835,1.8556,1.9059,1.8793,1.8414,1.807,1.8023,1.6822,1.5154,1.4215,1.3797,0.0,0.0,1.3436,1.333,1.3375,1.2969,1.2303,1.1558,1.0624,0.0,0.9713,1.0171,0.0,0.0,1.4436,1.61,1.7949,1.9241,2.0218,2.0886,2.246,2.373,2.373,2.4054,2.477,0.0,2.5699,2.5686,2.6892,2.7268,2.7306,2.6979,2.595,2.4933,2.4079,2.4556,2.4734,2.4326,2.5877,2.7183,2.7937,2.9359,2.9998,2.9714,3.0088,2.9804,2.8757,2.8742,2.8353,2.7625,2.7625,2.7625,2.7595,2.6886,2.6019,2.4986,2.4014,2.3595,2.3565,2.3206,2.2906,2.2679,2.2263,2.1994,2.1724,2.0677,2.0213,2.0228,0.0,0.0,0.0,0.0,0.0,0.0,0.0,0.0,0.0,0.0,0.0,0.0,0.0,0.0,0.0,0.0,0.0,0.0,0.0,1.541,1.7154,1.8453,1.9329,1.9805,1.9805,2.0551,2.1242,2.1945,2.1945,2.1981,2.1975,2.2369,2.1788,2.0467,2.0884,2.0359,1.9287,1.9568,2.0124,2.0794,2.0722,2.0439,1.9998,1.9727,1.8419,1.6481,1.4956,1.4253,0.0,0.0,1.3723,1.3445,1.3694,1.3139,1.2214,1.1476,1.0547,0.9973,1.1037,0.0,0.0,1.6151,1.7694,1.9213,2.1357,2.2084,2.2573,2.3784,2.4755,2.5329,2.5329,2.5222,2.5649,2.7256,2.6829,2.6716,2.7934,2.8109,2.7733,2.6728,2.5875,2.4707,2.3012,2.4243,2.5027,2.4774,2.6209,2.7456,2.8165,2.9407,3.0016,2.984,3.0336,3.0081,2.8956,2.9009,2.8532,2.7625,2.7625,2.7625,2.7595,2.6692,2.5794,2.4852,2.3984,2.3595,2.3565,2.3116,2.2873,2.2664,2.2158,2.2143,2.2293,2.1335,2.0662,2.0378,0.0,0.0,0.0,0.0,0.0,0.0,0.0,0.0,0.0,0.0,0.0,0.0,0.0,0.0,0.0,0.0,0.0,0.0,0.0,1.4996,1.6744,1.8442,1.9725,2.0399,2.0399,2.1107,2.1995,2.3027,2.3027,2.312,2.3261,2.3273,2.2332,2.0561,2.0571,2.0104,1.936,2.0339,2.0755,2.0896,2.1771,2.1812,2.1318,2.0736,1.914,1.6888,1.5462,0.0,0.0,1.4484,1.4313,1.4283,1.3931,1.3419,0.0,1.1719,1.0563,1.0134,1.2478,0.0,1.2425,1.8744,1.9521,1.9698,2.353,2.5059,2.5813,2.6411,2.7311,2.7949,2.7949,2.7996,2.8009,2.8072,2.8059,2.8047,2.8097,2.8109,2.7306,2.5146,2.487,2.3552,2.025,2.2435,2.4531,2.5765,2.6496,2.7207,2.7954,2.8643,2.8761,2.8118,2.8264,2.8052,2.7377,2.7543,2.7655,2.7625,2.7625,2.7625,2.758,2.6228,2.5615,2.551,2.4178,2.3595,2.3595,2.358,2.3221,2.2724,2.2694,2.2263,2.1724,2.168,2.165,2.1635,0.0,0.0,0.0,0.0,0.0,0.0,0.0,0.0,0.0,0.0,0.0,0.0,0.0,0.0,0.0,0.0,0.0,0.0,0.0,1.5624,1.7666,1.9303,2.0814,2.1836,2.2206,2.2455,2.3125,2.4255,2.4255,2.3894,2.329,2.3724,2.2889,2.099,2.1366,2.1364,2.1141,2.1438,2.2382,2.3592,2.3537,2.3522,2.332,2.1411,1.9885,1.8421,0.0,0.0,0.0,1.3718,1.3424,1.3101,1.3107,1.2496,1.1522,1.0417,1.134,1.2834,1.3331,0.0,1.7224,2.008,2.1043,2.2115,2.5211,2.5831,2.6221,2.7812,2.667,2.5314,2.4932,2.4279,2.4156,2.5253,2.571,2.6565,2.8398,2.6766,2.5649,2.6364,2.482,0.0,0.0,0.0,2.3876,2.3522,2.5931,2.7511,2.7758,2.8575,2.8906,2.8636,2.8845,2.8642,2.7939,2.8178,2.8023,2.7625,2.7625,2.7625,2.7565,2.6213,2.5615,2.554,2.4178,2.3595,2.3565,2.3161,2.2862,2.2679,2.2203,2.1889,2.1739,2.2188,2.1799,2.1111,0.0,0.0,0.0,0.0,0.0,0.0,0.0,0.0,0.0,0.0,0.0,0.0,0.0,0.0,0.0,0.0,0.0,0.0,0.0,0.0,1.6956,1.8947,2.0246,2.1207,2.1825,2.2069,2.2718,2.386,2.4293,2.4242,2.3653,2.4186,2.3626,2.2039,2.2413,2.2553,2.2531,2.2988,2.3826,2.474,2.4424,2.4185,2.3733,2.1462,1.9871,0.0,0.0,0.0,1.2873,1.3241,1.2955,1.2455,1.2449,1.1436,1.0368,1.0884,1.2199,1.3879,1.5672,1.7774,2.0058,2.2315,2.3233,2.4164,2.6596,2.6571,2.6508,2.8238,2.6463,2.4541,2.414,2.3142,2.2712,2.3909,2.427,2.5207,2.7385,2.5912,2.4958,2.5988,2.4531,2.3853,0.0,0.0,0.0,2.2975,2.5038,2.6375,2.6375,2.6728,2.714,2.7769,2.8066,2.7995,2.7527,2.7988,2.8008,2.7625,2.7335,2.7215,2.7186,2.5854,2.4894,2.4312,2.382,2.324,2.2666,2.2924,2.3011,2.2936,2.2293,2.2054,2.2069,2.2263,2.165,2.0812,0.0,0.0,0.0,0.0,0.0,0.0,0.0,0.0,0.0,0.0,0.0,0.0,0.0,0.0,0.0,0.0,0.0,0.0,0.0,0.0,0.0,1.7397,1.819,1.8836,1.9543,2.0188,2.1055,2.2068,2.3272,2.3899,2.3946,2.4515,2.4225,2.3273,2.3262,2.3334,2.3444,2.4584,2.4716,2.4205,2.4435,2.3811,2.262,2.0969,0.0,0.0,0.0,0.0,0.0,0.0,0.0,0.0,1.2014,1.0561,0.9649,1.2936,1.3193,1.3604,1.907,2.0153,2.0827,2.5331,2.5685,2.554,2.7591,2.7224,2.674,2.7728,2.659,2.529,0.0,0.0,2.349,2.3829,2.3695,2.4091,2.5469,2.5523,2.5084,0.0,0.0,0.0,0.0,0.0,0.0,2.4004,2.4079,2.4104,2.4079,2.3552,2.3966,2.5564,2.6022,2.6224,2.6197,2.7045,2.752,2.7505,2.6841,2.6542,2.6497,2.5211,2.3689,2.2205,2.3154,2.2666,2.1257,2.2872,2.355,2.349,2.2832,2.2619,2.2503,2.1874,2.1231,2.0752,0.0,0.0,0.0,0.0,0.0,0.0,0.0,0.0,0.0,0.0,0.0,0.0,0.0,0.0,0.0,0.0,0.0,0.0,0.0,0.0,0.0,0.0,0.0,0.0,0.0,0.0,0.0,0.0,2.2069,2.1707,2.081,2.123,2.0897,1.9932,2.0189,2.0736,2.1419,2.1719,2.2203,2.2707,0.0,2.2768,2.2201,0.0,0.0,0.0,0.0,0.0,0.0,0.0,0.0,0.0,0.0,1.2316,1.1817,1.2344,1.4364,1.6753,1.8343,2.0758,2.3356,2.5331,2.5122,2.4917,2.7018,2.6724,2.5925,2.5697,2.3686,2.1511,0.0,0.0,0.0,2.1807,2.2132,0.0,2.5875,2.4456,0.0,2.4494,0.0,2.4368,2.531,2.5661,0.0,2.4092,2.5134,2.5649,2.5209,2.5046,2.5217,2.5829,2.6094,2.6245,2.6266,2.6153,2.6108,2.6108,2.5944,2.5854,2.5839,2.4955,2.4343,2.3911,2.3701,2.3357,2.2959,2.2924,2.2906,2.2802,2.1665,2.1216,2.1201,2.1021,2.0528,2.0049,0.0,0.0,0.0,0.0,0.0,0.0,0.0,0.0,0.0,0.0,0.0,0.0,0.0,0.0,0.0,0.0,0.0,0.0,0.0,0.0,0.0,0.0,0.0,0.0,0.0,0.0,0.0,0.0,0.0,0.0,1.9879,2.0677,2.054,1.9733,2.0254,2.0442,2.0334,2.0418,0.0,0.0,0.0,0.0,0.0,0.0,0.0,0.0,0.0,0.0,0.0,0.0,0.0,1.2153,1.3249,1.3215,1.3132,1.4733,0.0,1.8266,1.9867,2.2126,2.4142,2.4745,2.4851,2.4829,2.483,2.4541,2.3931,2.285,2.1071,0.0,1.8363,1.763,1.8063,0.0,0.0,0.0,2.5008,2.3602,2.2937,0.0,2.4343,0.0,2.637,2.6533,2.5975,2.4782,2.4883,2.4858,2.4531,2.434,2.468,2.5537,2.604,2.6375,2.6426,2.5853,2.5615,2.5615,2.5315,2.5027,2.4749,2.4343,2.3422,2.2207,2.2916,2.2614,2.1662,2.2103,2.2248,2.2143,2.1111,2.0722,2.0677,2.0378,2.0019,1.9735,0.0,0.0,0.0,0.0,0.0,0.0,0.0,0.0,0.0,0.0,0.0,0.0,0.0,0.0,0.0,0.0,0.0,0.0,0.0,0.0,0.0,0.0,0.0,0.0,0.0,0.0,0.0,0.0,0.0,0.0,0.0,0.0,0.0,0.0,0.0,0.0,0.0,0.0,0.0,0.0,0.0,0.0,0.0,0.0,0.0,0.0,0.0,0.0,0.0,0.0,1.4081,1.2815,1.4335,1.4226,1.4317,1.8123,1.884,1.9072,2.1987,2.3328,2.3904,2.3979,2.4695,2.4753,2.2469,2.2125,2.1818,2.0116,0.0,1.837,1.8833,1.8524,1.8839,2.0772,0.0,2.1479,2.3503,2.3125,2.3138,2.4443,2.4104,2.4493,2.6289,2.6126,2.5745,2.5611,2.4142,2.3251,2.3251,2.2928,2.3444,2.4991,2.5907,2.6418,2.6467,2.561,2.5235,2.5325,2.467,2.4011,2.3418,2.3467,2.1999,1.9556,2.1683,2.1401,1.9549,2.0956,2.156,2.15,2.0842,2.0572,2.0513,1.9899,1.969,1.969,0.0,0.0,0.0,0.0,0.0,0.0,0.0,0.0,0.0,0.0,0.8551,0.9494,0.0,0.0,0.0,0.0,0.0,0.0,0.0,0.0,0.0,0.0,0.0,0.0,0.0,0.0,0.0,0.0,0.0,0.0,0.0,0.0,0.0,0.0,0.0,0.0,0.0,0.0,0.0,0.0,0.0,0.0,0.0,0.0,0.0,0.0,0.0,0.0,0.0,0.0,1.4654,1.4974,1.7579,1.7802,1.7349,1.8393,1.9645,2.0723,2.0967,2.2098,2.3401,2.3879,2.4142,2.418,2.3667,2.2944,0.0,0.0,1.866,1.8292,1.8529,1.9186,2.0414,2.2585,2.2893,2.2781,2.2619,2.364,2.4142,0.0,2.296,2.3651,2.6251,2.4038,0.0,2.546,2.4506,2.3853,2.3853,2.3775,2.4001,2.4518,2.5293,2.5741,2.5779,2.4051,2.3484,2.404,2.3354,2.2684,2.2089,2.2609,2.2271,2.1262,2.1675,2.1625,2.1242,2.0968,2.0887,2.0812,2.0139,1.9869,1.9854,1.9735,1.969,1.969,0.0,0.0,0.0,0.0,0.0,0.0,0.0,0.0,0.7683,0.8428,0.9095,0.9811,1.0553,1.1322,0.0,0.0,0.0,0.0,0.0,0.0,0.0,0.0,0.0,0.0,0.0,0.0,0.0,0.0,0.0,0.0,0.0,0.0,0.0,0.0,0.0,0.0,0.0,0.0,0.0,0.0,0.0,0.0,0.0,0.0,0.0,0.0,0.0,0.0,0.0,0.0,1.4908,1.562,1.8678,1.926,1.8967,1.9344,2.0217,2.1081,2.1052,2.2051,2.314,2.3477,2.3778,2.3403,2.1151,0.0,0.0,0.0,1.6051,1.6169,1.658,1.7268,0.0,2.1614,2.234,2.2797,2.3554,2.4137,2.4374,2.4004,2.3555,2.3554,2.431,2.2935,2.2311,2.3034,2.2602,2.2822,2.3954,2.4111,2.4323,2.4535,2.4886,2.5091,2.5091,2.3822,2.3349,2.3643,2.3025,2.2338,2.17,2.2046,2.1624,2.068,2.1054,2.0527,1.9442,1.996,1.967,1.8983,1.9519,1.969,1.969,1.969,1.969,1.969,0.0,0.0,0.0,0.0,0.0,0.0,0.0,0.747,0.7952,0.8737,0.9593,1.0182,1.0397,1.1495,1.2123,0.0,0.0,0.0,0.0,0.0,0.0,0.0,0.0,0.0,0.0,0.0,0.0,1.4442,0.0,0.0,0.0,0.0,0.0,0.0,1.6146,0.0,0.0,0.0,0.0,0.0,0.0,0.0,0.0,0.0,0.0,0.0,0.0,0.0,0.0,0.0,1.5359,1.6059,1.8806,1.9467,1.9383,1.9977,2.0589,2.1233,2.1711,2.2385,2.2902,2.2902,2.3213,2.2477,1.8622,1.8238,0.0,0.0,1.4074,1.4509,1.5453,1.5956,1.7323,0.0,2.1109,2.1915,2.4268,2.4358,2.4347,0.0,2.4444,0.0,2.3157,2.2592,0.0,2.1733,2.1743,2.243,2.3974,2.4289,2.4497,2.4644,2.4619,2.4582,2.4582,2.3807,2.3421,2.3406,2.2782,2.2071,2.1284,2.1414,2.0809,1.972,2.0279,1.9271,1.7403,1.9045,1.8737,1.7466,1.906,1.969,1.969,1.969,1.969,1.969,0.0,0.0,0.0,0.0,0.0,0.0,0.0,0.7576,0.7812,0.7675,0.9496,1.0728,1.0511,1.1515,1.2205,0.0,0.0,0.0,0.0,0.0,0.0,0.0,0.0,0.0,0.0,0.0,0.0,1.4215,1.5291,0.0,0.0,0.0,0.0,0.0,0.0,1.5251,1.5126,0.0,0.0,0.0,0.0,0.0,0.0,0.0,0.0,0.0,0.0,0.0,0.0,0.0,0.0,1.7076,1.8455,1.8425,1.8113,1.9448,0.0,0.0,2.2664,2.2686,2.2385,2.2385,2.2046,2.1201,1.9044,0.0,0.0,1.6013,1.5154,1.5336,1.7587,1.8023,0.0,0.0,0.0,1.9934,2.3065,2.3655,2.405,2.4747,0.0,0.0,2.5272,2.3108,2.2546,2.4536,2.4859,2.4743,2.4313,2.4339,2.4445,2.4496,2.4572,2.4582,2.4582,2.3405,2.2785,2.2785,2.2105,2.1097,1.9921,2.0513,2.0385,1.9692,1.9779,1.8826,1.7403,1.9045,1.8737,1.7466,1.906,1.969,1.969,1.969,1.969,1.969,0.0,0.0,0.0,0.0,0.0,0.0,0.7781,0.8184,0.8698,0.9235,1.0198,1.1176,1.2091,1.2016,1.1977,0.0,0.0,0.0,0.0,0.0,0.0,0.0,0.0,0.0,0.0,0.0,0.0,1.4015,1.4601,0.0,0.0,0.0,0.0,0.0,0.0,1.4928,1.4525,0.0,0.0,0.0,0.0,0.0,0.0,0.0,0.0,0.0,0.0,0.0,0.0,0.0,0.0,0.0,1.5689,1.5981,0.0,0.0,1.956,2.0936,2.1058,2.1707,2.2309,2.2309,2.1644,2.0418,1.8196,0.0,1.6736,1.487,1.455,1.4883,1.5848,1.5811,1.6322,0.0,0.0,0.0,2.2392,2.3338,2.4195,2.5767,2.592,0.0,0.0,0.0,2.2198,2.2506,2.2133,2.2477,2.3668,2.4185,2.4134,2.3439,2.3807,2.4014,2.4014,2.3511,2.3054,2.2685,2.167,2.0721,1.9803,1.9662,1.9455,1.9244,1.9566,1.8204,1.5992,1.8634,1.816,1.6067,1.8678,1.969,1.969,1.969,1.969,1.969,0.0,0.0,0.0,0.0,0.0,0.8301,0.8407,0.8843,0.9511,1.0456,1.1064,1.1826,1.2935,1.2506,1.2197,1.2297,0.0,0.0,0.0,0.0,0.0,0.0,0.0,0.0,0.0,0.0,0.0,1.3913,1.4038,1.4243,0.0,0.0,1.438,1.4065,0.0,0.0,0.0,0.0,0.0,0.0,0.0,0.0,0.0,0.0,0.0,0.0,0.0,0.0,0.0,0.0,0.0,0.0,0.0,0.0,0.0,0.0,1.8565,2.0522,2.0344,2.1429,2.2657,2.2657,2.1377,1.9558,0.0,0.0,1.5548,1.3931,1.388,1.417,1.4351,1.4069,1.4326,0.0,0.0,1.7393,2.0949,2.23,2.3497,2.5163,0.0,2.5279,2.3331,2.3331,2.3117,2.2343,2.1811,2.211,2.3405,2.3951,2.3751,2.2719,2.329,2.3406,2.3024,2.3083,2.2669,2.1867,2.0837,1.9741,1.8636,1.8812,1.8627,1.8194,1.9082,1.7978,1.5741,1.8193,1.7661,1.5562,1.8358,1.9442,1.9479,1.9639,1.969,1.969,0.0,0.0,0.0,0.0,0.0,0.0,0.0,0.9542,1.0032,1.07,1.1943,1.2713,1.2519,1.2914,1.3042,1.2634,0.0,0.0,0.0,0.0,0.0,0.0,0.0,0.0,0.0,0.0,0.0,1.3913,1.3913,1.3813,1.3601,1.3563,1.3343,1.301,0.0,0.0,0.0,0.0,0.0,0.0,0.0,0.0,0.0,0.0,0.0,0.0,0.0,0.0,0.0,0.0,0.0,0.0,0.0,0.0,0.0,0.0,1.7851,2.09,2.1254,2.2465,2.3616,2.3616,2.1184,1.8481,0.0,0.0,1.3347,1.3712,1.3487,1.3396,1.3984,1.3883,1.4021,1.497,0.0,0.0,1.836,2.0169,2.147,0.0,0.0,2.4589,2.4745,2.5432,2.588,2.5867,2.5999,2.5383,2.3699,2.3602,2.3299,2.2713,2.3285,2.298,2.1744,2.1839,2.1255,1.9901,1.9377,1.7915,1.573,1.7884,1.7977,1.6518,1.8194,1.831,1.7321,1.7875,1.7449,1.6656,1.8278,1.8893,1.8968,1.9479,1.969,1.969,0.0,0.0,0.0,0.0,0.0,0.0,0.0,1.0408,1.1149,1.2226,1.2699,1.2995,1.3176,1.2697,1.2372,1.2337,0.0,0.0,0.0,0.0,0.0,0.0,0.0,0.0,0.0,0.0,0.0,1.3636,1.3806,1.3739,1.3394,1.3377,1.3244,1.301,1.3136,0.0,0.0,0.0,0.0,0.0,0.0,0.0,0.0,0.0,0.0,0.0,0.0,0.0,0.0,0.0,0.0,0.0,0.0,0.0,0.0,0.0,0.0,0.0,1.7503,1.822,1.8776,1.8314,1.7193,1.5828,1.4379,0.0,1.3756,1.3775,1.405,1.45,1.5136,1.4414,1.4439,1.6716,1.6243,0.0,0.0,0.0,0.0,2.5101,2.5651,2.5747,0.0,2.3429,2.2837,2.4467,2.2815,2.1825,2.2143,2.2537,2.2531,2.2042,2.2184,2.2132,2.1697,2.136,2.0759,1.9887,1.9377,1.7875,1.5743,1.7922,1.8014,1.6587,1.8563,1.8611,1.7403,1.8658,1.8353,1.7213,1.8832,1.9442,1.9479,1.9639,1.969,1.969,0.0,0.0,0.0,0.0,0.0,0.0,0.0,1.0838,1.1664,1.2733,1.3152,1.336,1.3418,1.2772,1.2335,1.2356,0.0,0.0,0.0,0.0,0.0,0.0,0.0,0.0,0.0,1.4015,1.3824,1.3421,1.3598,1.3555,1.3295,1.3295,1.3227,1.3121,1.3286,0.0,0.0,0.0,0.0,0.0,0.0,0.0,1.1446,0.0,0.0,0.0,0.0,0.0,0.0,0.0,0.0,0.0,0.0,0.0,0.0,0.0,1.3516,1.4573,0.0,1.6878,1.7648,1.7107,1.6018,0.0,0.0,0.0,1.3179,1.3237,1.4269,1.5071,1.4715,1.4496,1.4685,1.5437,1.6308,0.0,0.0,0.0,0.0,2.3586,0.0,0.0,0.0,2.335,2.2627,2.3891,2.2287,2.1304,2.1462,2.161,2.1442,2.0979,2.1254,2.1144,2.0681,2.0156,1.9605,1.8932,1.8374,1.7063,1.5173,1.7328,1.7506,1.6291,1.8245,1.8768,0.0,1.8848,1.863,1.8019,1.9023,1.9406,1.9406,1.9639,1.969,1.969,0.0,0.0,0.0,0.0,0.0,0.0,0.0,0.0,1.1594,1.2401,1.324,1.3651,1.3295,1.3021,1.2775,1.2595,0.0,0.0,0.0,0.0,0.0,0.0,0.0,0.0,0.0,1.3842,1.3531,1.3261,1.3261,1.3261,1.3261,1.3261,1.3295,1.3329,1.3466,1.3551,0.0,0.0,0.0,0.0,0.0,0.0,0.0,0.0,0.0,0.0,0.0,0.0,0.0,0.0,0.0,0.0,0.0,0.0,0.0,0.0,0.0,0.0,0.0,1.7584,0.0,0.0,0.0,0.0,0.0,0.0,0.0,1.2434,1.4293,1.524,1.3347,1.4519,1.4924,1.235,1.5649,0.0,0.0,1.7699,0.0,0.0,2.0534,0.0,2.428,2.4607,2.4469,2.3916,2.3879,2.3163,2.1462,2.0738,2.0128,1.967,2.03,2.0127,1.9032,1.8507,1.7939,1.7339,1.6791,1.5699,1.4254,1.6428,1.6799,1.58,1.7483,1.8779,1.9639,1.8569,1.844,1.891,1.891,1.891,1.8948,1.95,1.969,1.969,0.0,0.0,0.0,0.0,0.0,0.0,0.0,0.0,0.0,0.0,1.2617,1.2738,1.2687,1.2641,1.2508,0.0,0.0,0.0,0.0,0.0,0.0,0.0,0.0,0.0,0.0,1.3689,1.3294,1.2764,1.2764,1.284,1.2987,1.2987,1.316,1.3437,1.3188,1.3102,1.3151,0.0,0.0,0.0,0.0,0.0,0.0,0.0,0.0,0.0,1.1015,1.1335,0.0,0.0,0.0,0.0,0.0,0.0,0.0,0.0,1.2646,1.2959,1.3645,0.0,1.3783,1.3195,1.284,1.2448,0.0,0.0,0.0,0.0,0.0,1.5847,1.6045,1.6891,1.7262,1.6263,0.0,1.8956,1.8333,0.0,0.0,1.8912,2.2165,2.3617,2.1033,2.2418,2.3301,2.2749,2.2711,2.1927,2.0121,1.9986,1.9445,1.8401,1.8276,1.8482,1.897,1.8101,1.7334,1.6797,1.7003,1.6253,1.4804,1.7374,1.7947,1.6973,1.8628,1.9479,1.9645,1.8874,1.8632,1.8752,1.8752,1.8752,1.8797,1.9459,1.969,1.969,0.0,0.0,0.0,0.0,0.0,0.0,0.0,0.0,0.0,0.0,0.0,0.0,0.0,0.0,0.0,0.0,0.0,0.0,0.0,0.0,0.0,0.0,0.0,0.0,1.3725,1.3295,1.2793,1.2189,1.2189,1.2399,1.2799,1.3042,1.3387,1.38,1.3391,1.321,1.3173,1.3086,1.3086,1.3138,1.2494,0.0,0.0,0.0,0.0,0.0,1.1275,1.1592,0.0,1.2154,1.2037,1.1769,0.0,0.0,0.0,0.0,1.2887,1.3013,1.3013,1.2794,1.2574,1.2567,1.2292,1.2015,0.0,0.0,0.0,0.0,0.0,1.5832,1.5981,1.6527,0.0,0.0,1.7461,0.0,0.0,0.0,1.9906,1.8272,2.0085,2.1006,1.9822,2.1517,2.2523,2.197,2.1933,2.1275,1.9768,1.9426,1.89,1.808,1.7276,1.7328,1.8267,1.7426,1.6663,1.6058,1.6903,1.6658,1.5529,1.7571,1.8332,1.8056,1.8285,1.8732,1.9181,1.8523,1.8253,1.8313,1.8912,1.8972,1.8777,1.9435,1.969,1.969,0.0,0.0,0.0,0.0,0.0,0.0,0.0,0.0,0.0,0.0,0.0,0.0,0.0,0.0,0.0,0.0,0.0,0.0,0.0,0.0,0.0,0.0,0.0,1.3933,1.3227,1.2689,1.2119,1.1451,1.1561,1.2004,1.27,1.3224,1.3742,1.4193,1.3838,1.3572,1.3363,1.2926,1.298,1.3329,1.2376,0.0,0.0,0.0,0.0,0.0,0.0,0.0,0.0,1.1869,1.1575,1.1248,1.1874,0.0,0.0,0.0,0.0,0.0,1.2942,1.2906,1.3096,1.3984,1.3151,1.2433,1.356,0.0,0.0,0.0,0.0,0.0,0.0,1.5921,0.0,0.0,0.0,0.0,1.8338,1.8334,1.799,1.737,1.7552,1.8152,1.9449,2.1182,2.1901,2.1281,2.1299,2.0757,1.9401,1.8903,1.8418,1.7915,1.6868,1.6636,1.725,1.676,1.6163,1.5449,1.6691,1.6929,1.6324,1.7616,1.8496,1.8948,1.784,1.7846,1.8657,1.7999,1.7697,1.7802,1.8957,1.9106,1.8777,1.9435,1.969,1.969,0.0,0.0,0.0,0.0,0.0,0.0,0.0,0.0,0.0,0.0,0.0,0.0,0.0,0.0,0.0,0.0,0.0,0.0,0.0,0.0,0.0,0.0,1.3278,1.3076,1.1919,1.1737,1.1222,1.0342,1.0973,1.1759,1.2717,1.3413,1.39,1.419,1.4082,1.3774,1.3396,1.3295,1.3312,1.3363,1.2979,0.0,0.0,0.0,0.0,0.0,0.0,0.0,0.0,1.1876,1.1482,1.1091,1.2418,0.0,0.0,0.0,0.0,0.0,1.2706,1.251,1.2619,1.3891,1.3031,1.2193,1.3496,0.0,0.0,0.0,0.0,0.0,0.0,1.9575,2.0006,0.0,0.0,1.7763,0.0,0.0,2.0375,1.7357,0.0,2.1064,1.8376,2.0241,2.1145,1.998,2.0452,1.9797,1.7379,1.7918,1.7761,1.661,1.6524,1.6517,1.6647,1.6559,1.6207,1.5678,1.6771,1.7252,1.7146,1.8251,1.908,1.9551,1.9358,1.9051,1.8657,1.7999,1.7697,1.7712,1.7921,1.8298,1.8777,1.9435,1.969,1.969,0.0,0.0,0.0,0.0,0.0,0.0,0.0,0.0,0.0,0.0,0.0,0.0,0.0,0.0,0.0,0.0,0.0,0.0,0.0,0.0,0.0,0.0,1.1551,1.1444,1.0946,1.0666,1.0241,0.9605,1.0505,1.1476,1.2569,1.3803,1.4344,1.4261,1.4144,1.3846,1.3379,1.326,1.3277,1.3396,0.0,0.0,0.0,0.0,0.0,0.0,0.0,0.0,0.0,0.0,1.0793,1.0259,1.1113,0.0,0.0,0.0,0.0,0.0,1.2609,1.238,1.2611,1.4577,1.3413,1.2523,1.5263,0.0,0.0,0.0,0.0,0.0,0.0,0.0,1.7397,1.6033,0.0,1.9572,1.9684,2.0229,1.9975,0.0,1.9597,1.9957,1.8264,1.9536,2.0245,1.9736,1.9377,1.8709,1.7635,1.771,1.7364,1.6422,1.6473,1.6522,1.6522,1.6522,1.6191,1.5546,1.7022,1.7495,1.7108,1.8256,1.9117,1.96,1.8227,1.7805,1.8089,1.7086,1.6667,1.6742,1.7413,1.7876,1.8298,1.9316,1.969,1.969,0.0,0.0,0.0,0.0,0.0,0.0,0.0,0.0,0.0,0.0,0.0,0.0,0.0,0.0,0.0,0.0,0.0,0.0,0.0,0.0,1.0994,1.0292,0.9939,0.9747,0.9653,0.954,0.9298,0.8921,1.0238,1.1586,1.2967,1.4294,1.4736,1.4401,1.4272,1.3971,1.3494,1.3295,1.3447,1.3802,0.0,0.0,0.0,0.0,0.0,0.0,0.0,0.0,0.0,0.0,0.0,0.0,0.0,0.0,0.0,1.1576,1.2051,1.2124,1.221,1.2009,1.2343,1.4624,0.0,1.2728,1.6786,0.0,0.0,0.0,0.0,0.0,0.0,1.4968,0.0,1.7001,1.9285,2.0655,2.0329,1.9989,1.9787,1.9853,1.9044,1.8542,1.8606,1.906,1.9384,1.9291,1.8561,1.8079,1.7966,1.7585,1.7112,1.6534,1.6522,1.6522,1.6522,1.6637,1.6414,1.5853,1.7231,1.759,1.7168,1.8062,1.8747,1.9106,1.7101,1.6712,1.7384,1.6308,1.5862,1.5966,1.6834,1.7427,1.7926,1.9041,1.9555,1.966,0.0,0.0,0.0,0.0,0.0,0.0,0.0,0.0,0.0,0.0,0.0,0.0,0.0,0.0,0.0,0.0,0.0,0.0,0.0,0.0,1.087,0.9881,0.9169,0.8369,0.7457,0.8319,0.8537,0.8098,1.0264,1.243,1.4531,1.4847,1.4882,1.467,1.4596,1.4313,1.387,1.3838,1.4276,1.496,1.4794,0.0,0.0,0.0,0.0,0.0,0.0,0.0,0.0,0.0,0.0,0.0,0.0,0.0,0.9988,1.0919,1.1366,1.1496,1.1203,1.1007,1.131,1.3055,1.24,0.0,1.6724,1.4389,0.0,1.6196,0.0,0.0,0.0,1.5156,1.4832,1.7229,1.8091,1.9352,2.1781,0.0,2.134,2.2018,1.9977,1.8747,1.9416,1.9078,1.8483,1.7797,1.847,1.8413,1.7242,1.7328,1.7112,1.6534,1.6522,1.6522,1.6522,1.6993,1.7231,1.7139,1.719,1.7409,1.7835,1.7796,1.7787,1.7817,1.7637,1.7249,1.674,1.6279,1.6077,1.6045,1.5773,1.6644,1.8112,1.8594,1.9166,1.96,0.0,0.0,0.0,0.0,0.0,0.0,0.0,0.0,0.0,0.0,0.0,0.0,0.0,0.0,0.0,0.0,0.0,0.0,0.0,0.0,1.0162,0.887,0.8296,0.7722,0.71,0.7492,0.8024,0.8681,1.1384,1.3418,1.4768,1.5043,1.4992,1.4649,1.4616,1.4348,1.3913,1.3913,1.4353,1.513,1.5384,1.4928,0.0,0.0,0.0,0.0,0.0,0.0,0.0,0.0,0.8736,0.8411,0.0,0.9588,0.9336,1.0416,1.0601,1.0495,1.0746,1.0649,1.1054,1.3359,0.0,0.0,0.0,1.4457,1.269,1.7205,1.5606,0.0,0.0,0.0,1.5603,1.69,1.8031,1.9343,2.1066,2.0641,2.0421,2.1046,1.9563,1.8794,1.9523,1.8363,1.7652,1.7874,1.7528,1.7111,1.667,1.6798,1.6748,1.6522,1.6522,1.6522,1.6522,1.671,1.7146,1.7814,1.7636,1.7689,1.7878,1.732,1.7309,1.7652,1.6862,1.6593,1.6651,1.6143,1.5754,1.5492,1.5752,1.6293,1.6967,1.7774,1.8253,1.8493,0.0,0.0,0.0,0.0,0.0,0.0,0.0,0.0,0.0,0.0,0.0,0.0,0.0,0.0,0.0,0.0,0.0,0.0,0.0,1.021,0.9855,0.863,0.8181,0.7776,0.7405,0.7406,0.7964,0.9132,1.1675,1.3623,1.4893,1.4884,1.4642,1.4187,1.4286,1.4005,1.35,1.3666,1.4303,1.5238,1.5766,1.5276,0.0,0.0,0.0,0.0,0.0,0.0,0.0,0.0,0.8477,0.8209,0.0,0.0,0.8682,0.949,0.9556,0.9404,0.9651,0.9661,1.0135,0.0,0.0,0.0,1.5696,1.4079,1.266,1.6992,1.5135,0.0,0.0,0.0,0.0,0.0,1.7245,1.8363,1.9453,1.9011,1.8705,1.9277,1.8126,1.7644,1.8357,1.7458,1.6995,1.7463,1.6751,1.6349,1.6407,1.6288,1.6238,1.6238,1.638,1.6522,1.6522,1.668,1.7188,1.8092,1.7884,1.7815,1.7801,1.7045,1.6846,1.7056,1.6188,1.6024,1.6368,1.5817,1.5329,1.498,1.5578,1.5898,1.6192,1.7077,1.7518,1.7757,0.0,0.0,0.0,0.0,0.0,0.0,0.0,0.0,0.0,0.0,0.0,0.0,0.0,0.0,0.0,0.0,0.0,0.0,0.0,1.021,1.011,0.9422,0.8945,0.8597,0.8328,0.8127,0.8417,0.9212,1.0885,1.2872,1.5058,1.4319,1.3745,1.3286,1.3568,1.3283,1.263,1.3174,1.4167,1.5464,1.5983,1.5488,1.4449,0.0,0.0,0.0,0.0,0.0,0.0,0.0,0.8104,0.8104,0.0,0.0,0.0,0.8133,0.8259,0.8271,0.7775,0.7854,0.0,0.0,0.0,0.0,1.4014,1.3165,1.2032,1.5048,0.0,1.6393,1.611,1.5508,0.0,1.5186,1.5538,1.6161,1.7171,1.6627,1.6356,1.6901,1.5683,1.5099,1.5825,1.6406,1.6629,1.621,1.6324,1.636,1.636,1.5873,1.5588,1.5588,1.6194,1.6522,1.6522,1.7034,1.7544,1.8078,1.7679,1.7543,1.7667,1.6995,1.6383,1.5799,1.5799,1.5799,1.577,1.5285,1.4876,1.4564,1.4937,1.5509,1.6134,1.6542,1.7115,1.7682,0.0,0.0,0.0,0.0,0.0,0.0,0.0,0.0,0.0,0.0,0.0,0.0,0.0,0.0,0.0,0.0,0.0,0.0,0.0,1.0691,1.0421,0.9702,0.9267,0.9225,0.9627,1.0369,1.0534,1.0111,1.1896,1.2909,1.3208,1.3213,1.276,1.1921,1.2519,1.2603,1.2387,1.3489,1.4851,1.624,1.6212,1.6238,1.6177,0.0,0.0,0.0,0.0,0.0,0.0,0.0,0.0,0.0,0.9226,0.0,0.0,1.0534,0.9436,0.7837,0.9471,0.864,0.0,0.9093,0.0,0.0,0.0,1.1401,0.0,0.0,1.4801,1.4935,1.3531,1.478,0.0,1.4736,1.5187,1.5927,1.6562,1.5676,1.5132,1.5644,1.4887,1.4586,1.5342,1.5243,1.5099,1.507,1.5143,1.5003,1.4573,1.521,1.5588,1.5588,1.6194,1.6522,1.6522,1.6287,1.6598,1.738,1.6908,1.7026,1.7652,1.6817,1.6194,1.5799,1.5799,1.5799,1.577,1.5285,1.5043,1.4937,1.5043,1.5219,1.5469,1.617,1.6537,1.6886,0.0,0.0,0.0,0.0,0.0,0.0,0.0,0.0,0.0,0.0,0.0,0.0,0.0,0.0,0.0,0.0,0.0,0.0,0.0,0.0,1.042,1.0233,1.0004,1.0066,1.0515,1.0976,1.1105,1.0865,1.2156,1.2787,1.2757,1.2611,1.1891,1.0734,1.1357,1.1459,1.1203,1.23,1.362,1.4991,1.5129,1.5349,1.5553,0.0,0.0,0.0,0.0,0.0,0.0,0.0,0.0,0.0,0.0,0.0,0.0,1.0473,0.9461,0.8337,0.9287,0.0,0.0,0.9837,0.9996,0.9876,1.0648,0.0,0.0,0.0,0.0,1.486,1.376,1.4987,0.0,1.4982,1.527,1.556,1.5406,1.4649,1.4257,1.4522,1.4128,1.4034,1.4471,1.4468,1.4366,1.4296,1.4305,1.419,1.3815,1.4732,1.5231,1.5231,1.6064,1.6522,1.6522,1.6122,1.6336,1.7068,1.6607,1.6768,1.7515,1.6786,1.6226,1.5799,1.5799,1.5799,1.577,1.5477,1.5389,1.5403,1.5847,1.5846,1.5682,1.6608,1.6936,1.7105,0.0,0.0,0.0,0.0,0.0,0.0,0.0,0.0,0.0,0.0,0.0,0.0,0.0,0.0,0.0,0.0,0.0,0.0,0.0,0.0,1.0234,1.0916,1.0936,1.1009,1.1215,1.0773,1.0861,1.1533,1.1958,1.2455,1.2993,1.2155,1.1011,0.964,0.0,1.0036,0.9529,1.0339,1.1412,1.2678,1.3407,1.3645,1.365,1.4741,0.0,0.0,0.0,0.0,0.0,0.0,0.0,0.0,1.0073,1.102,1.1707,0.9067,0.8993,0.9484,0.8295,0.0,0.0,1.1105,1.073,0.0,1.141,1.2443,1.3618,1.5257,0.0,1.5567,1.5618,1.5577,1.5509,1.5461,1.5392,1.497,1.3893,1.3747,1.3649,1.354,1.3549,1.3539,1.359,1.4061,1.4209,1.3847,1.3732,1.3732,1.3815,1.4376,1.4744,1.4789,1.5828,1.6434,1.6476,1.6266,1.6437,1.7052,1.6619,1.6713,1.7244,1.6879,1.6383,1.5856,1.5799,1.5799,1.5799,1.5799,1.5827,1.593,1.6939,1.6912,1.6472,1.7476,1.791,1.8082,0.0,0.0,0.0,0.0,0.0,0.0,0.0,0.0,0.0,0.0,0.0,0.0,0.0,0.0,0.0,0.0,0.0,0.0,0.0,0.0,1.057,1.119,1.1064,1.1551,1.2771,1.3055,1.2966,1.2497,1.213,1.1559,0.0,0.0,0.0,0.8257,0.0,0.9402,0.9353,1.0672,1.2071,1.3467,1.363,1.4397,1.5366,1.4916,1.471,0.0,0.0,0.0,0.0,0.0,0.0,0.0,1.0992,1.0534,1.0239,1.1161,1.0814,1.0343,1.1219,1.0319,0.0,0.0,0.9603,1.0837,1.4537,1.48,1.4419,1.4967,1.4739,1.4576,1.5004,1.474,1.4434,1.4409,1.3976,1.3572,1.3313,1.3148,1.323,1.3676,1.3745,1.3926,1.4399,1.4105,1.3873,1.3826,1.3372,1.3286,1.3768,1.4376,1.4926,1.541,1.5691,1.6021,1.6333,1.5474,1.5585,1.6629,1.6069,1.6159,1.6908,1.6828,1.6561,1.6163,1.5898,1.5799,1.5799,1.5799,1.5955,1.6207,1.6456,1.66,1.6753,1.7239,1.7955,1.8814,0.0,0.0,0.0,0.0,0.0,0.0,0.0,0.0,0.0,0.0,0.0,0.0,0.0,0.0,0.0,0.0,0.0,0.0,0.0,0.0,0.0,1.187,1.1609,1.1964,1.3123,1.2889,1.2647,1.2434,1.1486,0.0,0.0,0.0,0.0,0.7969,0.0,0.8896,0.9072,0.9924,1.1158,1.2554,1.256,1.3238,1.426,1.4092,1.3736,1.3331,1.338,0.0,0.0,0.0,0.0,0.0,0.0,0.0,1.1409,1.1183,1.0893,1.0743,0.0,0.0,0.0,1.1363,0.0,1.3541,1.5316,1.5615,1.5478,1.5293,1.4647,1.4123,1.4121,1.3712,1.3379,1.3338,1.3195,1.2986,1.2691,1.2778,1.3104,1.3732,1.3579,1.3758,1.4641,1.4167,1.3814,1.3805,1.3789,1.3789,1.3815,1.4641,1.5276,1.5588,1.5911,1.615,1.6297,1.586,1.5924,1.65,1.6281,1.6491,1.7027,1.6866,1.6712,1.6528,1.6191,1.6039,1.6039,1.6039,1.6136,1.6386,1.7051,1.7207,1.7125,1.7813,1.8741,1.9745,0.0,0.0,0.0,0.0,0.0,0.0,0.0,0.0,0.0,0.0,0.0,0.0,0.0,0.0,0.0,0.0,0.0,0.0,0.0,0.0,0.0,0.0,1.212,1.2273,1.3034,1.2137,1.1758,1.1958,0.0,0.0,0.0,0.0,0.0,0.863,0.0,0.884,0.901,0.9056,0.9881,1.1144,1.1119,1.1571,1.2313,1.2892,1.2498,1.1754,1.2729,1.2729,1.2224,1.2006,0.0,0.0,0.0,0.0,1.278,1.0449,1.0473,1.1066,0.0,0.0,1.1757,1.42,1.5369,0.0,1.5293,1.5774,1.6233,1.5809,1.4857,1.3942,1.3414,1.2781,1.2318,1.2265,1.2497,1.2546,1.2047,1.2466,1.3007,1.363,1.3446,1.3728,1.4755,1.4381,1.4049,1.3992,1.4347,1.4392,1.3979,1.5005,1.5596,1.5644,1.6003,1.6204,1.6125,1.6298,1.6459,1.6548,1.6844,1.715,1.7446,1.7126,1.6942,1.6866,1.6528,1.6382,1.6382,1.6382,1.6421,1.6575,1.7753,1.7955,1.7688,1.8633,1.9745,2.0767,0.0,0.0,0.0,0.0,0.0,0.0,0.0,0.0,0.0,0.0,0.0,0.0,0.0,0.0,0.0,0.0,0.0,0.0,0.9204,0.0,0.0,1.1974,1.1926,1.2323,1.3244,1.2891,1.2407,0.0,0.0,0.0,0.0,0.0,0.0,1.0776,0.0,0.0,0.9801,0.9197,0.9554,1.0504,1.0389,1.0852,1.1644,1.1907,1.192,1.178,1.1819,1.1783,1.1671,1.1339,1.122,0.0,0.0,0.0,1.1204,1.0318,1.092,1.1838,0.0,0.0,1.2896,0.0,1.405,1.4192,0.0,0.0,1.5798,0.0,1.4857,1.3942,1.3414,1.2144,1.12,1.1187,1.1196,1.1168,1.1084,1.1832,1.2615,1.3211,1.4055,1.482,1.5492,1.5013,1.4662,1.4689,1.4245,1.4202,1.4646,1.5262,1.5647,1.5682,1.5302,1.5221,1.5441,1.5308,1.5742,1.677,1.7386,1.78,1.8065,1.7777,1.7502,1.7224,1.6876,1.6738,1.6738,1.6738,1.6901,1.7175,1.7371,1.7952,1.8741,1.9171,2.042,2.1936,0.0,0.0,0.0,0.0,0.0,0.0,0.0,0.0,0.0,0.0,0.0,0.0,0.0,0.0,0.0,0.9035,0.8801,0.8915,0.9452,1.0135,1.1005,1.2088,1.2604,1.2941,1.3123,1.2656,1.1959,0.0,0.0,0.0,0.0,1.1435,1.1069,0.0,0.0,0.0,0.0,0.9696,1.0022,1.0285,1.0139,1.0417,1.0878,1.0808,1.0634,1.042,1.0545,1.0713,1.0831,1.057,1.0612,1.0724,1.0436,0.0,0.0,0.0,1.104,0.0,1.2664,1.2731,1.3068,0.0,1.51,1.4598,1.6138,0.0,1.568,1.5627,1.4796,1.3905,1.3357,1.2206,1.143,1.1795,1.1519,1.1514,1.2089,1.2257,1.2636,1.3529,1.3754,1.4237,1.5164,1.4757,1.4502,1.4761,1.4606,1.4571,1.4796,1.5071,1.5224,1.5241,1.5291,1.5436,1.5595,1.6013,1.6617,1.7361,1.7958,1.837,1.8608,1.8789,1.8395,1.7549,1.724,1.7076,1.7076,1.7076,1.7175,1.7353,1.7959,1.8612,1.9252,1.9802,2.1013,2.2395,0.0,0.0,0.0,0.0,0.0,0.0,0.0,0.0,0.0,0.0,0.0,0.0,0.0,0.0,0.0,0.0,0.888,0.9052,0.9799,1.014,1.0828,1.2001,1.2873,1.3139,1.2769,1.2157,0.0,0.0,0.0,0.0,1.2266,1.2613,1.2066,0.0,1.1741,0.0,0.0,0.0,0.0,0.0,1.0377,1.025,1.0098,0.9852,0.9548,0.9276,0.945,0.9701,0.9922,0.9728,0.9881,1.0143,1.0089,1.0484,0.0,0.0,0.0,0.0,0.0,0.0,1.3353,1.6072,1.5759,1.4977,0.0,0.0,1.5277,0.0,1.452,1.3872,1.3453,1.2379,1.1697,1.2036,1.1729,1.1731,1.2549,1.2365,1.2527,1.3517,1.3474,1.3689,1.4613,1.4324,1.4237,1.4602,1.4656,1.4734,1.4832,1.4977,1.5054,1.4916,1.5385,1.5612,1.5471,1.6555,1.7511,1.831,1.863,1.9073,1.9544,1.9893,1.9472,1.8484,1.8124,1.7887,1.7721,1.7721,1.7652,1.7622,1.8619,1.9223,1.9612,2.064,2.1686,2.2614,0.0,0.0,0.0,0.0,0.0,0.0,0.0,0.0,0.0,0.0,0.0,0.0,0.0,0.9464,0.8992,0.9095,0.8979,0.9201,0.9937,1.0723,1.1199,1.1351,1.2117,0.0,1.2137,1.1676,0.0,0.0,0.0,0.0,1.2689,1.3656,1.3576,1.2637,1.2392,1.2902,1.379,0.0,0.0,0.0,0.0,1.0488,0.0,0.0,0.9123,0.9085,0.0,0.0,0.0,0.0,0.0,0.93,1.0041,1.0694,1.1187,0.0,0.0,0.0,0.0,1.3421,0.0,1.5091,0.0,0.0,0.0,0.0,1.4255,1.3883,1.3803,1.382,1.3752,1.2589,1.1469,1.1047,1.0937,1.0994,1.1107,1.1544,1.2,1.2508,1.3447,1.4061,1.4123,1.4097,1.411,1.4124,1.4148,1.4374,1.489,1.5379,1.5417,1.4928,1.5298,1.5212,1.4588,1.6067,1.7788,1.9684,1.9479,2.0029,2.1274,2.1041,2.0731,2.0333,2.0016,1.9478,1.8819,1.8819,1.854,1.8236,1.9044,1.9489,1.9911,2.1788,2.2501,2.2666,0.0,0.0,0.0,0.0,0.0,0.0,0.0,0.0,0.0,0.0,0.0,0.0,0.0,0.9412,0.9459,0.9434,0.9681,1.0047,1.047,1.0937,1.1458,1.2044,1.2516,1.2575,1.2163,0.0,0.0,0.0,0.0,1.1169,1.2189,1.225,1.2438,1.2801,1.4239,1.3812,1.2141,1.2854,0.0,0.0,0.0,0.0,0.0,0.0,0.0,0.0,0.0,0.0,0.0,0.0,0.0,0.0,0.0,0.0,0.0,0.0,0.0,0.0,0.0,0.0,0.0,1.533,1.4995,1.4109,1.4212,1.4256,1.394,1.2662,1.3163,1.3495,1.256,1.2428,1.2623,1.3233,1.2487,1.2309,1.3799,1.3014,1.2555,1.341,1.3503,1.3521,1.3521,1.3521,1.3672,1.406,1.343,1.3709,1.5345,1.4915,1.4862,1.5397,1.6203,1.6764,1.6992,1.6998,1.7861,1.9553,1.9831,2.0505,2.152,2.1609,2.1738,2.1898,2.1608,2.0745,1.9621,1.9621,1.9229,1.8791,2.0241,2.0368,1.9992,2.1862,2.2371,2.2242,0.0,0.0,0.0,0.0,0.0,0.0,0.0,0.0,0.0,0.0,0.0,0.0,0.0,0.0,0.9971,0.9879,1.027,1.0735,1.123,1.161,1.2073,1.2705,1.3221,1.3191,1.2556,0.0,0.0,0.0,0.0,0.0,0.0,1.1781,1.1985,1.2438,1.4116,1.3923,0.0,0.0,0.0,1.1387,0.0,0.0,1.0701,0.0,0.0,0.0,0.0,0.0,0.0,0.0,0.0,0.0,0.0,0.0,0.0,0.0,0.0,0.0,1.3208,0.0,0.0,0.0,0.0,1.4035,1.3925,1.403,1.3737,1.2208,1.2764,1.3274,1.2475,1.2807,1.3416,1.4076,1.3466,1.3437,1.4951,1.3944,1.3373,1.4274,1.3998,1.3785,1.3785,1.3785,1.3935,1.4337,1.3645,1.399,1.587,1.5211,1.5187,1.6133,1.6498,1.7046,1.7832,1.7055,1.7688,1.969,1.9892,2.0756,2.2146,2.2312,2.2522,2.2695,2.2616,2.1763,2.0416,2.0416,2.0067,1.9688,2.09,2.0873,2.03,2.1789,2.2022,2.1622,0.0,0.0,0.0,0.0,0.0,0.0,0.0,0.0,0.0,0.0,0.0,0.0,0.0,0.0,0.0,1.0414,1.0687,1.1247,1.2177,1.2735,1.3093,1.3245,1.4181,1.4251,1.3271,0.0,0.0,0.0,0.0,0.0,0.0,0.0,1.2425,1.1687,1.1901,1.3176,1.5181,0.0,1.5494,1.531,0.0,1.3413,1.3091,0.0,0.0,0.0,1.3173,1.2874,0.0,1.3524,0.0,0.0,0.0,0.0,0.0,0.0,0.0,0.0,0.0,0.0,0.0,0.0,0.0,0.0,1.3307,0.0,1.3558,1.2476,1.2591,1.3044,1.3669,1.3794,1.3668,1.325,1.3718,1.4112,1.4177,1.4149,1.4308,1.4851,1.4916,1.4916,1.4916,1.4916,1.4903,1.4903,1.4816,1.5263,1.6466,1.6436,1.6614,1.717,1.6102,1.5914,1.6758,1.6137,1.7287,2.0188,1.9694,2.0764,2.3165,2.3165,2.3021,2.2721,2.3045,2.2464,2.1264,2.1264,2.1132,2.0923,2.0944,2.088,2.0889,2.1674,2.1466,2.0867,0.0,0.0,0.0,0.0,0.0,0.0,0.0,0.0,0.0,0.0,0.0,0.0,0.0,0.0,1.046,1.0591,1.1482,1.2336,1.3011,1.3472,1.386,1.4196,1.4663,1.4744,1.4372,0.0,0.0,0.0,0.0,0.0,0.0,0.0,0.0,0.0,1.1675,1.1852,1.195,1.3749,0.0,1.1505,1.5134,1.3735,0.0,0.0,0.0,0.0,0.0,1.3976,1.2874,0.0,1.3748,1.1516,0.0,0.0,0.0,0.0,0.0,0.0,1.1501,0.0,0.0,0.0,0.0,0.0,0.0,0.0,1.286,1.1736,1.1856,1.2299,1.2765,1.374,1.4562,1.4855,1.4731,1.4879,1.5714,1.5154,1.4885,1.5417,1.5155,1.4916,1.4916,1.5272,1.5485,1.5485,1.5397,1.6028,1.7582,1.7982,1.8409,1.898,1.7188,1.6889,1.8294,1.6959,1.7462,1.9762,2.0162,2.1073,2.2407,2.2703,2.2923,2.3045,2.2898,2.2768,2.2649,2.2649,2.2146,2.1447,2.1889,2.1366,2.0421,2.0774,2.0507,1.9927,0.0,0.0,0.0,0.0,0.0,0.0,0.0,0.0,0.0,0.0,0.0,0.0,0.0,0.0,0.0,1.1004,1.1839,1.254,1.3071,1.3514,1.3908,1.4283,1.5183,1.5427,1.4929,0.0,0.0,0.0,0.0,0.0,0.0,0.0,0.0,0.0,0.0,0.0,0.0,0.0,0.0,0.0,1.5187,0.0,0.0,1.5839,1.49,0.0,0.0,0.0,1.4978,1.7288,1.5748,0.0,0.0,0.0,0.0,0.0,0.0,0.0,0.0,0.0,0.0,0.0,0.0,0.0,1.4073,1.3845,1.3517,0.0,1.2847,1.2999,1.2792,1.3379,1.4163,1.4873,1.4631,1.487,1.6286,1.5969,1.568,1.6007,1.5756,1.5555,1.5555,1.6048,1.6387,1.6387,1.6676,1.7441,1.8818,1.9099,1.9325,1.9645,1.7824,1.7276,1.821,1.7087,1.7432,1.9251,1.9849,2.076,2.1915,2.2441,2.2822,2.2996,2.3069,2.2965,2.2711,2.3016,2.2682,2.1953,2.185,2.1238,2.0413,2.0212,1.983,1.9372,0.0,0.0,0.0,0.0,0.0,0.0,0.0,0.0,0.0,0.0,0.0,0.0,0.0,0.0,0.0,0.0,1.1958,1.2368,1.2884,1.3248,1.3598,1.39,1.5652,1.6152,1.5151,0.0,0.0,0.0,0.0,0.0,0.0,0.0,0.0,0.0,0.0,0.0,0.0,0.0,0.0,1.4195,1.4727,1.6294,0.0,0.0,1.7361,1.6656,2.0086,1.9343,1.7132,1.9908,1.838,0.0,0.0,0.0,0.0,0.0,1.1648,0.0,0.0,0.0,0.0,0.0,1.3691,0.0,1.4567,1.4656,1.459,0.0,1.4511,1.4155,1.3243,1.2847,1.2886,1.3601,1.3444,1.3939,1.5857,1.6353,1.6403,1.6173,1.6353,1.6522,1.6522,1.7034,1.7422,1.7463,1.8339,1.9221,2.0063,1.9823,1.9692,1.9692,1.8182,1.7435,1.7463,1.6877,1.7347,1.889,1.9302,2.0241,2.1672,2.2361,2.2746,2.2848,2.3437,2.3149,2.2287,2.2861,2.2771,2.2222,2.1164,2.0768,2.0689,1.9814,1.9368,1.9148,1.6345,0.0,0.0,0.0,0.0,0.0,0.0,0.0,0.0,0.0,0.0,0.0,0.0,0.0,0.0,0.0,1.2515,1.2982,1.4148,1.3906,1.3827,1.4042,1.5744,1.6254,1.5368,1.6958,0.0,0.0,0.0,0.0,0.0,0.0,0.0,0.0,0.0,0.0,0.0,0.0,0.0,1.1604,1.5089,1.5666,1.4908,1.8985,1.7721,1.451,2.0094,2.0111,1.7603,1.8314,1.8041,1.6824,0.0,0.0,0.0,1.1003,0.0,0.0,0.0,0.0,0.0,0.0,1.2919,0.0,1.4568,1.3748,1.3016,0.0,1.349,1.2872,1.294,1.2202,1.1542,1.1387,1.0813,1.1247,1.3591,1.541,1.584,1.4138,1.5435,1.6522,1.6522,1.7394,1.8118,1.8503,1.9771,2.0623,2.0799,2.0405,2.0162,2.0162,1.8722,1.8145,1.8574,1.7638,1.7915,1.9462,1.9844,2.0719,2.2012,2.2495,2.2996,2.3522,2.3631,2.3726,2.3759,2.3619,2.2638,2.1153,2.0564,2.0547,2.0723,1.9308,1.8961,1.9073,1.5963,0.0,0.0,0.0,0.0,0.0,0.0,0.0,0.0,0.0,0.0,0.0,0.0,0.0,0.0,0.0,0.0,0.0,0.0,0.0,1.2637,1.281,1.4081,1.4768,1.4694,1.5826,0.0,0.0,0.0,0.0,0.0,0.0,0.0,0.0,0.0,0.0,0.0,0.0,1.0308,1.1399,1.5019,0.0,1.614,2.0213,2.0061,1.8084,2.1201,2.1319,1.9774,1.8416,1.8031,0.0,1.6123,1.4783,1.356,0.0,1.2161,1.2193,0.0,0.0,0.0,1.1319,1.1708,0.0,0.0,1.4047,1.3985,1.4616,1.4407,1.3681,1.2302,1.1255,1.0338,0.9541,0.9034,0.9151,1.0297,1.2945,1.4796,1.4897,1.6093,1.6909,1.6909,1.7867,1.8774,1.9519,2.0452,2.0991,2.0991,2.055,2.0314,2.0314,1.9111,1.8612,1.8893,1.8622,1.8821,1.9606,2.0654,2.148,2.2107,2.2863,2.3392,2.3714,2.3876,2.3817,2.3584,2.3412,2.2391,2.0909,2.1052,2.0681,1.9973,1.9181,1.8594,1.807,1.5129,0.0,0.0,0.0,0.0,0.0,0.0,0.0,0.0,0.0,0.0,0.0,0.0,0.0,0.0,0.0,0.0,0.0,0.0,0.0,0.0,1.2003,1.2723,1.3333,1.3759,1.4492,1.5113,0.0,0.0,0.0,0.0,0.0,0.0,0.0,0.0,0.0,0.0,0.0,0.0,1.2433,0.0,1.6637,1.7534,2.0823,2.182,2.1515,2.2107,2.231,2.1898,1.9149,1.8229,1.8219,1.8338,1.6633,0.0,0.0,0.0,0.0,0.0,0.0,0.0,0.0,1.0947,1.1749,0.0,0.0,0.0,1.5229,1.5347,1.456,1.1706,1.029,0.0,0.7716,0.0,0.0,0.0,1.0346,0.0,1.493,1.5942,1.6523,1.6523,1.7811,1.9116,2.0215,2.0699,2.0927,2.0846,2.0317,2.0008,2.0008,1.9074,1.8688,1.8893,1.9259,1.9606,1.9904,2.1406,2.2163,2.2327,2.3282,2.3753,2.3816,2.4074,2.3823,2.3217,2.3161,2.2415,2.1348,2.1595,2.0749,1.9424,1.9201,1.8341,1.7194,1.421,1.4136,0.0,0.0,0.0,0.0,0.0,0.0,0.0,0.0,0.0,0.0,0.0,0.0,0.0,0.0,0.0,0.0,1.3516,0.0,0.0,0.0,1.3906,1.3642,1.2955,1.3721,1.3729,0.0,0.0,0.0,0.0,0.0,0.0,0.0,1.0586,0.0,0.0,0.0,1.2297,0.0,1.6425,1.6078,0.0,1.9498,2.0111,1.8727,2.1373,2.231,2.1966,0.0,1.867,1.779,0.0,1.4617,1.4153,1.1914,0.0,0.0,0.0,0.0,0.0,0.0,1.1858,1.1913,1.4237,0.0,1.3858,1.4613,0.0,1.3471,1.1416,0.0,0.0,0.0,0.4945,0.5422,0.7481,0.9048,1.0062,1.0276,1.2284,1.3663,1.3663,1.6212,1.8507,2.0175,2.062,2.0686,2.0307,1.9439,1.8979,1.8979,1.7985,1.7947,1.8893,1.8896,1.9561,2.0846,2.1694,2.2434,2.3093,2.3522,2.3858,2.4151,2.417,2.4153,2.4042,2.3731,2.3365,2.2776,2.1138,2.0441,2.0235,1.922,1.8336,1.7547,1.3245,1.3311,0.0,0.0,0.0,1.3038,0.0,0.0,0.0,0.0,0.0,0.0,0.0,0.0,0.0,0.0,0.0,1.5081,0.0,0.0,0.0,0.0,1.3122,1.2671,1.2747,1.2625,1.2571,1.2619,1.2205,0.0,0.0,0.0,0.0,0.0,1.0357,0.0,1.2402,0.0,1.3249,0.0,0.0,1.5092,0.0,1.9915,2.1271,2.0416,1.9957,2.0874,2.1881,0.0,1.8745,0.0,0.0,0.0,0.0,1.3459,0.0,0.0,0.0,0.0,0.0,0.0,1.1599,1.2605,1.4468,1.4566,1.4416,1.4894,0.0,0.0,0.0,0.0,0.0,0.0,0.5738,0.6138,0.8208,0.0,0.9383,1.1448,1.2931,1.4357,1.5823,1.6216,1.7207,1.9263,1.8903,1.8268,1.745,1.7702,1.7531,1.6805,1.7085,1.7612,1.8349,1.9207,2.019,2.1303,2.2283,2.2986,2.35,2.3837,2.4074,2.419,2.419,2.419,2.417,2.3837,2.35,2.3071,2.1832,2.0866,2.0094,1.9238,1.8005,1.6652,1.2378,0.0,0.0,0.0,0.0,0.0,0.0,0.0,0.0,0.0,0.0,0.0,1.4018,1.3542,0.0,0.0,1.6289,1.6222,0.0,0.0,1.5386,0.0,0.0,0.0,0.0,1.2006,1.165,1.202,0.0,0.0,0.0,0.0,0.0,0.0,0.0,1.1137,1.2702,0.0,1.4332,1.6445,1.6096,1.6315,1.7175,2.0017,2.1583,2.1989,1.9709,2.0398,2.1932,1.8788,1.8885,0.0,1.8554,1.7296,1.6211,0.0,0.0,0.0,1.0332,0.0,0.0,0.0,1.1932,1.3392,1.466,1.4946,1.4972,1.5141,1.5022,0.0,0.0,0.0,0.0,0.0,0.0,0.7097,0.8265,0.8223,0.9105,1.1943,1.293,1.4291,0.0,1.6152,1.643,1.8189,1.7415,1.643,1.5518,1.5953,1.5911,1.5154,1.5856,1.6671,1.7572,1.9009,2.0264,2.1297,2.2583,2.3397,2.3783,2.4135,2.4284,2.4284,2.4284,2.4266,2.417,2.3735,2.3414,2.3117,2.2432,2.1267,1.9917,1.9329,1.7961,1.6211,1.1667,1.2191,0.0,0.0,0.0,0.0,0.0,0.0,0.0,0.0,0.0,0.0,0.0,0.0,0.0,0.0,0.0,1.704,1.6793,0.0,1.8278,0.0,0.0,1.3903,0.0,0.0,1.1024,0.0,0.0,0.0,0.0,0.0,0.0,0.0,1.0194,1.0741,1.1777,1.3717,1.5727,1.7823,1.9637,2.1072,2.1769,0.0,1.9806,2.2192,2.1407,0.0,0.0,1.9502,1.9289,0.0,0.0,0.0,0.0,0.0,0.0,0.0,0.0,0.0,0.0,1.3225,1.3534,1.4162,1.4918,1.5045,1.5018,1.5095,1.4852,1.4282,1.3238,0.0,0.0,0.0,0.0,0.0,0.0,0.7833,0.8797,0.9625,1.0656,1.1989,1.3752,1.5472,1.6634,1.7025,1.6725,1.625,1.5627,1.4479,1.4089,1.4687,1.4136,1.4642,1.6421,1.7841,1.9296,2.0734,2.241,2.3472,2.3988,2.4336,2.4495,2.4495,2.4495,2.4375,2.4151,2.35,2.3212,2.3159,2.2517,2.1334,1.9951,1.9547,1.8407,1.6925,0.0,0.0,0.0,0.0,0.0,0.0,0.0,1.2849,0.0,0.0,1.4152,0.0,0.0,1.7372,1.747,0.0,0.0,1.9613,1.8464,1.8848,0.0,0.0,0.0,1.4984,0.0,0.0,0.0,0.0,0.0,0.0,0.0,0.0,0.0,0.0,0.0,1.1122,0.0,0.0,0.0,0.0,0.0,1.9615,1.9488,0.0,2.1017,2.2209,2.1448,2.1841,0.0,2.0771,2.0863,2.1515,2.0243,1.9534,1.9089,1.8744,1.7586,1.6103,0.0,0.0,1.5342,1.4654,1.5047,1.5718,1.5963,1.507,1.4231,1.4347,1.4065,1.3495,1.2489,0.0,0.0,0.0,0.0,0.0,0.0,0.9635,0.9453,0.9175,0.9494,1.0723,1.3229,1.3143,1.3641,1.5409,1.4911,1.416,1.3398,1.3655,1.3364,1.2287,1.3221,1.4369,1.5678,1.755,1.9528,2.1508,2.265,2.3599,2.4317,2.3849,2.3659,2.3673,2.31,2.2661,2.2352,2.2389,2.2289,2.2126,2.1922,2.136,2.0591,2.0003,1.8216,1.5913,1.1306,0.0,0.0,0.0,0.0,0.0,0.0,0.0,0.0,0.0,1.5474,0.0,1.8776,0.0,1.8864,0.0,2.0153,2.0091,1.9615,1.8909,0.0,1.8983,1.7423,0.0,0.0,0.0,0.0,0.0,0.0,1.1123,0.0,0.0,0.0,0.0,0.0,1.1072,1.2749,1.4921,1.6952,0.0,0.0,1.9396,0.0,0.0,2.1097,2.1864,0.0,2.1987,2.2748,2.1861,2.2252,2.2968,2.2227,2.1633,2.1102,2.0725,1.954,1.8019,1.6512,1.6747,0.0,1.5958,1.6309,1.6855,1.6607,1.5506,1.4559,1.4601,1.429,1.3691,1.2723,0.0,0.0,0.0,0.0,0.0,0.0,0.9876,0.9401,0.9464,0.9682,1.0684,1.2884,1.2982,1.3395,1.455,1.423,1.3539,1.249,1.2839,1.2609,1.1616,1.2792,1.4046,1.5362,1.7458,1.9493,2.1491,2.2364,2.3163,2.3872,2.3124,2.28,2.2797,2.2163,2.1858,2.1798,2.1843,2.1912,2.1969,2.1707,2.1222,2.0543,1.9717,1.7605,1.507,1.0897,0.0,0.0,0.0,1.1844,0.0,0.0,0.0,1.3823,0.0,1.6623,1.6787,1.8247,1.7538,1.7517,1.8849,1.835,1.8592,2.0061,1.8238,0.0,0.0,1.8097,1.7464,1.8037,0.0,0.0,0.0,0.0,0.0,0.0,0.0,0.0,0.0,1.0344,0.0,1.17,1.4888,1.6784,1.7737,1.8751,2.0378,2.1966,2.0027,2.008,2.123,2.1531,2.231,2.3129,2.2764,2.3337,2.419,2.419,2.419,2.3909,2.2525,2.2312,2.1885,1.8843,1.8708,1.8995,1.7284,1.7332,1.7577,1.685,1.6255,1.5847,1.5714,1.5342,1.4735,1.3842,0.0,0.0,0.0,0.0,0.0,0.0,0.0,0.8687,1.0187,1.0863,1.1592,1.2574,1.4717,1.5544,1.4323,1.4641,1.435,1.3089,1.2173,1.2037,1.2728,1.2802,1.3744,1.5588,1.7523,1.9241,2.0733,2.1601,2.2267,2.2739,2.2182,2.195,2.1936,2.1692,2.1899,2.2329,2.1785,2.1967,2.2539,2.1874,2.0898,1.9794,1.8686,1.6738,1.4727,1.2633,1.2014,1.1555,0.0,1.1836,1.2343,0.0,0.0,0.0,0.0,1.709,1.7867,1.8614,1.9107,1.9113,1.8395,1.8696,0.0,0.0,0.0,0.0,2.0081,2.0046,1.9485,1.8473,1.8059,1.7626,1.7166,0.0,0.0,1.4236,0.0,0.0,0.0,0.0,0.0,1.1607,1.4231,1.7047,1.9568,1.7736,1.8269,2.0069,0.0,2.0086,2.1271,2.1912,2.2591,2.3177,2.3092,2.3551,2.419,2.419,2.419,2.3909,2.2525,2.1943,2.1497,2.0191,1.9798,1.9672,1.9262,1.8994,1.8644,1.801,1.6635,1.5534,1.5562,1.4555,1.3633,1.3443,0.0,0.0,0.0,0.0,0.0,0.0,0.0,0.8497,0.8559,0.9489,1.0673,1.2117,1.3339,1.3822,1.3293,1.4185,1.4673,1.447,1.37,1.3676,1.4648,1.3739,1.4593,1.7429,1.7911,1.9169,2.1292,2.1773,2.198,2.1946,2.1384,2.11,2.1073,2.0424,2.0254,2.0454,2.0833,2.1032,2.1094,2.1457,2.0511,1.8763,1.726,1.6642,1.649,1.2826,0.0,0.0,1.1048,0.0,0.0,1.3629,1.4458,0.0,1.7124,1.7661,0.0,1.9104,1.9679,1.9682,1.8876,1.8264,0.0,1.8442,0.0,0.0,2.0239,2.0442,1.9902,1.8621,1.9155,0.0,1.8301,0.0,0.0,1.5496,0.0,0.0,0.0,0.0,1.0187,1.206,1.4878,1.7592,1.9792,1.82,1.8819,0.0,1.9654,2.0296,2.1735,2.2158,2.2686,2.3212,2.3369,2.3774,2.419,2.419,2.419,2.402,2.3067,2.2309,2.1683,2.1305,2.0697,2.0213,2.0397,2.0213,1.9798,1.896,1.7593,1.6353,1.5894,1.4796,1.3681,1.3081,0.0,0.0,0.0,0.0,0.0,0.0,0.9298,0.957,0.9003,0.9687,1.056,1.1476,1.2567,1.3242,1.3296,1.3834,1.399,1.3531,1.3955,1.4052,1.3703,1.4383,1.5421,1.6772,1.691,1.8049,2.0216,1.9978,2.0207,2.0807,2.0268,2.0062,2.0111,1.9567,1.9666,2.0206,2.0495,2.0906,2.1287,2.1313,2.0511,1.9152,1.7774,1.7096,1.672,1.2189,0.0,0.0,0.0,0.0,0.0,0.0,1.4842,0.0,1.836,0.0,1.8343,1.9386,1.9621,1.9671,1.9567,0.0,1.741,1.9478,1.7177,1.7134,2.033,2.0317,1.9867,1.9132,2.0233,2.0483,0.0,0.0,0.0,0.0,0.0,0.0,0.0,0.0,0.0,0.0,1.6016,1.8056,1.9286,1.9291,2.0417,2.1885,2.0312,2.0766,2.231,2.2349,2.2721,2.3236,2.3544,2.3896,2.419,2.419,2.419,2.4133,2.3668,2.2894,2.2152,2.2072,2.1378,2.0787,2.1142,2.1165,2.0894,1.9973,1.8925,1.7806,1.6763,1.564,1.4444,1.3067,0.0,0.0,0.0,0.0,0.0,0.921,1.0268,1.0715,1.0051,1.0278,0.0,1.0669,1.2032,1.3121,1.3617,1.3583,1.3084,1.2078,1.356,1.3739,1.2141,1.4907,1.6204,1.5743,1.5878,1.6948,1.8848,1.7814,1.8114,1.9558,1.9201,1.9134,1.9308,1.9228,1.9829,2.0845,2.0725,2.1334,2.2276,2.1399,2.0765,2.0255,1.9277,1.7972,1.6659,1.1819,0.0,0.0,0.0,0.0,1.3588,1.5224,1.6613,1.7511,1.7559,1.8624,1.9105,1.8446,1.9155,1.9444,1.8839,1.8419,0.0,0.0,0.0,0.0,2.1287,2.169,2.1919,2.1985,2.2202,2.2377,0.0,0.0,0.0,0.0,0.0,0.0,0.0,0.0,0.0,1.5098,1.5735,0.0,1.9742,1.9359,1.9843,2.0894,2.154,2.199,2.2321,2.2563,2.289,2.3212,2.3259,2.3692,2.419,2.419,2.419,2.4004,2.3075,2.2666,2.2392,2.1823,2.1753,2.1912,2.2306,2.2152,2.1864,2.1673,2.0415,1.9125,1.8493,1.6764,1.516,1.4442,0.0,0.0,0.0,0.0,0.7362,0.7326,0.8418,0.896,0.8244,0.8603,0.9063,0.946,1.0928,1.2121,1.275,1.3387,1.3884,1.4218,1.3588,1.3865,0.0,1.5762,1.6987,0.0,1.829,1.8668,2.0142,1.9096,1.8663,1.8799,1.9104,1.9259,1.9326,1.9957,2.0625,2.1267,2.187,2.2323,2.2556,2.1736,2.1131,2.0638,2.0115,1.9546,1.8882,0.0,0.0,0.0,0.0,0.0,0.0,0.0,1.7247,1.8423,1.8172,1.9043,1.9506,1.8997,1.9585,1.9866,1.95,1.8934,1.9049,2.0075,1.9556,1.993,2.1516,2.1965,2.1885,2.1216,2.2463,2.2673,2.1804,0.0,0.0,0.0,0.0,0.0,0.0,0.0,1.3489,0.0,0.0,1.7805,1.9295,2.0123,2.083,2.1507,2.2075,2.231,2.2349,2.2599,2.2923,2.323,2.3392,2.3795,2.419,2.419,2.419,2.4097,2.3579,2.3042,2.261,2.2687,2.2402,2.2233,2.2803,2.2813,2.2565,2.2207,2.1097,1.9806,1.855,1.7059,1.5514,1.4135,1.2285,1.0787,1.0162,0.9313,0.8711,0.8592,0.8858,0.9083,0.9157,0.9573,1.0037,1.0505,1.1472,1.2048,1.1988,1.1951,1.2086,1.2459,1.3018,1.386,0.0,0.0,0.0,1.9566,0.0,1.8548,1.9719,1.8532,1.8252,1.8807,1.9034,1.9214,1.9326,2.0152,2.0569,2.0766,2.181,2.2521,2.288,2.2118,2.1674,2.1404,2.0831,2.0335,1.9823,0.0,1.2632,0.0,0.0,1.4034,1.5266,1.5874,1.7539,1.876,1.8887,1.9369,1.969,1.969,2.0054,2.0119,1.968,1.9319,1.9334,1.9799,1.947,1.9807,2.1059,2.1849,2.1684,2.0533,2.2545,2.2872,0.0,0.0,0.0,0.0,0.0,0.0,0.0,0.0,0.0,0.0,0.0,1.8417,1.9094,2.0874,2.1899,2.231,2.231,2.231,2.2349,2.2686,2.2972,2.3236,2.3588,2.3917,2.419,2.419,2.419,2.419,2.419,2.3597,2.3057,2.3551,2.3009,2.2414,2.2914,2.2881,2.2559,2.1996,2.1056,1.9891,1.8382,1.7196,1.58,1.3801,1.287,1.2235,1.1809,1.0718,0.9703,0.9097,0.891,0.9168,1.0081,1.0124,1.0436,1.1314,1.1501,1.1313,1.0723,1.0421,1.0592,1.1345,0.0,0.0,0.0,1.6512,1.8068,1.9204,0.0,1.8235,1.9289,1.807,1.8002,1.8914,1.9018,1.915,1.9326,2.0152,2.0585,2.0806,2.1992,2.2794,2.3236,2.2609,2.2272,2.2152,2.1397,2.0846,2.0333,0.0,0.0,0.0,0.0,0.0,1.612,1.7604,1.8042,1.8335,1.8846,1.9369,1.969,1.969,2.0054,1.955,1.7727,1.9551,1.9453,1.6314,1.9386,2.078,1.9565,2.1518,2.271,2.2888,2.3578,2.4042,0.0,0.0,2.0859,0.0,0.0,0.0,0.0,0.0,0.0,0.0,1.7918,1.9014,2.0143,2.116,2.1899,2.231,2.231,2.231,2.2377,2.2958,2.3165,2.3236,2.3588,2.3917,2.419,2.419,2.419,2.419,2.419,2.4115,2.4002,2.3777,2.3315,2.2866,2.2628,2.1825,2.11,2.1017,2.0001,1.9051,1.8992,1.7578,1.6003,1.4762,1.3715,1.2266,0.9966,0.9225,0.8032,0.5489,0.6393,0.7769,0.9,0.7728,0.7631,0.9856,0.9123,0.8461,0.8335,0.9661,1.177,1.476,0.0,0.0,1.6347,1.5697,1.6458,1.891,1.8516,1.9,2.0349,1.9245,1.8699,1.8642,1.9082,1.9274,1.9326,2.0152,2.1365,2.2777,2.3656,2.3862,2.3628,2.3236,2.2905,2.2548,2.1832,2.1275,2.0862,0.0,0.0,0.0,0.0,0.0,0.0,0.0,1.8653,1.9131,1.9332,1.9566,1.969,1.969,2.0296,2.0393,1.9605,2.0924,2.1174,1.972,2.113,2.1752,2.1144,2.2324,2.313,2.3374,2.4118,2.4622,0.0,0.0,0.0,0.0,0.0,0.0,0.0,0.0,1.6986,1.7055,1.8204,1.928,2.0273,2.0943,2.1675,2.231,2.231,2.231,2.2377,2.2965,2.3189,2.3277,2.3816,2.3955,2.3896,2.3896,2.3896,2.3937,2.4151,2.419,2.417,2.4054,2.3856,2.3584,2.2957,2.2363,2.1744,2.1057,2.0161,1.9372,1.8896,1.7625,1.6504,1.6316,1.5865,1.4747,1.2225,1.276,1.2407,0.9295,1.0105,1.143,1.2629,1.108,1.0917,1.3493,1.1623,1.0055,0.9539,0.9678,1.0249,1.1318,1.1567,0.0,1.7518,0.0,1.8703,2.3176,2.0414,1.9682,2.1031,2.035,1.9624,1.8843,1.9164,1.9565,2.0042,2.0356,2.118,2.2336,2.3144,2.3285,2.2983,2.3145,2.2996,2.2617,2.1861,2.1337,2.0926,1.6762,0.0,1.63,0.0,1.7927,1.8495,1.8284,1.9083,1.9632,1.9406,1.9582,1.969,1.969,2.0481,2.0751,2.0178,2.1457,2.1799,2.0621,2.1653,2.204,2.1446,2.2563,0.0,2.3494,2.4338,2.4892,2.5099,2.2251,0.0,0.0,0.0,0.0,0.0,1.7332,1.7346,1.7409,1.8599,1.9519,2.0273,2.0911,2.1615,2.231,2.231,2.231,2.2377,2.2865,2.3117,2.3259,2.3753,2.3816,2.3714,2.3816,2.3855,2.3896,2.4132,2.419,2.419,2.419,2.4025,2.3639,2.2758,2.215,2.148,2.0371,1.9596,1.895,1.8286,1.7622,1.7241,1.7354,1.7584,1.6872,1.4362,1.5232,1.5241,1.2348,1.2437,1.3258,1.4481,1.2478,1.2195,1.5272,1.3259,1.1316,1.0234,1.0017,0.9773,0.9332,1.0495,0.0,0.0,0.0,0.0,2.3948,2.0297,1.9394,2.1272,2.0657,1.98,1.877,1.9084,1.9525,2.0091,2.0376,2.0849,2.1473,2.2209,2.2389,2.2208,2.2447,2.2407,2.2089,2.1313,2.0927,2.0715,1.8674,1.8849,1.8999,1.9558,1.9681,1.9413,1.8704,1.9239,1.9448,1.8688,1.9252,1.969,1.969,2.0481,2.0194,1.8192,2.0668,2.0621,1.6648,2.0073,2.1401,0.0,0.0,2.3298,2.3494,2.4338,2.4903,2.5101,0.0,0.0,2.1608,0.0,1.8217,1.763,1.841,1.8513,1.8143,1.9156,1.9838,2.0273,2.1227,2.1869,2.231,2.231,2.231,2.2349,2.2599,2.2923,2.3189,2.3212,2.3414,2.3774,2.4094,2.419,2.419,2.419,2.419,2.419,2.419,2.3621,2.2758,2.1696,2.0617,1.9558,1.8481,1.7777,1.7255,1.7045,1.7736,1.8223,1.7712,1.8307,1.8027,1.5426,1.5231,1.4728,1.2767,1.1588,1.1446,1.2862,0.9958,0.9429,1.3437,1.266,1.1182,0.9448,1.067,1.1261,1.0806,0.8618,0.9616,1.4491,1.2004,0.0,1.9039,1.7141,1.7769,2.0993,1.9856,1.8914,1.8229,1.877,1.9019,1.9055,2.0072,2.0503,2.056,2.1152,2.1422,2.1399,2.1132,2.1034,2.0914,1.9958,1.9904,2.0177,1.4055,1.6484,1.8528,1.7327,1.856,1.9632,1.9375,1.9537,1.9617,1.9394,1.9552,1.9803,2.0089,2.0632,2.0862,0.0,2.0348,2.0278,0.0,2.0322,2.0666,2.1581,2.1053,2.1206,2.2181,2.2309,2.2641,2.3256,0.0,0.0,0.0,1.8071,1.7847,1.8938,1.8504,1.8416,1.8617,1.9302,1.9982,2.067,2.1319,2.1899,2.231,2.231,2.231,2.2349,2.2599,2.2772,2.2923,2.3392,2.361,2.3774,2.4094,2.4036,2.3896,2.4113,2.419,2.419,2.419,2.4006,2.3417,2.1805,2.1014,2.0179,1.8586,1.8044,1.7997,1.8308,1.8496,1.8507,1.8146,1.8275,1.7606,1.5119,1.6881,1.7517,1.4553,1.4557,1.4509,1.3583,1.11,1.0918,1.4663,1.5235,1.408,1.0968,1.1003,1.0923,1.0426,1.1679,1.4675,0.0,1.8358,0.0,2.3805,1.9701,1.8733,2.0993,1.9839,1.9021,1.8469,1.8659,1.8825,1.9055,1.9919,2.0057,1.9769,2.0916,2.1095,2.0563,2.049,2.0463,2.0337,1.9385,1.9375,1.9763,1.4776,1.6998,1.8802,1.7537,1.865,1.9602,1.9321,1.9526,1.9622,1.9305,1.9649,2.0104,2.0516,2.0943,0.0,2.1582,2.0883,2.0955,2.2215,2.1233,2.1201,2.2635,2.1693,2.1566,2.2482,2.2483,0.0,2.3101,2.2312,2.125,1.9899,1.8583,1.8651,1.9834,1.9022,1.903,1.9667,2.0135,2.0636,2.1147,2.1672,2.2032,2.231,2.231,2.231,2.2321,2.2473,2.2625,2.2772,2.3189,2.35,2.3714,2.3795,2.3837,2.3917,2.4151,2.419,2.419,2.419,2.419,2.3729,2.1745,2.1133,2.0501,1.8638,1.827,1.8458,1.8848,1.8883,1.8754,1.8569,1.8539,1.8127,1.679,1.8367,1.9065,1.7089,1.6484,1.5871,1.4847,1.2424,1.2465,1.6612,1.7418,1.6702,1.4363,1.3027,1.2587,1.3211,1.3125,1.5226,1.994,1.9531,2.0756,2.4008,1.9988,1.8924,2.0784,1.9026,1.8216,1.8293,1.7999,1.8171,1.8733,1.9435,1.9539,1.9255,2.0029,2.0103,1.9726,1.9476,1.9437,1.9459,1.878,1.9008,1.9606,1.9111,1.9471,1.963,1.9486,1.9591,1.9474,1.8787,1.9267,1.9478,1.8815,1.9656,2.0483,2.0991,2.1368,2.1612,2.1658,0.0,0.0,2.2321,2.2434,2.2574,2.2754,2.3213,2.3571,2.3842,2.4144,2.4274,2.4221,2.3376,2.247,2.1483,2.067,2.032,2.0348,1.9904,2.0215,2.1055,2.143,2.1628,2.1688,2.2106,2.231,2.231,2.231,2.231,2.231,2.231,2.2463,2.2686,2.2695,2.3117,2.361,2.33,2.3671,2.4208,2.417,2.417,2.419,2.419,2.419,2.369,2.1639,2.1013,2.0448,1.8662,1.8469,1.868,1.8838,1.8939,1.9001,1.8927,1.8992,1.923,1.9819,1.9646,1.9481,1.9683,1.7305,1.5679,1.6036,1.3742,1.4025,1.8914,1.9183,1.8998,1.8807,1.6305,1.5789,1.8053,0.0,1.2626,1.6976,1.6954,1.8124,2.0745,1.8688,1.8518,2.0264,1.762,1.682,1.7625,1.6999,1.724,1.8142,1.8698,1.8966,1.9001,1.8734,1.8778,1.8933,1.8289,1.8197,1.8381,1.8166,1.8736,1.9549,0.0,0.0,1.9081,1.7151,1.841,1.9626,1.9474,1.9592,1.9753,1.9884,2.0115,2.0601,2.1368,2.1521,2.1748,2.2106,2.0849,2.0761,2.2504,2.1293,2.1371,2.3383,2.1844,2.1384,2.2297,2.1708,2.2014,2.3311,2.294,2.2354,2.1565,2.1366,2.1118,2.0829,2.0715,2.0975,2.146,2.1552,2.1794,2.2135,2.2254,2.231,2.231,2.231,2.231,2.231,2.231,2.2349,2.2426,2.2634,2.2972,2.3282,2.323,2.3671,2.4151,2.3896,2.3996,2.419,2.419,2.419,2.3875,2.2562,2.1133,1.9852,1.9003,1.8929,1.9123,1.9357,1.935,1.9264,1.914,1.8782,1.877,1.9686,1.9813,1.9118,1.7154,1.638,1.5245,1.3143,1.3694,1.5578,1.8914,2.0685,2.0845,1.8947,1.8127,1.7473,1.6937,1.5667,1.7148,2.2025,2.1837,2.1848,2.228,2.0868,1.9451,1.8057,1.7375,1.6788,1.6271,1.6613,1.6992,1.7404,1.8038,1.8663,1.9196,1.8983,1.8937,1.8933,1.8419,1.8298,1.8381,1.8166,1.8521,1.914,1.5945,1.7779,1.9261,1.7887,1.8801,1.969,1.969,1.969,1.9839,2.0246,2.0483,2.0878,2.1521,2.1794,2.2032,2.2282,2.1289,2.1261,2.2617,2.1856,2.2066,2.3635,2.2575,2.2177,2.2662,2.2157,2.2205,2.286,2.2634,2.2209,2.1582,2.1582,2.1491,2.1275,2.1275,2.1507,2.1928,2.2034,2.2181,2.231,2.2409,2.2398,2.231,2.231,2.231,2.231,2.231,2.231,2.2321,2.2463,2.2815,2.3141,2.2883,2.345,2.4094,2.361,2.3816,2.419,2.419,2.419,2.3858,2.2404,2.1,1.9792,1.9146,1.9486,1.9888,1.9712,1.962,1.9557,1.9452,1.9099,1.9021,1.973,1.8909,1.7565,1.5865,1.4842,1.4132,1.372,1.5017,1.7356,2.0911,2.252,2.2604,2.0858,1.9077,1.8075,1.81,1.6219,1.7592,2.2912,2.2557,2.2339,2.2429,2.0806,1.9064,1.7205,1.6458,1.594,1.5666,1.578,1.6216,1.6941,1.7642,1.8325,1.8964,1.8861,1.8898,1.8956,1.8718,1.8517,1.8416,1.8679,1.8962,1.9273,1.969,1.969,1.969,1.9603,1.9639,1.969,1.9603,1.9711,1.9945,2.0348,2.0829,2.1244,2.1658,2.2061,2.231,2.2377,2.236,2.2463,2.2746,2.3093,2.3414,2.3774,2.4054,2.4036,2.3714,2.3588,2.3253,2.2634,2.2398,2.2106,2.1718,2.1718,2.1748,2.179,2.179,2.1982,2.2388,2.2599,2.2537,2.2338,2.2537,2.25,2.231,2.231,2.231,2.231,2.231,2.2338,2.236,2.236,2.2773,2.3183,2.2544,2.317,2.3996,2.3392,2.3649,2.4151,2.419,2.419,2.3785,2.2061,2.1134,2.0373,1.945,2.0068,2.0634,1.9943,1.9843,1.9847,1.9775,1.9613,1.9489,1.9436,1.7587,1.5801,1.4796,1.3376,1.3231,1.5393,1.6677,1.8932,2.2898,2.3587,2.3455,2.2645,1.9416,1.8088,1.9444,1.6069,1.6373,2.1419,2.1165,2.1153,2.1657,1.9688,1.8128,1.6946,1.5531,1.4952,1.5196,1.4881,1.5377,1.6502,1.7289,1.7954,1.8529,1.8585,1.8775,1.9035,1.9031,1.8852,1.8706,1.926,1.9549,1.9656,1.969,1.969,1.9566,1.9095,1.9406,1.9566,1.9095,1.9687,2.0382,2.0829,2.1244,2.1688,2.2135,2.2254,2.2388,2.2625,2.2634,2.2789,2.3093,2.3455,2.3774,2.4113,2.417,2.4036,2.3714,2.3141,2.2704,2.236,2.2321,2.2254,2.218,2.218,2.2326,2.2538,2.2538,2.2565,2.2634,2.2669,2.2537,2.231,2.2349,2.2349,2.231,2.231,2.231,2.231,2.231,2.2453,2.2634,2.2634,2.3087,2.3522,2.2865,2.3159,2.3692,2.3305,2.3459,2.3837,2.4113,2.419,2.3969,2.2997,2.2667,2.2154,2.0618,2.0633,2.0741,1.9948,2.0021,2.0182,2.0067,2.0007,1.9402,1.7583,1.676,1.5289,1.2184,1.3253,1.4418,1.4529,1.6961,1.9337,2.1155,2.1393,2.12,2.0673,1.9236,1.8083,1.7347,1.6417,1.689,1.9057,1.9774,2.0094,2.0129,1.8871,1.7591,1.6333,1.5753,1.4891,1.3833,1.4671,1.5132,1.5343,1.6702,1.762,1.8203,1.8473,1.8869,1.924,1.9131,1.9302,1.9609,1.9182,1.9303,1.9588,1.9332,1.9281,1.9095,1.8574,1.865,1.8855,1.8893,1.9492,2.0181,2.0894,2.1337,2.1794,2.2254,2.231,2.2349,2.249,2.2625,2.2848,2.3165,2.3522,2.3837,2.419,2.419,2.3976,2.3437,2.2807,2.2426,2.231,2.231,2.236,2.2527,2.2527,2.2678,2.2972,2.2972,2.2972,2.2972,2.3165,2.2965,2.2527,2.2721,2.2598,2.231,2.231,2.231,2.231,2.231,2.2388,2.25,2.266,2.2923,2.3117,2.2797,2.3165,2.3631,2.33,2.3566,2.3996,2.4151,2.3878,2.3474,2.3107,2.2997,2.2685,2.1473,2.1425,2.1412,2.0608,2.0365,2.0288,2.022,2.0211,1.9775,1.8468,1.6613,1.4651,1.2715,1.3157,1.3814,1.4255,1.6859,1.9141,2.0441,2.0363,1.9784,1.8835,1.7877,1.6949,1.6038,1.5641,1.6332,1.828,1.9519,2.0112,2.0007,1.8426,1.7075,1.6037,1.5345,1.4432,1.3356,1.4124,1.4544,1.473,1.5837,1.6807,1.7608,1.815,1.846,1.8624,1.9427,1.9308,1.871,1.9117,1.9419,1.9543,1.9003,1.8902,1.8764,1.8385,1.841,1.859,1.8864,1.9493,2.0181,2.0926,2.1446,2.1899,2.2254,2.231,2.2349,2.248,2.2704,2.2996,2.3414,2.3671,2.3917,2.419,2.4132,2.3816,2.3212,2.2686,2.236,2.231,2.231,2.2453,2.2695,2.2695,2.2923,2.3323,2.3323,2.3323,2.3346,2.3588,2.3305,2.2721,2.2972,2.2773,2.231,2.231,2.231,2.231,2.236,2.2371,2.2453,2.2712,2.2873,2.2923,2.2848,2.3212,2.3649,2.3392,2.3753,2.419,2.419,2.3749,2.329,2.329,2.329,2.3015,2.2041,2.2021,2.1926,2.0916,2.0498,2.0312,2.0312,2.0273,1.9876,1.8724,1.6172,1.4057,1.3293,1.2887,1.3103,1.432,1.6482,1.8286,1.9247,1.8846,1.8053,1.6876,1.6133,1.5531,1.4998,1.4755,1.5736,1.8089,1.9613,2.0144,1.9627,1.8087,1.6786,1.5689,1.4793,1.3967,1.3232,1.3682,1.4025,1.4324,1.5139,1.5985,1.6841,1.7508,1.7936,1.8301,1.9418,1.918,1.8345,1.9269,1.9697,1.9788,1.8906,1.8893,1.8918,1.8932,1.9279,1.9438,1.8976,2.0053,2.0926,2.0991,2.1721,2.2254,2.231,2.231,2.2535,2.3087,2.3141,2.3455,2.4094,2.4151,2.417,2.419,2.3896,2.3566,2.3212,2.2848,2.2537,2.231,2.231,2.2453,2.2695,2.2695,2.3045,2.3671,2.3671,2.3671,2.3671,2.3692,2.3305,2.2695,2.2721,2.2563,2.231,2.231,2.231,2.2321,2.2573,2.2669,2.2721,2.3045,2.3369,2.3566,2.3259,2.3414,2.3692,2.3671,2.3917,2.419,2.419,2.4153,2.4116,2.4116,2.4116,2.3712,2.2152,2.2021,2.1757,2.0212,2.0108,2.0312,2.0312,2.0196,1.9146,1.6182,1.4798,1.3619,1.2151,1.2269,1.3106,1.4745,1.5786,1.6405,1.6501,1.5809,1.5137,1.4668,1.4283,1.4046,1.402,1.4346,1.5698,1.8301,1.9692,1.9573,1.7888,1.7741,1.6784,1.5065,1.4301,1.3682,1.3232,1.3682,1.3921,1.3986,1.4713,1.5352,1.592,1.6367,1.7517,1.8996,1.8676,1.9163,2.0051,1.9697,2.007,2.059,1.9044,1.8946,1.8848,1.8562,1.8624,1.8826,1.8946,1.9996,2.07,2.063,2.1697,2.2338,2.1903,2.2135,2.2453,2.2848,2.2898,2.3165,2.3855,2.402,2.4098,2.419,2.3876,2.3544,2.3212,2.2873,2.2563,2.231,2.231,2.2544,2.3021,2.3021,2.3369,2.4016,2.4016,2.4016,2.4016,2.4016,2.361,2.3021,2.3021,2.2704,2.231,2.231,2.231,2.2349,2.2599,2.2599,2.2554,2.3253,2.3323,2.3117,2.3414,2.3606,2.3735,2.3937,2.4094,2.419,2.419,2.419,2.419,2.419,2.419,2.4043,2.3419,2.3041,2.2537,2.1499,2.1051,2.0709,2.0251,1.9993,1.9288,1.7542,0.0,1.5404,1.4301,1.4318,1.4577,1.4991,1.5751,1.6074,1.555,1.5016,1.4617,1.446,1.4103,1.4117,1.4627,1.5462,1.6386,1.7383,1.9186,1.9607,1.8472,1.7316,1.634,1.5487,1.4748,1.4362,1.4249,1.4458,1.4518,1.4554,1.5074,1.5538,1.5972,1.6599,1.7199,1.7784,1.8426,1.8767,1.8927,1.9411,2.0226,2.1016,1.9015,1.8999,1.8956,1.8717,1.87,1.8823,1.9219,1.9984,2.0587,2.0709,2.1666,2.2263,2.2096,2.2259,2.2581,2.2972,2.3021,2.3236,2.3816,2.4042,2.4211,2.4284,2.4078,2.3762,2.3369,2.3021,2.273,2.2426,2.2349,2.2624,2.3189,2.3189,2.3566,2.419,2.419,2.419,2.419,2.419,2.3816,2.3189,2.3189,2.2849,2.231,2.231,2.231,2.2349,2.2599,2.2573,2.2544,2.3294,2.3323,2.3093,2.3544,2.3774,2.3896,2.4113,2.419,2.419,2.419,2.419,2.419,2.419,2.4113,2.3908,2.3434,2.2977,2.2409,2.1446,2.0985,2.0614,2.0091,1.9748,1.9284,1.849,1.7541,1.6645,1.5884,1.5775,1.5649,1.5301,1.5737,1.5838,1.515,1.4935,1.474,1.4515,1.4455,1.4598,1.5088,1.6172,1.6927,1.7135,1.864,1.9278,1.8902,1.7626,1.6518,1.5632,1.5047,1.4734,1.4651,1.4828,1.4879,1.4878,1.5182,1.5625,1.6194,1.6715,1.7077,1.7369,1.848,1.8849,1.8838,1.9733,2.0751,2.1669,1.8904,1.8983,1.9146,1.971,1.9795,1.9808,1.9808,2.0127,2.0637,2.1332,2.1574,2.2069,2.2999,2.2843,2.2972,2.3649,2.3714,2.3837,2.419,2.4393,2.4512,2.4512,2.4512,2.4247,2.3714,2.3369,2.3045,2.2695,2.2409,2.2624,2.3189,2.3189,2.3566,2.419,2.419,2.419,2.419,2.419,2.3816,2.3189,2.3189,2.2849,2.231,2.231,2.231,2.2349,2.2599,2.2695,2.2746,2.3093,2.3414,2.3692,2.3692,2.3917,2.419,2.419,2.419,2.419,2.419,2.419,2.419,2.419,2.3937,2.3298,2.1766,2.1462,2.1075,1.9531,1.9535,1.9809,1.9809,1.9476,1.9002,1.8395,1.7625,1.6889,1.6296,1.6219,1.6068,1.5662,1.5605,1.5462,1.5134,1.5346,1.523,1.4556,1.5133,1.5412,1.5117,1.6215,1.7135,1.7877,1.8182,1.8508,1.8908,1.8684,1.7504,1.5325,1.5038,1.4626,1.4159,1.4676,1.4914,1.4814,1.4903,1.5531,1.6493,1.6493,1.7141,1.8145,1.8688,1.9456,2.0348,2.0829,2.1691,2.2599,1.9447,1.9572,1.9623,1.9773,1.9813,1.98,1.98,2.0312,2.0743,2.0948,2.1535,2.2102,2.2552,2.2777,2.343,2.4712,2.4394,2.4293,2.4728,2.4818,2.4858,2.4858,2.4636,2.4301,2.3928,2.3446,2.3141,2.3045,2.2738,2.2915,2.3544,2.3544,2.3795,2.419,2.419,2.419,2.419,2.419,2.3816,2.3189,2.3189,2.2849,2.231,2.231,2.231,2.2349,2.2599,2.2695,2.2797,2.3369,2.3628,2.3735,2.3976,2.4113,2.419,2.419,2.419,2.419,2.419,2.419,2.419,2.419,2.4113,2.378,2.2758,2.2557,2.2133,2.0618,2.0415,2.0335,1.9769,1.9258,1.8751,1.8237,1.7647,1.7109,1.6664,1.6818,1.6751,1.6172,1.6713,1.6809,1.5877,1.6293,1.6546,1.6327,1.6764,1.7004,1.6942,1.7768,1.8367,1.8587,1.9733,2.0017,1.9345,1.8362,1.7625,1.7135,1.6775,1.6694,1.6923,1.706,1.7124,1.7115,1.7138,1.7314,1.7595,1.721,1.7464,1.8131,1.8646,1.9417,2.0371,2.1393,2.231,2.3058,1.9636,1.9798,1.9798,1.9798,1.9798,1.9798,1.9798,2.0144,2.0486,2.0753,2.1303,2.1879,2.2534,2.3276,2.4183,2.5356,2.5185,2.5152,2.5482,2.5235,2.5088,2.513,2.486,2.4557,2.421,2.3749,2.349,2.3392,2.3069,2.3165,2.3692,2.3692,2.3876,2.419,2.419,2.419,2.419,2.419,2.3896,2.3392,2.3392,2.3105,2.2677,2.2677,2.2677,2.2686,2.284,2.2898,2.2972,2.3522,2.3795,2.3937,2.4151,2.419,2.419,2.419,2.419,2.419,2.419,2.419,2.419,2.419,2.3856,2.323,2.2155,2.1881,2.1516,2.0331,2.0148,2.003,1.9475,1.9111,1.8753,1.836,1.8013,1.7749,1.7528,1.7608,1.7452,1.6903,1.7407,1.7493,1.6652,1.7276,1.7739,1.7739,1.8046,1.8067,1.7715,1.8616,1.9208,1.9324,2.0383,2.0744,2.0322,1.942,1.8697,1.8177,1.7805,1.7661,1.7785,1.7995,1.8085,1.8106,1.8113,1.8224,1.838,1.8066,1.8145,1.8482,1.9156,1.9843,2.0636,2.172,2.2583,2.3236,1.9597,1.9798,1.9798,1.9798,1.9798,1.9798,1.9798,1.9798,2.0052,2.0808,2.1011,2.1627,2.2973,2.4155,2.5102,2.5813,2.6057,2.6204,2.6338,2.5634,2.5234,2.5303,2.5197,2.4934,2.4545,2.4173,2.3928,2.3777,2.3414,2.3414,2.3735,2.3735,2.3917,2.419,2.419,2.419,2.419,2.419,2.3996,2.3692,2.3692,2.35,2.3189,2.3189,2.3189,2.3189,2.3165,2.3189,2.33,2.3631,2.3955,2.419,2.419,2.419,2.419,2.4116,2.4135,2.4171,2.4116,2.4153,2.4171,2.4116,2.3246,2.207,2.0662,2.0246,1.9921,1.9181,1.9166,1.923,1.9035,1.8966,1.8878,1.8623,1.8585,1.8639,1.871,1.8496,1.8228,1.7924,1.8011,1.7936,1.7523,1.8273,1.8792,1.8792,1.8967,1.8729,1.7927,1.8996,1.9764,2.0092,2.045,2.0982,2.1658,2.1244,2.0286,1.8755,1.8487,1.8058,1.759,1.81,1.8361,1.8344,1.8318,1.8559,1.9029,1.8991,1.8991,1.9103,2.0008,2.0649,2.1134,2.1869,2.2609,2.3236,1.9673,1.9798,1.9798,1.9798,1.9798,1.9798,1.9798,1.9798,2.0181,2.1342,2.1255,2.2068,2.4645,2.5004,2.5634,2.7131,2.6842,2.6604,2.6689,2.579,2.5304,2.5386,2.5301,2.5088,2.4746,2.4244,2.41,2.4338,2.3842,2.3756,2.4094,2.4094,2.4132,2.419,2.419,2.419,2.419,2.419,2.3996,2.3692,2.3692,2.35,2.3189,2.3189,2.3189,2.3165,2.2898,2.3141,2.3631,2.3976,2.4151,2.419,2.419,2.419,2.408,2.3456,2.3712,2.4061,2.3437,2.3731,2.4043,2.3419,2.2612,2.1862,2.1514,2.0893,2.0199,1.941,1.915,1.9052,1.9019,1.8825,1.8678,1.8604,1.8585,1.8816,1.9458,1.9507,1.9475,1.9495,1.9976,1.9942,1.903,1.9262,1.9465,1.9465,1.9526,1.9485,1.9291,2.0159,2.0701,2.0767,2.152,2.1984,2.2135,2.1705,2.0958,1.9946,2.0221,2.0138,1.9656,2.0138,2.0374,2.0363,1.9982,1.9884,1.9954,1.9585,1.9656,2.0043,2.0522,2.099,2.1565,2.2307,2.283,2.33,1.9334,1.9623,1.9798,1.9798,1.9798,1.9798,1.9798,1.9597,1.9847,2.1109,2.1405,2.2382,2.4763,2.5571,2.6458,2.7735,2.7517,2.7139,2.673,2.591,2.5418,2.536,2.5374,2.528,2.5043,2.4676,2.4433,2.4357,2.4095,2.4016,2.419,2.419,2.419,2.419,2.419,2.419,2.419,2.419,2.4094,2.3937,2.3937,2.3837,2.3671,2.3671,2.3671,2.3649,2.3477,2.3649,2.3937,2.3976,2.4074,2.419,2.419,2.3933,2.3547,2.3125,2.3033,2.296,2.2538,2.3015,2.3529,2.3125,2.2685,2.2152,2.1363,2.0537,1.9803,1.9381,1.9134,1.9002,1.9002,1.8896,1.8914,1.9307,1.9435,1.9813,2.0643,2.0639,2.0588,2.0653,2.0862,2.0688,1.9903,1.9924,1.9909,1.9711,2.0085,2.0139,1.9711,2.0731,2.1213,2.1007,2.1857,2.231,2.231,2.2061,2.1598,2.0927,2.0975,2.0862,2.0649,2.0894,2.0991,2.1007,2.0748,2.0616,2.0616,2.0366,2.0213,2.0161,2.0643,2.0817,2.0849,2.1707,2.2495,2.3208,1.887,1.9371,1.9698,1.9786,1.9723,1.9673,1.9673,1.9221,1.933,2.0584,2.1431,2.2663,2.4667,2.6313,2.7555,2.8174,2.7968,2.7454,2.6673,2.5953,2.5487,2.5348,2.5413,2.5389,2.5264,2.508,2.4776,2.4303,2.4266,2.4228,2.419,2.4151,2.4113,2.4113,2.4113,2.4113,2.4113,2.417,2.419,2.419,2.419,2.419,2.419,2.419,2.419,2.419,2.4151,2.4113,2.4074,2.3795,2.3826,2.3988,2.393,2.34,2.2776,2.263,2.2207,2.18,2.167,2.235,2.3086,2.3033,2.3051,2.2683,2.1253,2.0299,1.969,1.9528,1.9352,1.9163,1.902,1.9109,1.9433,2.0137,2.0545,2.1062,2.1927,2.1862,2.1734,2.1784,2.1429,2.1026,2.0555,2.0366,2.0124,1.9711,2.0379,2.0465,1.9762,2.0846,2.1337,2.0991,2.1857,2.231,2.231,2.231,2.2106,2.1718,2.1385,2.1197,2.1118,2.1197,2.1229,2.1229,2.1134,2.1086,2.1086,2.1086,2.07,2.0116,2.0716,2.0542,2.0082,2.0975,2.1896,2.2795,1.887,1.9033,1.9271,1.9723,1.9434,1.9133,1.9133,1.8668,1.8864,2.043,2.1368,2.3062,2.6075,2.7892,2.8984,2.9196,2.779,2.685,2.6771,2.5865,2.5381,2.5468,2.5371,2.5253,2.513,2.5042,2.4898,2.4716,2.4526,2.4375,2.419,2.3896,2.3774,2.3774,2.3774,2.3774,2.3795,2.4074,2.419,2.419,2.419,2.419,2.419,2.419,2.419,2.417,2.3876,2.3774,2.3774,2.3714,2.3462,2.3106,2.2819,2.2372,2.1804,2.107,2.1387,2.1829,2.112,2.2167,2.3382,2.3217,2.3219,2.3147,2.2739,2.2042,2.1235,2.0501,2.0187,1.9831,1.9145,1.956,2.0136,2.0409,2.1208,2.2095,2.2973,2.3068,2.314,2.3358,2.2536,2.1792,2.1376,2.0701,2.0124,1.9711,1.9818,1.9818,1.9726,2.0565,2.1071,2.0991,2.1857,2.231,2.231,2.231,2.2282,2.2209,2.2152,2.1899,2.1521,2.1945,2.2106,2.2106,2.1705,2.1521,2.1521,2.1521,2.1209,2.081,2.1073,2.0958,2.0719,2.1153,2.1401,2.1585,1.9304,1.9253,1.9196,1.971,1.9371,1.8983,1.8983,1.8563,1.8697,2.0033,2.1212,2.2981,2.5834,2.8313,2.9447,2.8687,2.8189,2.7536,2.6581,2.6033,2.5604,2.5294,2.5215,2.5206,2.5274,2.5194,2.5077,2.4917,2.4452,2.4118,2.3917,2.3566,2.3522,2.3692,2.3692,2.3881,2.4155,2.4302,2.4357,2.4357,2.4357,2.4303,2.419,2.419,2.419,2.417,2.4016,2.3976,2.3903,2.3466,2.3083,2.2699,2.2263,2.1553,2.0842,2.058,2.051,2.0437,2.0187,2.1382,2.2641,2.2542,2.3268,2.3957,2.3855,2.3492,2.2776,2.1492,2.1043,2.0807,2.0605,2.0821,2.1255,2.1948,2.2503,2.3101,2.3857,2.3971,2.3895,2.372,2.2902,2.2139,2.1556,2.075,2.0004,1.9317,1.953,1.9566,1.9281,2.0348,2.0991,2.0991,2.1857,2.231,2.231,2.231,2.231,2.231,2.231,2.218,2.2003,2.2209,2.231,2.231,2.2237,2.2197,2.2207,2.1943,2.1379,2.0676,2.0448,2.0135,1.9879,2.059,2.0913,2.1176]},{"header":{"parameterUnit":"m.s-1","parameterCategory":1,"la1":30.6,"la2":28.766,"lo1":-90.7593,"lo2":-88.6598,"dy":0.0162,"dx":0.0183,"nx":116,"ny":114,"refTime":"2023-09-15T00:00:00:Z","depth":0,"parameterNumber":3,"parameterNumberName":"V-component_of_WINDS"},"data":[0.0,0.0,0.0,0.0,0.0,0.0,0.0,0.0,0.0,0.0,0.0,0.0,0.0,0.0,0.0,0.0,0.0,0.0,0.0,0.0,0.0,0.0,0.0,0.0,0.0,0.0,0.0,0.0,0.0,0.0,0.0,0.0,0.0,0.0,0.0,0.0,0.0,0.0,0.0,0.0,0.0,0.0,0.0,0.0,0.0,0.0,0.0,0.0,0.0,0.0,0.0,0.0,0.0,0.0,0.0,0.0,0.0,0.0,0.0,0.0,0.0,0.0,0.0,0.0,0.0,0.0,0.0,0.0,0.0,0.0,0.0,0.0,0.0,0.0,0.0,0.0,0.0,0.0,0.0,0.0,0.0,0.0,0.0,0.0,0.0,0.0,0.0,0.0,0.0,0.0,0.0,0.0,0.0,0.0,0.0,0.0,0.0,0.0,0.0,0.0,0.0,0.0,0.0,0.0,0.0,0.0,0.0,0.0,0.0,0.0,0.0,0.0,0.0,0.0,0.0,0.0,0.0,0.0,0.0,0.0,0.0,0.0,0.0,0.0,0.0,0.0,0.0,0.0,0.0,0.0,0.0,0.0,0.0,0.0,0.0,0.0,0.0,0.0,0.0,0.0,0.0,0.0,0.0,0.0,0.0,0.0,0.0,0.0,0.0,0.0,0.0,0.0,0.0,0.0,0.0,0.0,0.0,0.0,0.0,0.0,0.0,0.0,0.0,0.0,0.0,0.0,0.0,0.0,0.0,0.0,0.0,0.0,0.0,0.0,0.0,0.0,0.0,0.0,0.0,0.0,0.0,0.0,0.0,0.0,0.0,0.0,0.0,0.0,0.0,0.0,0.0,0.0,0.0,0.0,0.0,0.0,0.0,0.0,0.0,0.0,0.0,0.0,0.0,0.0,0.0,0.0,0.0,0.0,0.0,0.0,0.0,0.0,0.0,0.0,0.0,0.0,0.0,0.0,0.0,0.0,0.0,0.0,0.0,0.0,0.0,0.0,0.0,0.0,0.0,0.0,0.0,0.0,0.0,0.0,0.0,0.0,0.0,0.0,0.0,0.0,0.0,0.0,0.0,0.0,0.0,0.0,0.0,0.0,0.0,0.0,0.0,0.0,0.0,0.0,0.0,0.0,0.0,0.0,0.0,0.0,0.0,0.0,0.0,0.0,0.0,0.0,0.0,0.0,0.0,0.0,0.0,0.0,0.0,0.0,0.0,0.0,0.0,0.0,0.0,0.0,0.0,0.0,0.0,0.0,0.0,0.0,0.0,0.0,0.0,0.0,0.0,0.0,0.0,0.0,0.0,0.0,0.0,0.0,0.0,0.0,0.0,0.0,0.0,0.0,0.0,0.0,0.0,0.0,0.0,0.0,0.0,0.0,0.0,0.0,0.0,0.0,0.0,0.0,0.0,0.0,0.0,0.0,0.0,0.0,0.0,0.0,0.0,0.0,0.0,0.0,0.0,0.0,0.0,0.0,0.0,0.0,0.0,0.0,0.0,0.0,0.0,0.0,0.0,0.0,0.0,0.0,0.0,0.0,0.0,0.0,0.0,0.0,0.0,0.0,0.0,0.0,0.0,0.0,0.0,0.0,0.0,0.0,0.0,0.0,0.0,0.0,0.0,0.0,0.0,0.0,0.0,0.0,0.0,0.0,0.0,0.0,0.0,0.0,0.0,0.0,0.0,0.0,0.0,0.0,0.0,0.0,0.0,0.0,0.0,0.0,0.0,0.0,0.0,0.0,0.0,0.0,0.0,0.0,0.0,0.0,0.0,0.0,0.0,0.0,0.0,0.0,0.0,0.0,0.0,0.0,0.0,0.0,0.0,0.0,0.0,0.0,0.0,0.0,0.0,0.0,0.0,0.0,0.0,0.0,0.0,0.0,0.0,0.0,0.0,0.0,0.0,0.0,0.0,0.0,0.0,0.0,0.0,0.0,0.0,0.0,0.0,0.0,0.0,0.0,0.0,0.0,0.0,0.0,0.0,0.0,0.0,0.0,0.0,0.0,0.0,0.0,0.0,0.0,0.0,0.0,0.0,0.0,0.0,0.0,0.0,0.0,0.0,0.0,0.0,0.0,0.0,0.0,0.0,0.0,0.0,0.0,0.0,0.0,0.0,0.0,0.0,0.0,0.0,0.0,0.0,0.0,0.0,0.0,0.0,0.0,0.0,0.0,0.0,0.0,0.0,0.0,0.0,0.0,0.0,0.0,0.0,0.0,0.0,0.0,0.0,0.0,0.0,0.0,0.0,0.0,0.0,0.0,0.0,0.0,0.0,0.0,0.0,0.0,0.0,0.0,0.0,0.0,0.0,0.0,0.0,0.0,0.0,0.0,0.0,0.0,0.0,0.0,0.0,0.0,0.0,0.0,0.0,0.0,0.0,0.0,0.0,0.0,0.0,0.0,0.0,0.0,0.0,0.0,0.0,0.0,0.0,0.0,0.0,0.0,0.0,0.0,0.0,0.0,0.0,0.0,0.0,0.0,0.0,0.0,0.0,0.0,0.0,0.0,0.0,0.0,0.0,0.0,0.0,0.0,0.0,0.0,0.0,0.0,0.0,0.0,0.0,0.0,0.0,0.0,0.0,0.0,0.0,0.0,0.0,0.0,0.0,0.0,0.0,0.0,0.0,0.0,0.0,0.0,0.0,0.0,0.0,0.0,0.0,0.0,0.0,0.0,0.0,0.0,0.0,0.0,0.0,0.0,0.0,0.0,0.0,0.0,0.0,0.0,0.0,0.0,0.0,0.0,0.0,0.0,0.0,0.0,0.0,0.0,0.0,0.0,0.0,0.0,0.0,0.0,0.0,0.0,0.0,0.0,0.0,0.0,0.0,0.0,0.0,0.0,0.0,0.0,0.0,0.0,0.0,0.0,0.0,0.0,0.0,0.0,0.0,0.0,0.0,0.0,0.0,0.0,0.0,0.0,0.0,0.0,0.0,0.0,0.0,0.0,0.0,0.0,0.0,0.0,0.0,0.0,0.0,0.0,0.0,0.0,0.0,0.0,0.0,0.0,0.0,0.0,0.0,0.0,0.0,0.0,0.0,0.0,0.0,0.0,0.0,0.0,0.0,0.0,0.0,0.0,0.0,0.0,0.0,0.0,0.0,0.0,0.0,0.0,0.0,0.0,0.0,0.0,0.0,0.0,0.0,0.0,0.0,0.0,0.0,0.0,0.0,0.0,0.0,0.0,0.0,0.0,0.0,0.0,0.0,0.0,0.0,0.0,0.0,0.0,0.0,0.0,0.0,0.0,0.0,0.0,0.0,0.0,0.0,0.0,0.0,0.0,0.0,0.0,0.0,0.0,0.0,0.0,0.0,0.0,0.0,0.0,0.0,0.0,0.0,0.0,0.0,0.0,0.0,0.0,0.0,0.0,0.0,0.0,0.0,0.0,0.0,0.0,0.0,0.0,0.0,0.0,0.0,0.0,0.0,0.0,0.0,0.0,0.0,0.0,0.0,0.0,0.0,0.0,0.0,0.0,0.0,0.0,0.0,0.0,0.0,0.0,0.0,0.0,0.0,0.0,0.0,0.0,0.0,0.0,0.0,0.0,0.0,0.0,0.0,0.0,0.0,0.0,0.0,0.0,0.0,0.0,0.0,0.0,0.0,0.0,0.0,0.0,0.0,0.0,0.0,0.0,0.0,0.0,0.0,0.0,0.0,0.0,0.0,0.0,0.0,0.0,0.0,0.0,0.0,0.0,0.0,0.0,0.0,0.0,0.0,0.0,0.0,0.0,0.0,0.0,0.0,0.0,0.0,0.0,0.0,0.0,0.0,0.0,0.0,0.0,0.0,0.0,0.0,0.0,0.0,0.0,0.0,0.0,0.0,0.0,0.0,0.0,0.0,0.0,0.0,0.0,0.0,0.0,0.0,0.0,0.0,0.0,0.0,0.0,0.0,0.0,0.0,0.0,0.0,0.0,0.0,0.0,0.0,0.0,0.0,0.0,0.0,0.0,0.0,0.0,0.0,0.0,0.0,0.0,0.0,0.0,0.0,0.0,0.0,0.0,0.0,0.0,0.0,0.0,0.0,0.0,0.0,0.0,0.0,0.0,0.0,0.0,0.0,0.0,0.0,0.0,0.0,0.0,0.0,0.0,0.0,0.0,0.0,0.0,0.0,0.0,0.0,0.0,0.0,0.0,0.0,0.0,0.0,0.0,0.0,0.0,0.0,0.0,0.0,0.0,0.0,0.0,0.0,0.0,0.0,0.0,0.0,0.0,0.0,0.0,0.0,0.0,0.0,0.0,0.0,0.0,0.0,0.0,0.0,0.0,0.0,0.0,0.0,0.0,0.0,0.0,0.0,0.0,0.0,0.0,0.0,0.0,0.0,0.0,0.0,0.0,0.0,0.0,0.0,0.0,0.0,0.0,0.0,0.0,0.0,0.0,0.0,0.0,0.0,0.0,0.0,0.0,0.0,0.0,0.0,0.0,0.0,0.0,0.0,0.0,0.0,0.0,0.0,0.0,0.0,0.0,0.0,0.0,0.0,0.0,0.0,0.0,0.0,0.0,0.0,0.0,0.0,0.0,0.0,0.0,0.0,0.0,0.0,0.0,0.0,0.0,0.0,0.0,0.0,0.0,0.0,0.0,0.0,0.0,0.0,0.0,0.0,0.0,0.0,0.0,0.0,0.0,0.0,0.0,0.0,0.0,0.0,0.0,0.0,0.0,0.0,0.0,0.0,0.0,0.0,0.0,0.0,0.0,0.0,0.0,0.0,0.0,0.0,0.0,0.0,0.0,0.0,0.0,0.0,0.0,0.0,0.0,0.0,0.0,0.0,0.0,0.0,0.0,0.0,0.0,0.0,0.0,0.0,0.0,0.0,0.0,0.0,0.0,0.0,0.0,0.0,0.0,0.0,0.0,0.0,0.0,0.0,0.0,0.0,0.0,0.0,0.0,0.0,0.0,0.0,0.0,0.0,0.0,0.0,0.0,0.0,0.0,0.0,0.0,0.0,0.0,0.0,0.0,0.0,0.0,0.0,0.0,0.0,0.0,0.0,0.0,0.0,0.0,0.0,0.0,0.0,0.0,0.0,0.0,0.0,0.0,0.0,0.0,0.0,0.0,0.0,0.0,0.0,0.0,0.0,0.0,0.0,0.0,0.0,0.0,0.0,0.0,0.0,0.0,0.0,0.0,0.0,0.0,0.0,0.0,0.0,0.0,0.0,0.0,0.0,0.0,0.0,0.0,0.0,0.0,0.0,0.0,0.0,0.0,0.0,0.0,0.0,0.0,0.0,0.0,0.0,0.0,0.0,0.0,0.0,0.0,0.0,0.0,0.0,0.0,0.0,0.0,0.0,0.0,0.0,0.0,0.0,0.0,0.0,0.0,0.0,0.0,0.0,0.0,0.0,0.0,0.0,0.0,0.0,0.0,0.0,0.0,0.0,0.0,0.0,0.0,0.0,0.0,0.0,0.0,0.0,0.0,0.0,0.0,0.0,0.0,0.0,0.0,0.0,0.0,0.0,0.0,0.0,0.0,0.0,0.0,0.0,0.0,0.0,0.0,0.0,0.0,0.0,0.0,0.0,0.0,0.0,0.0,0.0,0.0,0.0,0.0,0.0,0.0,0.0,0.0,0.0,0.0,0.0,0.0,0.0,0.0,0.0,0.0,0.0,0.0,0.0,0.0,0.0,0.0,0.0,0.0,0.0,0.0,0.0,0.0,0.0,0.0,0.0,0.0,0.0,0.0,0.0,0.0,0.0,0.0,0.0,0.0,0.0,0.0,0.0,0.0,0.0,0.0,0.0,0.0,0.0,0.0,0.0,0.0,0.0,0.0,0.0,0.0,0.0,0.0,0.0,0.0,0.0,0.0,0.0,0.0,0.0,0.0,0.0,0.0,0.0,0.0,0.0,0.0,0.0,0.0,0.0,0.0,0.0,0.0,0.0,0.0,0.0,0.0,0.0,0.0,0.0,0.0,0.0,0.0,0.0,0.0,0.0,0.0,0.0,0.0,0.0,0.0,0.0,0.0,0.0,0.0,0.0,0.0,0.0,0.0,0.0,0.0,0.0,0.0,0.0,0.0,0.0,0.0,0.0,0.0,0.0,0.0,0.0,0.0,0.0,0.0,0.0,0.0,0.0,0.0,0.7939,0.7336,0.0,0.0,0.0,0.0,0.0,0.0,0.0,0.0,0.0,0.0,0.0,0.0,0.0,0.0,0.0,0.0,0.0,0.0,0.0,0.0,0.0,0.0,0.0,0.0,0.0,0.0,0.0,0.0,0.0,0.0,0.0,0.0,0.0,0.0,0.0,0.0,0.0,0.0,0.0,0.0,0.0,0.0,0.0,0.0,0.0,0.0,0.0,0.0,0.0,0.0,0.0,0.0,0.0,0.0,0.0,0.0,0.0,0.0,0.0,0.0,0.0,0.0,0.0,0.0,0.0,0.0,0.0,0.0,0.0,0.0,0.0,0.0,0.0,0.0,0.0,0.0,0.0,0.0,0.0,0.0,0.0,0.0,0.0,0.0,0.0,0.0,0.0,0.0,0.0,0.0,0.0,0.0,0.0,0.0,0.0,0.0,0.0,0.0,0.0,0.0,0.0,0.0,0.0,0.0,0.0,0.0,0.0,0.0,0.0,0.0,0.0,0.0,0.0,0.0,0.9111,0.8335,0.0,0.0,0.0,0.0,0.0,0.0,0.0,0.0,0.0,0.0,0.0,0.0,0.0,0.0,0.0,0.0,0.0,0.0,0.0,0.0,0.0,0.0,0.0,0.0,0.0,0.0,0.0,0.0,0.0,0.0,0.0,0.0,0.0,0.0,0.0,0.0,0.0,0.0,0.0,0.0,0.0,0.0,0.0,0.0,0.0,0.0,0.0,0.0,0.0,0.0,0.0,0.0,0.0,0.0,0.0,0.0,0.0,0.0,0.0,0.0,0.0,0.0,0.0,0.0,0.0,0.0,0.0,0.0,0.0,0.0,0.0,0.0,0.0,0.0,0.0,0.0,0.0,0.0,0.0,0.0,0.0,0.0,0.0,0.0,0.0,0.0,0.0,0.0,0.0,0.0,0.0,0.0,0.0,0.0,0.0,0.0,0.0,0.0,0.0,0.0,0.0,0.0,0.0,0.0,0.0,0.0,0.0,0.0,1.4059,1.4232,1.4313,1.3841,1.2942,1.1709,1.0546,0.9645,0.9047,0.9208,0.0,0.0,0.0,0.0,0.0,0.0,0.0,0.0,0.0,0.0,0.0,0.0,0.0,0.0,0.0,0.0,0.0,0.0,0.0,0.0,0.0,0.0,0.0,0.0,0.0,0.0,0.0,0.0,0.0,0.0,0.0,0.0,0.0,0.0,0.0,0.0,0.0,0.0,1.6404,1.5056,1.3995,1.3213,1.3828,0.0,0.0,0.0,0.0,0.0,0.0,0.0,0.0,0.0,0.0,0.0,0.0,0.0,0.0,0.0,0.0,0.0,0.0,0.0,0.0,0.0,0.0,0.0,0.0,0.0,0.0,0.0,0.0,0.0,0.0,0.0,0.0,0.0,0.0,0.0,0.0,0.0,0.0,0.0,0.0,0.0,0.0,0.0,1.454,1.4435,0.0,0.0,0.0,0.0,0.0,0.0,0.0,0.0,0.0,0.0,0.0,0.0,0.0,1.3272,1.3303,1.4324,1.466,1.4424,1.558,1.5661,1.4815,1.5182,1.4318,1.2456,1.1905,0.0,0.9614,0.9862,0.0,0.0,0.0,0.0,0.0,0.0,0.0,0.0,0.0,0.0,0.0,0.0,0.0,0.0,0.0,0.0,0.0,0.0,0.0,0.0,0.0,0.0,0.0,0.0,0.0,0.0,0.0,0.0,0.0,0.0,0.0,0.0,0.0,0.0,0.0,0.0,1.8871,1.9253,1.8892,1.7808,1.7135,1.6841,1.6717,1.5159,1.2629,1.2584,0.0,0.0,0.0,0.0,0.0,0.0,0.0,0.0,0.0,0.0,0.0,0.0,0.0,0.0,0.0,0.0,0.0,0.0,0.0,0.0,0.0,0.0,0.0,0.0,0.0,0.0,0.0,0.0,0.0,0.0,0.0,0.0,0.0,0.0,0.0,0.0,0.0,0.0,0.0,1.5782,1.5922,1.4892,1.4572,1.3699,0.0,0.0,0.0,0.0,0.0,0.0,0.0,0.0,0.0,1.3797,1.4702,1.5156,1.5098,1.5644,1.5997,1.6074,1.6367,1.6258,1.5806,1.5684,1.5019,1.3923,1.3388,1.2659,1.173,1.0998,1.1543,1.2788,0.0,0.0,0.0,0.0,1.3047,1.3414,0.0,0.0,0.0,0.0,0.0,0.0,0.0,0.0,0.0,0.0,0.0,0.0,0.0,0.0,0.0,1.5507,0.0,0.0,0.0,0.0,0.0,0.0,0.0,0.0,0.0,0.0,0.0,0.0,2.1021,2.1512,2.0978,2.0244,1.966,1.9166,1.8426,1.6778,1.4536,1.426,1.3358,0.0,0.0,0.0,0.0,0.0,0.0,0.0,0.0,0.0,0.0,0.0,0.0,0.0,0.0,0.0,0.0,0.0,0.0,0.0,0.0,0.0,0.0,0.0,0.0,0.0,0.0,0.0,0.0,0.0,0.0,0.0,0.0,0.0,0.0,0.0,0.0,0.0,0.0,1.6757,1.6906,1.547,1.5226,1.4554,0.0,0.0,0.0,0.0,0.0,0.0,1.4993,1.583,1.6006,1.5362,1.6492,1.6916,1.6477,1.6613,1.6837,1.7076,1.668,1.6522,1.6466,1.6051,1.5531,1.4953,1.4541,1.4029,1.3484,1.2389,1.2968,1.4527,1.4235,1.479,1.5692,1.5202,1.5076,1.5052,0.0,0.0,0.0,0.0,0.0,0.0,0.0,0.0,0.0,0.0,0.0,0.0,0.0,0.0,1.8633,1.8751,1.8535,1.7416,0.0,0.0,0.0,0.0,0.0,0.0,0.0,0.0,0.0,2.1834,2.2693,2.2576,2.1524,2.0802,1.9912,1.8883,1.8155,1.7337,1.6538,1.6335,1.5395,1.3992,0.0,0.0,0.0,0.0,0.0,0.0,0.0,0.0,0.0,0.0,0.0,0.0,0.0,0.0,0.0,0.0,0.0,0.0,0.0,0.0,0.0,0.0,0.0,0.0,0.0,0.0,0.0,0.0,0.0,0.0,0.0,0.0,0.0,0.0,0.0,0.0,0.0,0.0,0.0,1.6622,1.716,0.0,0.0,0.0,0.0,1.4527,1.543,1.6296,1.6833,1.7563,1.8203,1.865,1.8734,1.8307,1.7248,1.7259,1.7034,1.6552,1.6522,1.6522,1.6522,1.6466,1.5899,1.4995,1.4953,1.46,1.4046,1.3978,1.4639,1.5737,1.5834,1.6427,1.7062,1.6025,1.6296,1.6913,0.0,0.0,0.0,0.0,0.0,0.0,0.0,0.0,0.0,0.0,0.0,0.0,0.0,1.8198,1.8697,1.8733,1.9114,1.8747,1.734,0.0,0.0,0.0,0.0,0.0,0.0,0.0,2.0788,2.1489,2.2424,2.2574,2.2027,2.1293,2.0747,2.0314,1.9063,1.891,1.9544,1.8475,1.7369,1.6343,1.5606,1.361,0.0,0.0,0.0,0.0,0.0,0.0,0.0,0.0,0.0,0.0,0.0,0.0,0.0,0.0,0.0,0.0,0.0,0.0,0.0,0.0,0.0,0.0,0.0,0.0,0.0,0.0,0.0,0.0,0.0,0.0,0.0,0.0,0.0,0.0,0.0,0.0,0.0,1.7876,1.7428,0.0,1.6773,1.6518,1.6323,1.6156,1.7574,1.8507,1.8714,1.8989,1.9218,1.943,1.9089,1.8755,1.8403,1.8074,1.7771,1.7601,1.7601,1.7413,1.7074,1.6622,1.6272,1.5954,1.5543,1.5477,1.5657,1.5657,1.5875,1.6297,1.6692,1.7227,1.7794,1.7773,1.7553,1.7208,0.0,0.0,0.0,0.0,0.0,0.0,0.0,0.0,0.0,0.0,0.0,1.749,1.7763,1.8526,1.9092,1.9254,1.9601,1.9194,1.7778,0.0,0.0,0.0,0.0,0.0,0.0,2.076,2.1814,2.1921,2.261,2.273,2.2293,2.1532,2.1123,2.0914,1.9791,1.9823,2.0722,1.9976,1.9261,1.8543,1.7726,1.5485,1.259,0.0,0.0,0.0,0.0,0.0,0.0,0.0,0.0,0.0,0.0,0.0,0.0,0.0,0.0,0.0,0.0,0.0,0.0,0.0,0.0,0.0,0.0,0.0,0.0,0.0,0.0,0.0,0.0,0.0,0.0,0.0,0.0,0.0,0.0,1.7058,1.7861,1.8328,1.7772,1.7522,1.7893,1.7599,1.7522,1.7893,1.9011,1.9794,2.0019,2.0034,1.995,1.9792,1.9419,1.9084,1.8727,1.838,1.8204,1.8204,1.8204,1.8016,1.7652,1.7002,1.6601,1.6359,1.6053,1.5985,1.616,1.6413,1.6494,1.6544,1.7087,1.763,1.8145,1.8496,1.8066,1.7271,0.0,0.0,0.0,0.0,0.0,0.0,0.0,0.0,0.0,0.0,1.6243,1.7589,1.8162,1.9167,2.0032,2.0573,2.0101,1.8768,1.6337,1.6875,0.0,0.0,0.0,0.0,2.1896,2.2444,2.2942,2.3431,2.341,2.3038,2.2299,2.1566,2.0988,2.0553,2.0157,1.9998,2.0045,2.0833,2.0971,2.0565,1.9504,1.7146,1.4257,0.0,0.0,0.0,0.0,0.0,0.0,0.0,0.0,0.0,0.0,0.0,0.0,0.0,0.0,0.0,0.0,0.0,0.0,0.0,0.0,0.0,0.0,0.0,0.0,0.0,0.0,0.0,0.0,0.0,0.0,0.0,0.0,0.0,1.5518,1.7862,1.9226,1.7951,1.8388,1.9016,1.966,1.9136,1.9031,1.9675,1.9735,2.0049,2.0669,2.0669,2.041,1.9903,1.9874,1.9329,1.8251,1.8242,1.8267,1.8279,1.8267,1.8254,1.8242,1.7689,1.7041,1.6255,1.646,1.6122,1.5517,1.6233,1.6547,1.659,1.7076,1.7626,1.8066,1.8066,1.7747,1.7188,0.0,0.0,0.0,0.0,0.0,0.0,0.0,0.0,0.0,0.0,1.6853,1.8617,1.863,1.9285,2.0047,2.0807,1.995,1.8992,1.8118,0.0,0.0,0.0,0.0,0.0,2.3162,2.3947,2.4368,2.4414,2.3731,2.3096,2.2495,2.1797,2.1599,2.177,2.0475,2.0557,2.1599,2.0659,2.0858,2.1787,2.113,1.9805,1.8104,0.0,0.0,0.0,0.0,0.0,0.0,0.0,0.0,0.0,0.0,0.0,0.0,0.0,0.0,0.0,0.0,0.0,0.0,0.0,0.0,0.0,0.0,0.0,0.0,0.0,0.0,0.0,0.0,0.0,0.0,0.0,1.9306,2.007,1.9301,1.9491,1.9914,2.0528,2.0333,2.0228,2.0423,2.0273,2.0243,2.0423,2.0872,2.1006,2.0738,2.0241,1.9701,1.9139,1.9111,1.8926,1.8655,1.9105,1.9572,1.9987,1.956,1.9359,1.9346,1.8807,1.8226,1.765,1.7723,1.7383,1.6853,1.7068,1.7149,1.7144,1.7245,1.7146,1.6993,1.7394,1.7188,1.6638,0.0,0.0,0.0,0.0,0.0,0.0,0.0,0.0,0.0,0.0,1.6619,1.8429,1.8537,1.9241,1.9979,2.0725,2.0083,1.9084,1.7839,0.0,0.0,0.0,0.0,2.2459,2.4655,2.5369,2.5406,2.4806,2.4264,2.3405,2.2329,2.194,2.1661,2.143,2.0854,2.0933,2.1444,2.1051,2.1341,2.2003,2.1928,2.105,1.979,1.9534,1.8767,1.7856,1.7786,1.7863,1.7883,1.6957,0.0,0.0,0.0,0.0,0.0,0.0,0.0,0.0,0.0,0.0,0.0,0.0,0.0,0.0,0.0,0.0,0.0,0.0,0.0,0.0,0.0,0.0,0.0,0.0,2.1145,2.2562,2.2742,2.171,2.1126,2.1635,2.1365,2.1126,2.1126,2.138,2.1425,2.1141,2.1979,2.2209,2.1514,2.1349,2.0766,1.9587,2.0038,1.9913,1.9131,2.0029,2.0677,2.1004,2.0665,2.0388,2.015,1.9597,1.8843,1.8025,1.8138,1.7844,1.727,1.7617,1.7727,1.771,0.0,0.0,0.0,0.0,1.6752,1.6434,0.0,0.0,0.0,0.0,0.0,0.0,0.0,0.0,0.0,0.0,0.0,1.7654,1.828,1.9125,1.9905,2.0547,2.0132,1.8914,0.0,0.0,0.0,2.1914,2.2956,2.4254,2.6052,2.6435,2.5998,2.4746,2.4751,2.384,2.2134,2.207,2.1518,2.0649,2.1375,2.1311,2.0769,2.1953,2.2283,2.1966,2.2387,2.1634,2.0314,2.0314,1.9525,1.8421,1.862,1.8533,1.8336,1.8104,0.0,0.0,0.0,0.0,0.0,0.0,0.0,0.0,0.0,0.0,0.0,0.0,0.0,0.0,0.0,0.0,0.0,0.0,0.0,0.0,0.0,0.0,0.0,0.0,2.2828,2.4268,2.554,2.4223,2.2877,2.2218,2.2069,2.2024,2.2024,2.2562,2.2652,2.2069,2.3061,2.3393,2.2683,2.3051,0.0,0.0,0.0,2.1381,1.9742,2.0879,2.1518,2.1581,2.1518,2.1267,2.0882,2.0188,1.9231,1.8125,1.832,1.7949,1.7282,1.8017,1.8292,1.8242,1.7614,1.7388,1.73,1.664,1.6409,1.6497,0.0,0.0,0.0,0.0,0.0,0.0,0.0,0.0,0.0,1.3599,1.5976,1.7899,1.905,1.9342,1.9881,2.0977,1.9001,1.7818,0.0,0.0,1.8745,2.315,2.3522,2.4401,2.5979,2.6108,2.557,2.4469,2.4302,2.383,2.3033,2.2474,2.2347,2.2473,2.2299,2.255,2.3062,2.3423,2.3744,2.3944,2.4052,2.3323,2.2186,2.2186,2.2188,2.2166,2.2189,2.2006,2.1589,2.0551,1.9878,1.9554,1.9772,0.0,0.0,0.0,0.0,0.0,0.0,0.0,0.0,0.0,0.0,0.0,0.0,0.0,0.0,0.0,0.0,0.0,0.0,0.0,0.0,2.3829,2.4672,2.5495,2.6288,2.6078,2.5585,2.4941,2.4388,2.4014,2.4014,2.4178,2.4193,2.4073,2.4227,2.4061,2.3431,2.2401,2.1388,2.0552,2.0767,2.0679,2.0341,2.1135,2.1707,2.2146,2.1707,0.0,2.1958,2.0953,2.0378,2.0103,1.9699,1.9183,1.8652,1.8769,1.8869,1.8769,1.7765,1.7388,1.7244,1.6068,1.6,1.6426,0.0,0.0,0.0,0.0,0.0,0.0,0.0,0.0,0.0,0.0,1.4908,1.6713,1.8227,1.7962,1.8293,1.9917,1.8455,0.0,0.0,2.0147,2.1523,2.4509,2.4782,2.5196,2.598,2.5726,2.5221,2.4389,2.4288,2.3802,2.2991,2.2671,2.2802,2.328,2.3285,2.3915,2.4908,2.5179,2.5429,2.5558,2.5186,2.47,2.4064,2.3339,2.2934,2.2747,2.2747,2.2634,2.2407,2.1755,2.1362,2.1177,2.1266,2.073,1.9756,0.0,0.0,0.0,0.0,0.0,0.0,0.0,0.0,0.0,0.0,0.0,0.0,0.0,0.0,2.1907,0.0,0.0,2.3743,2.5546,2.5963,2.6572,2.7904,2.8083,2.759,2.6258,2.6093,2.6093,2.6093,2.6093,2.5801,2.511,2.5336,2.4874,2.3514,2.3339,2.263,2.1342,2.2168,2.2219,2.1329,2.2261,2.2736,2.2723,2.2447,2.2309,2.2284,2.1455,2.0928,2.0693,2.0049,1.966,1.9409,1.9409,1.9409,1.9309,1.8216,1.779,1.771,1.6761,1.6422,1.6484,0.0,0.0,0.0,0.0,0.0,0.0,0.0,0.0,0.0,0.0,1.394,1.533,1.7003,1.6346,1.6376,0.0,0.0,0.0,0.0,2.2613,2.412,2.5744,2.5911,2.5961,2.5852,2.5335,2.4855,2.4441,2.4441,2.4048,2.3251,2.3251,2.3584,2.4186,2.4598,2.5447,2.6531,2.6958,2.7131,2.708,2.6505,2.6167,2.5913,2.4712,2.3528,2.2513,2.2513,2.2355,2.218,2.2282,2.2237,2.218,2.2282,2.231,2.1779,1.9081,1.9808,0.0,0.0,0.0,0.0,0.0,0.0,0.0,0.0,0.0,2.3734,2.4171,2.4032,2.3999,2.4526,2.4037,2.445,2.7142,2.7353,2.7769,2.952,2.9879,2.937,2.7739,2.7799,2.797,2.7835,2.7769,2.7217,2.5813,2.615,2.5631,2.3751,2.4504,2.4222,2.2493,2.3887,2.3912,2.23,2.3318,2.359,2.3078,2.3078,2.284,2.2447,2.1895,2.1343,2.0844,2.01,1.9798,1.9798,1.9798,1.9748,1.956,1.8706,1.8242,1.7978,1.7413,1.6986,1.6748,0.0,0.0,0.0,0.0,0.0,0.0,0.0,0.0,0.0,0.0,0.0,0.0,0.0,0.0,0.0,0.0,0.0,0.0,2.0077,2.222,2.434,2.6471,2.6212,2.5779,2.5297,2.4736,2.4548,2.4597,2.4597,2.4822,2.5285,2.5285,2.5621,2.6181,2.6735,2.7316,2.8004,2.8505,2.8757,2.8757,2.8636,2.818,2.7554,2.735,2.5642,2.3274,2.3274,2.2584,2.1718,2.2163,2.2032,2.1764,2.218,2.231,2.1972,2.0247,0.0,2.0192,1.695,1.6059,1.7053,2.1049,2.2433,2.371,0.0,0.0,2.8089,2.7492,2.8017,2.8556,2.8633,2.8708,2.8869,2.9229,2.9304,2.952,3.0298,3.0926,3.1168,3.1001,3.0013,2.9131,2.8547,2.8487,2.7928,2.6491,2.6301,2.5826,2.4965,2.4871,2.4532,2.3789,2.3954,2.3715,2.3009,2.3138,2.3201,2.3078,2.3078,2.304,2.2965,2.2472,2.192,2.1343,2.0263,1.9798,1.9798,1.9798,1.9522,1.9058,1.8982,1.8342,1.74,1.6823,1.6898,1.73,0.0,0.0,0.0,0.0,0.0,0.0,0.0,0.0,0.0,0.0,0.0,0.0,0.0,0.0,0.0,0.0,0.0,0.0,2.0064,2.2503,2.4638,2.6318,2.5924,2.5543,2.5325,2.4814,2.473,2.5196,2.5196,2.5345,2.5615,2.6004,2.6902,2.8262,2.8882,2.9929,3.123,3.1466,3.1345,3.095,3.0517,2.9902,2.9059,2.7886,2.6405,2.473,2.3541,2.2515,0.0,0.0,2.099,2.1127,2.172,2.1373,2.0679,2.012,1.9567,0.0,1.8658,2.007,0.0,0.0,2.6588,2.8748,3.032,3.0791,3.0838,3.0532,3.0492,3.051,3.051,2.9705,2.952,0.0,3.0627,3.0612,3.2048,3.2497,3.2542,3.2153,3.0926,2.9714,2.8697,2.9265,2.8833,2.6664,2.668,2.6481,2.5712,2.5409,2.5172,2.4933,2.5247,2.5008,2.413,2.4117,2.3791,2.3078,2.3078,2.3078,2.3053,2.256,2.1832,2.0966,2.015,1.9798,1.9773,1.9472,1.9221,1.8945,1.8681,1.8455,1.8229,1.735,1.6961,1.6974,0.0,0.0,0.0,0.0,0.0,0.0,0.0,0.0,0.0,0.0,0.0,0.0,0.0,0.0,0.0,0.0,0.0,0.0,0.0,2.2422,2.4612,2.611,2.5884,2.5694,2.5694,2.5153,2.5315,2.6153,2.6153,2.6429,2.7016,2.75,2.8653,3.0344,3.0817,3.1957,3.3406,3.322,3.284,3.2327,3.1606,3.088,3.0071,2.8437,2.68,2.5138,2.3031,2.174,0.0,0.0,1.9599,1.9932,2.0494,2.0135,1.9452,1.9194,1.8177,1.7628,1.9809,0.0,0.0,2.6616,2.9448,3.1976,3.273,3.274,3.269,3.2887,3.2408,3.1986,3.1986,3.087,3.0567,3.2482,3.1973,3.1839,3.329,3.3499,3.3051,3.1854,3.0836,2.9445,2.7425,2.8891,2.9174,2.7155,2.7499,2.7456,2.6727,2.6594,2.6439,2.6284,2.637,2.5919,2.495,2.4558,2.3941,2.3078,2.3078,2.3078,2.3053,2.2397,2.1644,2.0853,2.0125,1.9798,1.9773,1.9397,1.9108,1.8933,1.8593,1.8581,1.8706,1.7903,1.7338,1.7099,0.0,0.0,0.0,0.0,0.0,0.0,0.0,0.0,0.0,0.0,0.0,0.0,0.0,0.0,0.0,0.0,0.0,0.0,0.0,2.1616,2.4136,2.6094,2.6295,2.6346,2.6346,2.5833,2.6213,2.7565,2.7565,2.8551,3.0452,3.0468,3.1164,3.243,3.2446,3.2807,3.3364,3.2707,3.2422,3.2331,3.1677,3.1007,3.0304,2.9614,2.7083,2.3676,2.1478,0.0,0.0,1.8127,1.7914,1.8037,1.8237,1.8641,0.0,1.7539,1.6266,1.5984,1.9307,0.0,2.1739,2.6646,2.9215,3.1219,3.3761,3.3866,3.364,3.4264,3.3878,3.3456,3.3456,3.3365,3.338,3.3455,3.344,3.3425,3.3484,3.3499,3.2542,2.9968,2.9639,2.8068,2.4133,2.6737,2.8595,2.8365,2.8915,2.8921,2.8199,2.8643,2.8636,2.8118,2.6822,2.5818,2.5196,2.3837,2.3103,2.3078,2.3078,2.3078,2.304,2.2008,2.1493,2.1405,2.0288,1.9798,1.9798,1.9786,1.9484,1.8983,1.8958,1.8681,1.8229,1.8191,1.8166,1.8154,0.0,0.0,0.0,0.0,0.0,0.0,0.0,0.0,0.0,0.0,0.0,0.0,0.0,0.0,0.0,0.0,0.0,0.0,0.0,2.0088,2.2409,2.4376,2.5819,2.6726,2.7179,2.6999,2.756,2.8906,2.8906,2.9507,3.0627,3.1058,3.1942,3.3267,3.37,3.4024,3.4163,3.3978,3.334,3.2471,3.1809,3.0794,2.9317,2.6089,2.3803,2.1664,0.0,0.0,0.0,1.5506,1.5374,1.5752,1.6478,1.6212,1.543,1.4207,1.5395,1.7424,1.8776,0.0,2.5416,2.8021,3.1345,3.4055,3.4384,3.5068,3.5436,3.4653,3.2788,3.1122,3.0652,2.9849,2.9697,3.1046,3.105,3.1659,3.3844,3.1898,3.0567,3.142,2.9579,0.0,0.0,0.0,2.8204,2.7299,2.8926,2.9892,2.9636,2.9205,2.8906,2.8761,2.7373,2.636,2.5826,2.4387,2.3514,2.3078,2.3078,2.3078,2.3027,2.1995,2.1493,2.143,2.0288,1.9798,1.9773,1.9434,1.9183,1.8945,1.8631,1.8367,1.8242,1.8618,1.8292,1.7714,0.0,0.0,0.0,0.0,0.0,0.0,0.0,0.0,0.0,0.0,0.0,0.0,0.0,0.0,0.0,0.0,0.0,0.0,0.0,0.0,1.9679,2.1701,2.329,2.4395,2.4996,2.5612,2.6599,2.7936,2.8823,2.9803,3.0964,3.1663,3.2519,3.3615,3.4023,3.4235,3.4203,3.3448,3.2494,3.1382,2.9629,2.8068,2.6358,2.2715,2.0398,0.0,0.0,0.0,1.3926,1.3358,1.3474,1.4016,1.477,1.4313,1.3635,1.4248,1.5898,1.8006,2.015,2.3803,2.7482,2.9479,3.2273,3.451,3.4195,3.5101,3.566,3.4408,3.268,3.0991,2.9811,2.8834,2.8553,2.9394,2.9705,3.0579,3.2781,3.0881,2.9744,3.0971,2.9235,2.8427,0.0,0.0,0.0,2.738,2.8803,2.9681,2.9681,2.8914,2.885,2.9519,2.7701,2.6566,2.6236,2.4545,2.3502,2.3078,2.2937,2.2836,2.2811,2.1694,2.1075,2.0765,2.0076,1.9674,1.9444,1.9321,1.9309,1.9246,1.8706,1.8505,1.8518,1.8681,1.8166,1.7463,0.0,0.0,0.0,0.0,0.0,0.0,0.0,0.0,0.0,0.0,0.0,0.0,0.0,0.0,0.0,0.0,0.0,0.0,0.0,0.0,0.0,1.8413,1.9169,1.9849,2.0415,2.2032,2.3487,2.4834,2.7128,2.9251,3.1207,3.1805,3.2441,3.3083,3.3067,3.3016,3.2867,3.0907,2.9717,2.8846,2.5303,2.3196,2.1844,1.9554,0.0,0.0,0.0,0.0,0.0,0.0,0.0,0.0,1.3519,1.3337,1.3653,1.7324,1.7668,1.7971,2.3134,2.5795,2.7764,3.0729,3.2003,3.269,3.3322,3.4073,3.438,3.3487,3.3279,3.2662,0.0,0.0,2.9531,2.8651,2.9392,3.0151,3.0488,3.0417,2.9894,0.0,0.0,0.0,0.0,0.0,0.0,2.8607,2.8697,2.8727,2.8697,2.8068,2.8562,3.0332,2.7783,2.6339,2.6311,2.4138,2.299,2.2977,2.2523,2.2272,2.2234,2.1154,2.0322,1.9646,1.9775,1.9444,1.889,1.9534,1.9761,1.971,1.9158,1.8895,1.8882,1.8355,1.7815,1.7413,0.0,0.0,0.0,0.0,0.0,0.0,0.0,0.0,0.0,0.0,0.0,0.0,0.0,0.0,0.0,0.0,0.0,0.0,0.0,0.0,0.0,0.0,0.0,0.0,0.0,0.0,0.0,0.0,2.3054,2.4109,2.547,2.53,2.5576,2.6212,2.5841,2.5379,2.4858,2.4334,2.3706,2.3006,0.0,2.0772,1.9384,0.0,0.0,0.0,0.0,0.0,0.0,0.0,0.0,0.0,0.0,1.7508,1.7685,1.813,1.9862,2.1931,2.3268,2.5864,2.8586,3.0323,3.1302,3.2037,3.263,3.3297,3.3183,3.1035,2.9249,2.7287,0.0,0.0,0.0,2.705,2.7089,0.0,3.0836,2.9146,0.0,2.919,0.0,2.9041,3.0163,3.0582,0.0,2.8712,2.9953,3.0567,3.0043,2.9849,2.9525,2.8939,2.7258,2.5903,2.4926,2.2935,2.1907,2.1907,2.1769,2.1694,2.1681,2.1033,2.0608,2.0422,1.9976,1.9686,1.9522,1.9321,1.9221,1.9133,1.8179,1.7802,1.779,1.7639,1.7225,1.6823,0.0,0.0,0.0,0.0,0.0,0.0,0.0,0.0,0.0,0.0,0.0,0.0,0.0,0.0,0.0,0.0,0.0,0.0,0.0,0.0,0.0,0.0,0.0,0.0,0.0,0.0,0.0,0.0,0.0,0.0,2.16,2.179,2.2026,2.2206,2.2104,2.1636,2.0873,2.024,0.0,0.0,0.0,0.0,0.0,0.0,0.0,0.0,0.0,0.0,0.0,0.0,0.0,1.6881,1.9735,2.0644,2.0813,2.1843,0.0,2.424,2.4976,2.6841,2.8771,2.949,3.0416,3.0936,3.0256,3.0991,3.1047,2.8217,2.6489,0.0,2.2778,2.2263,2.3016,0.0,0.0,0.0,2.9804,2.8128,2.7335,0.0,2.9011,0.0,3.1287,3.1482,3.0956,2.9535,2.9654,2.9624,2.9235,2.8373,2.7896,2.7992,2.6384,2.4811,2.3482,2.2178,2.1493,2.1493,2.1242,2.1281,2.1514,2.0699,2.0182,1.9908,1.9572,1.9144,1.8665,1.8629,1.8668,1.8581,1.7714,1.7388,1.735,1.7099,1.6798,1.6559,0.0,0.0,0.0,0.0,0.0,0.0,0.0,0.0,0.0,0.0,0.0,0.0,0.0,0.0,0.0,0.0,0.0,0.0,0.0,0.0,0.0,0.0,0.0,0.0,0.0,0.0,0.0,0.0,0.0,0.0,0.0,0.0,0.0,0.0,0.0,0.0,0.0,0.0,0.0,0.0,0.0,0.0,0.0,0.0,0.0,0.0,0.0,0.0,0.0,0.0,1.956,1.9179,2.2501,2.3329,2.3594,2.6246,2.617,2.554,2.7031,2.7925,2.8487,2.8577,2.943,2.9763,2.7746,2.8319,2.8434,2.5402,0.0,2.394,2.2544,2.2773,2.3473,2.4537,0.0,2.6763,2.8135,2.756,2.7575,2.9131,2.8854,2.9319,3.133,3.1135,3.0818,3.0522,2.8771,2.7709,2.7709,2.6029,2.5697,2.7035,2.5018,2.3373,2.2209,2.168,2.1458,2.1534,2.0977,2.0964,2.1365,2.022,1.9378,1.8803,1.8849,1.8278,1.7372,1.7898,1.8091,1.8041,1.7488,1.7262,1.7212,1.6697,1.6522,1.6522,0.0,0.0,0.0,0.0,0.0,0.0,0.0,0.0,0.0,0.0,0.901,0.9619,0.0,0.0,0.0,0.0,0.0,0.0,0.0,0.0,0.0,0.0,0.0,0.0,0.0,0.0,0.0,0.0,0.0,0.0,0.0,0.0,0.0,0.0,0.0,0.0,0.0,0.0,0.0,0.0,0.0,0.0,0.0,0.0,0.0,0.0,0.0,0.0,0.0,0.0,2.0544,2.2199,2.5458,2.6769,2.6972,2.6391,2.6549,2.6885,2.6596,2.7167,2.7889,2.8457,2.8771,2.8816,2.8456,2.771,0.0,0.0,2.2636,2.1799,2.0399,2.1122,2.2672,2.4974,2.5537,2.5977,2.6837,2.8173,2.8771,0.0,2.8102,2.9076,3.1285,2.929,0.0,3.0342,2.9205,2.8427,2.8427,2.8085,2.701,2.5059,2.3076,2.1888,2.1631,2.1185,2.1146,2.1551,2.1028,2.0604,2.0241,1.9481,1.8854,1.8321,1.8349,1.8226,1.7983,1.7672,1.7526,1.7463,1.6898,1.6672,1.666,1.6559,1.6522,1.6522,0.0,0.0,0.0,0.0,0.0,0.0,0.0,0.0,0.7452,0.8614,0.8631,0.8951,1.0103,1.0017,0.0,0.0,0.0,0.0,0.0,0.0,0.0,0.0,0.0,0.0,0.0,0.0,0.0,0.0,0.0,0.0,0.0,0.0,0.0,0.0,0.0,0.0,0.0,0.0,0.0,0.0,0.0,0.0,0.0,0.0,0.0,0.0,0.0,0.0,0.0,0.0,1.9874,2.2205,2.6429,2.8023,2.7987,2.6625,2.6829,2.7226,2.623,2.6751,2.77,2.7979,2.8338,2.8015,2.5772,0.0,0.0,0.0,1.9471,1.9016,1.8658,1.9432,0.0,2.3587,2.4273,2.5098,2.6858,2.7645,2.8163,2.8607,2.8447,2.8701,2.9622,2.8449,2.7799,2.8193,2.7663,2.7685,2.8547,2.7252,2.5519,2.3487,2.1921,2.1054,2.1054,2.0526,2.0386,2.0643,2.0104,1.9937,1.9972,1.8996,1.8469,1.8216,1.7903,1.7377,1.6752,1.6898,1.6726,1.6357,1.6451,1.6522,1.6522,1.6522,1.6522,1.6522,0.0,0.0,0.0,0.0,0.0,0.0,0.0,0.6996,0.7223,0.8328,0.8014,0.8063,0.8998,0.9267,0.9514,0.0,0.0,0.0,0.0,0.0,0.0,0.0,0.0,0.0,0.0,0.0,0.0,0.8422,0.0,0.0,0.0,0.0,0.0,0.0,0.9416,0.0,0.0,0.0,0.0,0.0,0.0,0.0,0.0,0.0,0.0,0.0,0.0,0.0,0.0,0.0,1.8549,2.074,2.5299,2.7042,2.7174,2.6153,2.6471,2.6934,2.6221,2.6677,2.7415,2.7415,2.7664,2.6905,2.2894,2.2124,0.0,0.0,1.6848,1.6838,1.7621,1.8194,1.9409,0.0,2.2537,2.3708,2.6717,2.6582,2.7041,0.0,2.8875,0.0,2.8596,2.8149,0.0,2.6482,2.6144,2.6613,2.807,2.582,2.3864,2.2484,2.1307,2.0718,2.0718,2.0243,2.0003,1.9991,1.9458,1.9355,1.9588,1.8533,1.8009,1.7912,1.7397,1.6532,1.5465,1.6195,1.6074,1.5452,1.6207,1.6522,1.6522,1.6522,1.6522,1.6522,0.0,0.0,0.0,0.0,0.0,0.0,0.0,0.6881,0.6732,0.7033,0.6867,0.6934,0.7463,0.8638,0.9408,0.0,0.0,0.0,0.0,0.0,0.0,0.0,0.0,0.0,0.0,0.0,0.0,0.8499,0.8389,0.0,0.0,0.0,0.0,0.0,0.0,0.9576,0.959,0.0,0.0,0.0,0.0,0.0,0.0,0.0,0.0,0.0,0.0,0.0,0.0,0.0,0.0,1.8232,2.086,2.2753,2.4037,2.3909,0.0,0.0,2.713,2.7036,2.6677,2.6677,2.6273,2.5044,2.2005,0.0,0.0,1.7247,1.6393,1.6517,1.7741,1.8023,0.0,0.0,0.0,2.1283,2.5171,2.5478,2.6361,2.9232,0.0,0.0,3.0118,2.841,2.7229,2.737,2.6196,2.5847,2.665,2.5314,2.3917,2.2644,2.136,2.0718,2.0718,2.0707,2.0696,2.0696,2.0167,1.9416,1.8415,1.7753,1.7181,1.667,1.6597,1.615,1.5465,1.6195,1.6074,1.5452,1.6207,1.6522,1.6522,1.6522,1.6522,1.6522,0.0,0.0,0.0,0.0,0.0,0.0,0.6558,0.6807,0.698,0.7022,0.6814,0.6882,0.7482,0.8067,0.8702,0.0,0.0,0.0,0.0,0.0,0.0,0.0,0.0,0.0,0.0,0.0,0.0,0.7296,0.7043,0.0,0.0,0.0,0.0,0.0,0.0,0.9465,0.9298,0.0,0.0,0.0,0.0,0.0,0.0,0.0,0.0,0.0,0.0,0.0,0.0,0.0,0.0,0.0,1.6318,1.7516,0.0,0.0,2.2901,2.419,2.4985,2.5869,2.6587,2.6587,2.5794,2.4119,2.0749,0.0,1.8834,1.5534,1.5001,1.5277,1.5779,1.609,1.6902,0.0,0.0,0.0,2.4224,2.4918,2.6175,2.9124,2.9041,0.0,0.0,0.0,2.7413,2.6703,2.6378,2.6086,2.5943,2.4291,2.2803,2.1572,2.0604,2.015,2.015,2.0169,2.0041,1.972,1.9512,1.8988,1.8226,1.7626,1.7213,1.6951,1.6637,1.5825,1.4782,1.5985,1.5786,1.4787,1.6023,1.6522,1.6522,1.6522,1.6522,1.6522,0.0,0.0,0.0,0.0,0.0,0.6086,0.6335,0.6634,0.6847,0.6921,0.6615,0.6623,0.7281,0.7589,0.8112,0.9058,0.0,0.0,0.0,0.0,0.0,0.0,0.0,0.0,0.0,0.0,0.0,0.6488,0.6213,0.6566,0.0,0.0,0.7526,0.8409,0.0,0.0,0.0,0.0,0.0,0.0,0.0,0.0,0.0,0.0,0.0,0.0,0.0,0.0,0.0,0.0,0.0,0.0,0.0,0.0,0.0,0.0,2.0709,2.2494,2.2995,2.4435,2.5722,2.5722,2.4376,2.2204,0.0,0.0,1.6746,1.369,1.3462,1.3864,1.4042,1.4379,1.5162,0.0,0.0,1.9921,2.3267,2.423,2.5755,2.8693,0.0,2.8825,2.8556,2.8303,2.7795,2.6864,2.6695,2.6117,2.4989,2.3639,2.2441,2.1372,2.0335,1.9991,2.037,1.9977,1.962,1.9261,1.9093,1.8409,1.7302,1.7313,1.6994,1.6454,1.6661,1.5905,1.4679,1.631,1.6112,1.4897,1.6242,1.6752,1.671,1.6552,1.6522,1.6522,0.0,0.0,0.0,0.0,0.0,0.0,0.0,0.6285,0.6057,0.6461,0.5987,0.5827,0.6448,0.7159,0.7836,0.8442,0.0,0.0,0.0,0.0,0.0,0.0,0.0,0.0,0.0,0.0,0.0,0.6488,0.6488,0.67,0.7118,0.7023,0.7472,0.8368,0.0,0.0,0.0,0.0,0.0,0.0,0.0,0.0,0.0,0.0,0.0,0.0,0.0,0.0,0.0,0.0,0.0,0.0,0.0,0.0,0.0,0.0,1.8166,2.1084,2.1913,2.286,2.3616,2.3616,2.1463,1.8724,0.0,0.0,1.3582,1.1972,1.1932,1.2383,1.2926,1.329,1.396,1.5301,0.0,0.0,2.2174,2.3304,2.4917,0.0,0.0,2.8287,2.949,2.8873,2.8367,2.8352,2.7159,2.5605,2.3699,2.3602,2.3299,2.2614,2.0783,2.0421,2.1649,2.0454,1.9821,1.9901,1.9209,1.7605,1.5257,1.6677,1.6258,1.4549,1.6454,1.6559,1.5527,1.7338,1.7298,1.6155,1.697,1.7312,1.7229,1.671,1.6522,1.6522,0.0,0.0,0.0,0.0,0.0,0.0,0.0,0.5918,0.599,0.5669,0.5522,0.582,0.675,0.7147,0.7806,0.9004,0.0,0.0,0.0,0.0,0.0,0.0,0.0,0.0,0.0,0.0,0.0,0.6836,0.6622,0.685,0.7501,0.7492,0.7763,0.8368,0.9632,0.0,0.0,0.0,0.0,0.0,0.0,0.0,0.0,0.0,0.0,0.0,0.0,0.0,0.0,0.0,0.0,0.0,0.0,0.0,0.0,0.0,0.0,0.0,1.8204,1.9033,1.9528,1.9131,1.796,1.6319,1.4069,0.0,1.3111,1.1869,1.2,1.2494,1.3042,1.3324,1.4314,1.6789,1.7726,0.0,0.0,0.0,0.0,2.8748,2.977,3.0279,0.0,2.8803,2.8076,2.8521,2.731,2.6126,2.5029,2.4595,2.3639,2.2042,2.1423,2.128,2.1697,2.0899,2.0311,1.9887,1.9209,1.8032,1.6374,1.7007,1.6652,1.5604,1.6423,1.625,1.5465,1.658,1.6453,1.5704,1.6443,1.6752,1.671,1.6552,1.6522,1.6522,0.0,0.0,0.0,0.0,0.0,0.0,0.0,0.5702,0.5975,0.5736,0.5753,0.6195,0.7172,0.7448,0.7972,0.8977,0.0,0.0,0.0,0.0,0.0,0.0,0.0,0.0,0.0,0.6685,0.6855,0.7249,0.7041,0.7207,0.7715,0.7715,0.783,0.8119,0.939,0.0,0.0,0.0,0.0,0.0,0.0,0.0,1.0171,0.0,0.0,0.0,0.0,0.0,0.0,0.0,0.0,0.0,0.0,0.0,0.0,0.0,1.1391,1.3295,0.0,1.5808,1.6529,1.6305,1.5267,0.0,0.0,0.0,1.1867,1.1507,1.2133,1.2758,1.2961,1.3637,1.4621,1.6126,1.772,0.0,0.0,0.0,0.0,2.7861,0.0,0.0,0.0,2.9093,2.8446,2.8599,2.7893,2.6903,2.5691,2.5414,2.4449,2.2498,2.1722,2.1611,2.2081,2.0964,2.0302,2.0214,1.9532,1.8378,1.6851,1.7557,1.7129,1.5801,1.6718,1.6604,0.0,1.6749,1.6701,1.6153,1.661,1.6795,1.6795,1.6552,1.6522,1.6522,0.0,0.0,0.0,0.0,0.0,0.0,0.0,0.0,0.594,0.6421,0.6493,0.6806,0.7676,0.8058,0.8336,0.8536,0.0,0.0,0.0,0.0,0.0,0.0,0.0,0.0,0.0,0.7206,0.7656,0.7772,0.7772,0.7772,0.7734,0.7734,0.7715,0.7695,0.8955,0.9489,0.0,0.0,0.0,0.0,0.0,0.0,0.0,0.0,0.0,0.0,0.0,0.0,0.0,0.0,0.0,0.0,0.0,0.0,0.0,0.0,0.0,0.0,0.0,1.3012,0.0,0.0,0.0,0.0,0.0,0.0,0.0,1.1147,1.2316,1.3132,1.2945,1.4206,1.499,1.4082,1.7078,0.0,0.0,2.2755,0.0,0.0,2.676,0.0,2.9064,2.9325,2.916,2.8502,2.8457,2.7604,2.5691,2.5955,2.5418,2.3651,2.1769,2.1396,2.2682,2.0735,2.0011,2.0482,1.9922,1.8544,1.6542,1.8086,1.7472,1.5325,1.718,1.7435,1.6552,1.7545,1.7652,1.7177,1.7177,1.7177,1.7136,1.6655,1.6522,1.6522,0.0,0.0,0.0,0.0,0.0,0.0,0.0,0.0,0.0,0.0,0.6429,0.6952,0.8398,0.8607,0.8799,0.0,0.0,0.0,0.0,0.0,0.0,0.0,0.0,0.0,0.0,0.6862,0.7909,0.8529,0.8529,0.8378,0.8076,0.8076,0.7752,0.722,0.8121,0.8549,0.8581,0.0,0.0,0.0,0.0,0.0,0.0,0.0,0.0,0.0,1.0637,1.0296,0.0,0.0,0.0,0.0,0.0,0.0,0.0,0.0,0.8773,0.8659,0.9074,0.0,1.0528,1.0171,1.0213,1.0262,0.0,0.0,0.0,0.0,0.0,1.3534,1.4638,1.5478,1.6027,1.6192,0.0,1.9544,2.156,0.0,0.0,2.5098,2.774,2.8523,2.5515,2.6954,2.7769,2.7111,2.7066,2.66,2.5523,2.468,2.4013,2.3446,2.1685,2.1355,2.2709,2.1193,1.9765,1.8411,1.8883,1.7505,1.4612,1.6704,1.6809,1.5417,1.6408,1.671,1.6484,1.6335,1.6196,1.6087,1.6087,1.6087,1.6125,1.6401,1.6522,1.6522,0.0,0.0,0.0,0.0,0.0,0.0,0.0,0.0,0.0,0.0,0.0,0.0,0.0,0.0,0.0,0.0,0.0,0.0,0.0,0.0,0.0,0.0,0.0,0.0,0.6291,0.7831,0.8834,0.9269,0.9269,0.8885,0.8154,0.7798,0.7231,0.6545,0.7346,0.782,0.8033,0.8138,0.8138,0.8091,0.8953,0.0,0.0,0.0,0.0,0.0,1.0332,0.9945,0.0,0.859,0.8586,0.8949,0.0,0.0,0.0,0.0,0.8449,0.829,0.829,0.8589,0.901,0.9513,0.9647,0.9773,0.0,0.0,0.0,0.0,0.0,1.3582,1.4708,1.5412,0.0,0.0,1.8082,0.0,0.0,0.0,2.606,2.4358,2.5823,2.6291,2.4587,2.6103,2.6841,2.6183,2.6138,2.5694,2.463,2.4204,2.3549,2.2629,2.1622,2.1303,2.1769,2.0767,1.9339,1.7525,1.8446,1.7553,1.5128,1.6894,1.717,1.6258,1.6177,1.614,1.6095,1.5542,1.5316,1.5367,1.5869,1.5919,1.5756,1.6308,1.6522,1.6522,0.0,0.0,0.0,0.0,0.0,0.0,0.0,0.0,0.0,0.0,0.0,0.0,0.0,0.0,0.0,0.0,0.0,0.0,0.0,0.0,0.0,0.0,0.0,0.6985,0.7675,0.9051,0.977,0.978,0.9831,0.9253,0.8091,0.7406,0.6665,0.5952,0.6601,0.7216,0.7754,0.8354,0.8269,0.7812,0.9116,0.0,0.0,0.0,0.0,0.0,0.0,0.0,0.0,0.8006,0.7881,0.821,0.7822,0.0,0.0,0.0,0.0,0.0,0.8365,0.8421,0.8875,1.0586,1.0228,0.9846,1.1278,0.0,0.0,0.0,0.0,0.0,0.0,1.5509,0.0,0.0,0.0,0.0,2.2848,2.3894,2.4202,2.3689,2.3505,2.3763,2.456,2.5696,2.6216,2.5588,2.5497,2.4957,2.3746,2.3871,2.3259,2.1732,2.1397,2.1008,2.0557,1.9974,1.8841,1.7233,1.8375,1.7996,1.6324,1.7463,1.7706,1.7136,1.6205,1.5789,1.5655,1.5103,1.4916,1.5004,1.5906,1.6032,1.5756,1.6308,1.6522,1.6522,0.0,0.0,0.0,0.0,0.0,0.0,0.0,0.0,0.0,0.0,0.0,0.0,0.0,0.0,0.0,0.0,0.0,0.0,0.0,0.0,0.0,0.0,0.7705,0.7625,0.8001,0.9088,0.9627,0.9644,0.9967,0.9438,0.8101,0.7705,0.7006,0.606,0.6014,0.6644,0.7695,0.7831,0.7802,0.7754,0.8308,0.0,0.0,0.0,0.0,0.0,0.0,0.0,0.0,0.7676,0.735,0.7341,0.7988,0.0,0.0,0.0,0.0,0.0,0.8651,0.8965,0.9509,1.0707,1.0412,1.0141,1.1324,0.0,0.0,0.0,0.0,0.0,0.0,1.8414,1.9236,0.0,0.0,2.2532,0.0,0.0,2.6315,2.3139,0.0,2.5666,2.2692,2.4446,2.565,2.5459,2.5032,2.4557,2.4141,2.2832,2.1933,2.1549,2.0497,1.9948,1.9839,1.9735,1.8726,1.6813,1.8223,1.7632,1.5371,1.6798,1.7105,1.6625,1.646,1.6128,1.5655,1.5103,1.4916,1.4928,1.5104,1.5354,1.5756,1.6308,1.6522,1.6522,0.0,0.0,0.0,0.0,0.0,0.0,0.0,0.0,0.0,0.0,0.0,0.0,0.0,0.0,0.0,0.0,0.0,0.0,0.0,0.0,0.0,0.0,0.9229,0.9392,0.9348,1.0211,1.0745,1.0904,1.0597,0.9629,0.7969,0.64,0.547,0.519,0.5607,0.6493,0.7725,0.7928,0.7899,0.7773,0.0,0.0,0.0,0.0,0.0,0.0,0.0,0.0,0.0,0.0,0.6976,0.6758,0.691,0.0,0.0,0.0,0.0,0.0,0.8585,0.9078,0.9809,1.1699,1.1057,1.0508,1.2864,0.0,0.0,0.0,0.0,0.0,0.0,0.0,1.8252,1.9537,0.0,2.4387,2.5195,2.5661,2.5339,0.0,2.4417,2.4427,2.2757,2.4341,2.5224,2.4481,2.4143,2.3626,2.2879,2.1773,2.0971,2.0553,1.9984,1.969,1.969,1.969,1.8791,1.704,1.8016,1.7419,1.5472,1.6151,1.6472,1.6446,1.5226,1.494,1.5178,1.4337,1.3986,1.4048,1.4676,1.5067,1.5354,1.6208,1.6522,1.6522,0.0,0.0,0.0,0.0,0.0,0.0,0.0,0.0,0.0,0.0,0.0,0.0,0.0,0.0,0.0,0.0,0.0,0.0,0.0,0.0,1.0118,0.964,1.052,1.0778,1.0306,1.127,1.1795,1.1839,1.0883,0.9341,0.7225,0.4922,0.4017,0.4334,0.5159,0.622,0.7442,0.7753,0.7725,0.7611,0.0,0.0,0.0,0.0,0.0,0.0,0.0,0.0,0.0,0.0,0.0,0.0,0.0,0.0,0.0,0.6785,0.7134,0.7576,0.851,0.9215,1.0175,1.238,0.0,1.0871,1.4148,0.0,0.0,0.0,0.0,0.0,0.0,1.6192,0.0,2.1565,2.3815,2.5168,2.5557,2.5129,2.4765,2.4737,2.4158,2.3733,2.3707,2.4616,2.481,2.4036,2.3544,2.283,2.1892,2.1143,2.0393,1.9705,1.969,1.969,1.969,1.9566,1.8882,1.7684,1.7843,1.7211,1.587,1.5632,1.5731,1.6032,1.435,1.4023,1.4651,1.3867,1.3547,1.3636,1.4633,1.5082,1.531,1.6048,1.6409,1.6497,0.0,0.0,0.0,0.0,0.0,0.0,0.0,0.0,0.0,0.0,0.0,0.0,0.0,0.0,0.0,0.0,0.0,0.0,0.0,0.0,1.0729,1.1467,1.1172,1.0712,1.0032,1.1555,1.2024,1.1353,1.0175,0.8149,0.5361,0.3978,0.3607,0.4034,0.4497,0.5387,0.6579,0.6601,0.6771,0.7016,0.7661,0.0,0.0,0.0,0.0,0.0,0.0,0.0,0.0,0.0,0.0,0.0,0.0,0.0,0.6241,0.64,0.7241,0.82,0.8596,0.9695,1.0922,1.1858,1.1214,0.0,1.4221,1.2563,0.0,1.4906,0.0,0.0,0.0,1.7903,1.8898,2.1659,2.2845,2.4112,2.6189,0.0,2.6949,2.6474,2.6153,2.5803,2.5304,2.4751,2.4639,2.5067,2.364,2.2637,2.2368,2.1303,2.0393,1.9705,1.969,1.969,1.969,1.9207,1.8887,1.8786,1.7801,1.7033,1.6414,1.5402,1.4991,1.5016,1.4865,1.4538,1.4172,1.4466,1.4603,1.4638,1.51,1.5657,1.6166,1.5881,1.6082,1.6446,0.0,0.0,0.0,0.0,0.0,0.0,0.0,0.0,0.0,0.0,0.0,0.0,0.0,0.0,0.0,0.0,0.0,0.0,0.0,0.0,1.1139,1.1559,1.1524,1.1448,1.1362,1.1319,1.1406,1.1678,0.9342,0.6617,0.3579,0.2754,0.2813,0.3652,0.4295,0.5293,0.6488,0.6488,0.6655,0.6975,0.7838,0.836,0.0,0.0,0.0,0.0,0.0,0.0,0.0,0.0,0.6613,0.6167,0.0,0.6286,0.5919,0.6732,0.695,0.7247,0.8547,0.9422,1.0398,1.2134,0.0,0.0,0.0,1.3074,1.2416,1.5973,1.5606,0.0,0.0,0.0,1.9882,2.1247,2.2267,2.3465,2.5106,2.5833,2.6255,2.6459,2.6318,2.5986,2.5443,2.4704,2.4185,2.4045,2.274,2.1901,2.1724,2.0652,1.9959,1.969,1.969,1.969,1.969,1.9479,1.9043,1.8366,1.7331,1.6713,1.6454,1.5056,1.4588,1.4878,1.4149,1.3923,1.4096,1.3849,1.3938,1.4258,1.4753,1.5061,1.5278,1.5248,1.5316,1.5517,0.0,0.0,0.0,0.0,0.0,0.0,0.0,0.0,0.0,0.0,0.0,0.0,0.0,0.0,0.0,0.0,0.0,0.0,0.0,1.149,1.1437,1.1716,1.1629,1.1693,1.1909,1.0527,1.0285,1.1278,0.8251,0.5332,0.2593,0.1861,0.2319,0.3801,0.4573,0.5481,0.6403,0.6555,0.6669,0.6784,0.7818,0.8294,0.0,0.0,0.0,0.0,0.0,0.0,0.0,0.0,0.6534,0.6242,0.0,0.0,0.5884,0.6707,0.6816,0.6959,0.8427,0.9452,1.0495,0.0,0.0,0.0,1.4383,1.3537,1.3053,1.6481,1.6517,0.0,0.0,0.0,0.0,0.0,2.1296,2.2375,2.3704,2.4333,2.4936,2.5581,2.5886,2.5792,2.5266,2.4589,2.3936,2.328,2.2129,2.1404,2.1286,2.0386,1.9874,1.9874,1.9782,1.969,1.969,1.953,1.9006,1.8092,1.6677,1.5971,1.5958,1.4687,1.4198,1.4312,1.3523,1.3446,1.3795,1.3509,1.3682,1.4092,1.4337,1.4567,1.4708,1.465,1.4765,1.4966,0.0,0.0,0.0,0.0,0.0,0.0,0.0,0.0,0.0,0.0,0.0,0.0,0.0,0.0,0.0,0.0,0.0,0.0,0.0,1.149,1.1579,1.2169,1.1501,1.1153,1.1307,0.9186,0.8678,0.9836,0.6868,0.4432,0.2554,0.1473,0.2238,0.4607,0.531,0.5845,0.6228,0.6712,0.6682,0.6405,0.741,0.7892,0.8175,0.0,0.0,0.0,0.0,0.0,0.0,0.0,0.6218,0.6218,0.0,0.0,0.0,0.6213,0.6869,0.7712,0.8265,0.9874,0.0,0.0,0.0,0.0,1.4704,1.3813,1.3188,1.6278,0.0,1.9364,1.837,1.8729,0.0,1.9091,1.971,2.0685,2.2077,2.2781,2.3359,2.4026,2.4977,2.5379,2.484,2.4437,2.3859,2.3151,2.1961,2.1321,2.1321,2.0686,2.0314,2.0314,1.9909,1.969,1.969,1.9169,1.865,1.8078,1.5918,1.4917,1.489,1.4324,1.3747,1.3198,1.3198,1.3198,1.3232,1.3702,1.4117,1.4438,1.4052,1.4211,1.4655,1.4254,1.4425,1.4903,0.0,0.0,0.0,0.0,0.0,0.0,0.0,0.0,0.0,0.0,0.0,0.0,0.0,0.0,0.0,0.0,0.0,0.0,0.0,1.1071,1.1273,1.1822,1.1142,1.0897,1.1222,0.87,0.6874,0.5808,0.5453,0.4132,0.2003,0.3356,0.4023,0.4192,0.6276,0.6914,0.6448,0.7248,0.7243,0.6727,0.7474,0.8052,0.8556,0.0,0.0,0.0,0.0,0.0,0.0,0.0,0.0,0.0,0.7538,0.0,0.0,0.783,0.7744,0.7601,0.9227,0.9723,0.0,1.1534,0.0,0.0,0.0,1.2442,0.0,0.0,1.7717,1.8037,1.7163,1.8416,0.0,1.8526,1.9439,2.057,2.1487,2.2284,2.3079,2.3748,2.4413,2.4639,2.4083,2.3473,2.303,2.2769,2.1728,2.1229,2.1504,2.0744,2.0314,2.0314,1.9909,1.969,1.969,1.907,1.8354,1.7533,1.6399,1.5533,1.4878,1.3558,1.3055,1.3198,1.3198,1.3198,1.3232,1.3702,1.3967,1.4052,1.3967,1.4007,1.4051,1.327,1.3095,1.3252,0.0,0.0,0.0,0.0,0.0,0.0,0.0,0.0,0.0,0.0,0.0,0.0,0.0,0.0,0.0,0.0,0.0,0.0,0.0,0.0,1.079,1.1365,1.0966,1.0561,1.0199,0.765,0.5781,0.4696,0.4575,0.4001,0.3004,0.4466,0.5078,0.5034,0.6656,0.7056,0.6533,0.7173,0.7166,0.6714,0.7297,0.7821,0.8357,0.0,0.0,0.0,0.0,0.0,0.0,0.0,0.0,0.0,0.0,0.0,0.0,0.8481,0.8407,0.8374,0.9873,0.0,0.0,1.2762,1.291,1.2584,1.2249,0.0,0.0,0.0,0.0,1.7947,1.7455,1.8425,0.0,1.9004,1.9721,2.0556,2.1302,2.1923,2.2597,2.3468,2.3866,2.3944,2.3614,2.3041,2.2551,2.2225,2.1613,2.1337,2.1582,2.0943,2.0583,2.0583,2.0015,1.969,1.969,1.8876,1.8064,1.7293,1.6037,1.5032,1.4247,1.3472,1.3139,1.3198,1.3198,1.3198,1.3232,1.3514,1.3615,1.3628,1.3594,1.3474,1.3276,1.2686,1.2475,1.2542,0.0,0.0,0.0,0.0,0.0,0.0,0.0,0.0,0.0,0.0,0.0,0.0,0.0,0.0,0.0,0.0,0.0,0.0,0.0,0.0,1.0234,1.0821,1.0746,1.0044,0.8645,0.6378,0.5356,0.5625,0.4264,0.4077,0.4955,0.5004,0.558,0.6594,0.0,0.6706,0.6549,0.6779,0.6756,0.6565,0.6942,0.737,0.7881,0.8989,0.0,0.0,0.0,0.0,0.0,0.0,0.0,0.0,0.823,0.861,0.8902,0.8604,0.9071,0.9821,1.0522,0.0,0.0,1.4472,1.4047,0.0,1.4408,1.4441,1.5124,1.8022,0.0,1.8553,1.8612,1.8646,1.8982,1.9968,2.0242,2.0605,2.1393,2.1579,2.2056,2.3102,2.3232,2.3216,2.3186,2.2834,2.2304,2.1631,2.1658,2.1658,2.1582,2.1213,2.0959,2.0926,2.0078,1.9585,1.9549,1.8467,1.7627,1.6978,1.4964,1.3716,1.3172,1.3668,1.3626,1.3129,1.3198,1.3198,1.3198,1.3198,1.3163,1.3132,1.3056,1.2802,1.2412,1.2294,1.2252,1.2311,0.0,0.0,0.0,0.0,0.0,0.0,0.0,0.0,0.0,0.0,0.0,0.0,0.0,0.0,0.0,0.0,0.0,0.0,0.0,0.0,0.9943,1.0481,0.966,0.8784,0.7942,0.6688,0.5977,0.5827,0.4962,0.4758,0.0,0.0,0.0,0.6656,0.0,0.7785,0.6764,0.7335,0.7289,0.6825,0.702,0.7494,0.8085,0.8099,0.7863,0.0,0.0,0.0,0.0,0.0,0.0,0.0,0.8358,0.853,0.8822,0.9875,1.0535,1.1238,1.2736,1.2629,0.0,0.0,1.2572,1.3088,1.7479,1.7025,1.6085,1.7602,1.7488,1.7294,1.7802,1.8121,1.8391,1.8609,1.9684,2.0505,2.0697,2.1561,2.2128,2.1993,2.1996,2.1859,2.155,2.172,2.1777,2.1598,2.1928,2.2003,2.1612,2.1213,2.0829,2.0449,1.9463,1.8758,1.8461,1.7185,1.5929,1.4777,1.3785,1.2911,1.2116,1.2226,1.2423,1.2685,1.3047,1.3198,1.3198,1.3198,1.2978,1.2662,1.2627,1.2339,1.1895,1.1464,1.1219,1.1083,0.0,0.0,0.0,0.0,0.0,0.0,0.0,0.0,0.0,0.0,0.0,0.0,0.0,0.0,0.0,0.0,0.0,0.0,0.0,0.0,0.0,0.9612,0.8708,0.8108,0.8003,0.671,0.6237,0.6611,0.5633,0.0,0.0,0.0,0.0,0.6453,0.0,0.6919,0.6004,0.6232,0.6377,0.6466,0.6538,0.6928,0.7503,0.7651,0.7113,0.6394,0.7077,0.0,0.0,0.0,0.0,0.0,0.0,0.0,0.9157,1.0114,1.0566,1.1076,0.0,0.0,0.0,1.4742,0.0,1.5995,1.8253,1.8282,1.7884,1.8145,1.7768,1.744,1.7517,1.779,1.8163,1.8699,1.9747,2.0582,2.0811,2.1692,2.2135,2.1658,2.1315,2.1084,2.1007,2.0906,2.107,2.1565,2.1645,2.1645,2.1582,2.1007,2.055,2.0314,1.9561,1.8826,1.81,1.6641,1.531,1.4092,1.3009,1.2092,1.1431,1.17,1.192,1.2174,1.265,1.2873,1.2873,1.2873,1.272,1.2461,1.2218,1.1826,1.1389,1.1077,1.082,1.0665,0.0,0.0,0.0,0.0,0.0,0.0,0.0,0.0,0.0,0.0,0.0,0.0,0.0,0.0,0.0,0.0,0.0,0.0,0.0,0.0,0.0,0.0,0.7946,0.7781,0.8184,0.6867,0.6585,0.7436,0.0,0.0,0.0,0.0,0.0,0.6592,0.0,0.5823,0.5176,0.4892,0.5171,0.5832,0.5881,0.6153,0.6547,0.7036,0.6403,0.5481,0.6804,0.6804,0.6296,0.6862,0.0,0.0,0.0,0.0,0.9457,0.9872,1.0158,1.064,0.0,0.0,1.4781,1.715,1.8235,0.0,1.8145,1.8634,1.909,1.8758,1.8429,1.8007,1.7403,1.7511,1.8006,1.8886,1.9712,2.0373,2.0762,2.1377,2.1647,2.119,2.0705,2.0448,2.0591,2.0162,2.0252,2.114,2.0972,2.0941,2.122,2.0652,2.0234,2.0023,1.9587,1.8806,1.7675,1.6157,1.482,1.3702,1.2238,1.1244,1.0743,1.1282,1.159,1.17,1.2174,1.2401,1.2401,1.2401,1.2318,1.2209,1.175,1.1329,1.0946,1.0812,1.0665,1.0524,0.0,0.0,0.0,0.0,0.0,0.0,0.0,0.0,0.0,0.0,0.0,0.0,0.0,0.0,0.0,0.0,0.0,0.0,0.7127,0.0,0.0,0.7776,0.7671,0.7663,0.7763,0.7669,0.7603,0.0,0.0,0.0,0.0,0.0,0.0,0.8157,0.0,0.0,0.5602,0.5203,0.508,0.5152,0.5379,0.5589,0.5711,0.5333,0.506,0.494,0.5386,0.5463,0.5473,0.6253,0.6543,0.0,0.0,0.0,0.8912,0.9497,1.0454,1.1583,0.0,0.0,1.4901,0.0,1.6305,1.542,0.0,0.0,1.7392,0.0,1.8429,1.8007,1.7403,1.7343,1.7412,1.756,1.8451,1.9149,1.9198,1.9595,1.9707,1.9312,1.9434,1.9401,1.9046,1.9302,1.9546,1.9671,1.9971,2.0002,1.9703,2.0071,1.9848,1.894,1.8317,1.728,1.5851,1.4654,1.3386,1.2073,1.1023,1.0225,0.9707,1.0264,1.0725,1.1132,1.1653,1.1884,1.1884,1.1884,1.1616,1.1207,1.112,1.1001,1.082,1.0247,1.0126,1.0171,0.0,0.0,0.0,0.0,0.0,0.0,0.0,0.0,0.0,0.0,0.0,0.0,0.0,0.0,0.0,0.4931,0.5262,0.5817,0.6557,0.6804,0.7045,0.7299,0.7387,0.7623,0.8042,0.7756,0.7546,0.0,0.0,0.0,0.0,0.8775,0.8417,0.0,0.0,0.0,0.0,0.5971,0.5845,0.524,0.5476,0.5452,0.5276,0.533,0.5016,0.4639,0.546,0.5518,0.5283,0.5829,0.5792,0.5582,0.6025,0.0,0.0,0.0,0.9388,0.0,1.2775,1.2955,1.3473,0.0,1.6123,1.479,1.8812,0.0,1.7262,1.9212,1.937,1.8964,1.83,1.8528,1.8743,1.8515,1.9077,1.9353,1.8976,1.924,1.9274,1.8706,1.8419,1.8223,1.8152,1.7982,1.8313,1.9324,1.895,1.8903,1.937,1.9033,1.8634,1.8164,1.8223,1.7219,1.506,1.4673,1.3277,1.0954,0.9903,0.9716,1.0262,0.9885,1.004,1.0649,1.1142,1.1356,1.1356,1.1356,1.1207,1.1002,1.0952,1.0692,1.0345,1.0308,1.0023,0.9622,0.0,0.0,0.0,0.0,0.0,0.0,0.0,0.0,0.0,0.0,0.0,0.0,0.0,0.0,0.0,0.0,0.5127,0.5601,0.6064,0.5913,0.6126,0.679,0.699,0.7396,0.8018,0.7745,0.0,0.0,0.0,0.0,0.9328,0.9122,0.8646,0.0,0.905,0.0,0.0,0.0,0.0,0.0,0.5693,0.5393,0.4871,0.5349,0.505,0.455,0.5622,0.5658,0.522,0.5532,0.5254,0.4865,0.528,0.5902,0.0,0.0,0.0,0.0,0.0,0.0,1.2023,1.6355,1.5086,1.3664,0.0,0.0,1.6599,0.0,1.9894,2.0185,1.9667,1.981,1.9858,1.9356,1.9521,1.9428,1.8605,1.8681,1.8572,1.7938,1.748,1.7287,1.7416,1.6995,1.7271,1.8606,1.7938,1.7874,1.8898,1.8331,1.7861,1.7697,1.8093,1.7112,1.4681,1.4328,1.2781,0.9993,0.9339,0.9458,1.0337,0.9649,0.9708,1.0404,1.0944,1.1069,1.0966,1.0966,1.0817,1.0641,1.0641,1.0275,0.9778,1.0122,0.9826,0.9252,0.0,0.0,0.0,0.0,0.0,0.0,0.0,0.0,0.0,0.0,0.0,0.0,0.0,0.5246,0.501,0.4735,0.4952,0.5312,0.5795,0.6036,0.6144,0.6067,0.6375,0.0,0.7256,0.7802,0.0,0.0,0.0,0.0,0.864,0.87,0.8607,0.8404,0.8962,0.8951,0.8409,0.0,0.0,0.0,0.0,0.5315,0.0,0.0,0.4724,0.4755,0.0,0.0,0.0,0.0,0.0,0.4764,0.5116,0.5597,0.6043,0.0,0.0,0.0,0.0,1.0485,0.0,1.2946,0.0,0.0,0.0,0.0,1.4443,1.6473,1.9351,2.1486,2.1483,2.0644,1.9765,1.9039,1.8944,1.8572,1.7518,1.7115,1.6823,1.6449,1.6605,1.6757,1.6756,1.6726,1.6741,1.6832,1.6786,1.7055,1.7745,1.8328,1.8373,1.7712,1.7368,1.6313,1.4525,1.2838,1.1007,0.9179,0.9606,0.95,0.8812,0.9258,0.9888,1.0641,1.1267,1.1302,1.092,1.092,1.0383,0.9594,0.9861,0.9717,0.9338,0.9305,0.932,0.9331,0.0,0.0,0.0,0.0,0.0,0.0,0.0,0.0,0.0,0.0,0.0,0.0,0.0,0.5572,0.5796,0.5725,0.6287,0.6619,0.6574,0.6251,0.6157,0.6303,0.6105,0.6338,0.7058,0.0,0.0,0.0,0.0,0.6744,0.7803,0.718,0.7437,0.8473,1.044,0.9898,0.755,0.8711,0.0,0.0,0.0,0.0,0.0,0.0,0.0,0.0,0.0,0.0,0.0,0.0,0.0,0.0,0.0,0.0,0.0,0.0,0.0,0.0,0.0,0.0,0.0,1.1395,0.9972,0.8562,1.156,1.3006,1.3819,1.4249,1.82,2.1184,1.9811,2.0582,2.1217,2.0377,1.9695,1.9044,1.8312,1.7192,1.6511,1.656,1.6307,1.6114,1.6114,1.6114,1.6293,1.6682,1.5935,1.598,1.7117,1.6637,1.6579,1.7175,1.715,1.6546,1.5367,1.3582,1.2218,1.1289,1.0711,1.0392,1.0322,1.0134,1.0544,1.1399,1.2101,1.2037,1.1328,1.1328,1.099,1.0416,1.0649,1.01,0.9164,0.928,0.8756,0.7931,0.0,0.0,0.0,0.0,0.0,0.0,0.0,0.0,0.0,0.0,0.0,0.0,0.0,0.0,0.6662,0.6695,0.7091,0.7241,0.7017,0.6205,0.5856,0.6163,0.5544,0.5464,0.6023,0.0,0.0,0.0,0.0,0.0,0.0,0.6133,0.6373,0.7437,0.9702,0.9569,0.0,0.0,0.0,0.6247,0.0,0.0,0.5541,0.0,0.0,0.0,0.0,0.0,0.0,0.0,0.0,0.0,0.0,0.0,0.0,0.0,0.0,0.0,0.6513,0.0,0.0,0.0,0.0,0.6732,0.9217,1.172,1.3441,1.3265,1.7813,2.1346,1.9772,2.09,2.1786,2.0967,2.0153,1.937,1.8629,1.7609,1.6964,1.7012,1.6682,1.6428,1.6428,1.6428,1.6608,1.701,1.5906,1.5813,1.7168,1.6099,1.5934,1.7001,1.7084,1.6678,1.5776,1.4374,1.3329,1.2604,1.1601,1.1094,1.1042,1.0702,1.0985,1.1814,1.2089,1.2063,1.1787,1.1787,1.1295,1.0524,1.0649,0.9678,0.8305,0.8528,0.7907,0.7025,0.0,0.0,0.0,0.0,0.0,0.0,0.0,0.0,0.0,0.0,0.0,0.0,0.0,0.0,0.0,0.7531,0.7243,0.7028,0.6995,0.5871,0.529,0.5486,0.4642,0.4154,0.4089,0.0,0.0,0.0,0.0,0.0,0.0,0.0,0.5467,0.5203,0.6529,0.7878,0.9167,0.0,0.8945,0.8795,0.0,0.7705,0.752,0.0,0.0,0.0,0.8072,0.7812,0.0,0.8247,0.0,0.0,0.0,0.0,0.0,0.0,0.0,0.0,0.0,0.0,0.0,0.0,0.0,0.0,0.5175,0.0,1.3093,1.3496,1.815,2.2034,2.1559,2.1549,2.1351,2.0599,2.0148,1.9514,1.8393,1.8192,1.8068,1.7777,1.7697,1.7697,1.7697,1.7697,1.7682,1.7682,1.6673,1.6584,1.7813,1.6872,1.6614,1.7246,1.7192,1.6697,1.5765,1.5114,1.4187,1.2985,1.2306,1.1569,1.0864,1.0864,1.1166,1.1765,1.1116,1.1323,1.2153,1.2153,1.1177,0.9757,0.9711,0.8436,0.6687,0.699,0.6871,0.6629,0.0,0.0,0.0,0.0,0.0,0.0,0.0,0.0,0.0,0.0,0.0,0.0,0.0,0.0,0.8894,0.8615,0.8419,0.7935,0.7064,0.6139,0.5529,0.5308,0.4413,0.3985,0.4087,0.0,0.0,0.0,0.0,0.0,0.0,0.0,0.0,0.0,0.4986,0.5685,0.6188,0.8099,0.0,0.5549,0.8432,0.7731,0.0,0.0,0.0,0.0,0.0,0.8481,0.7659,0.0,0.7426,0.5617,0.0,0.0,0.0,0.0,0.0,0.0,0.3109,0.0,0.0,0.0,0.0,0.0,0.0,0.0,1.0093,1.0521,1.5175,1.912,1.8836,2.0086,2.099,2.0447,1.9908,1.9479,1.9318,1.8465,1.7977,1.8373,1.7981,1.7697,1.7697,1.7338,1.7122,1.7122,1.6084,1.5819,1.6684,1.6915,1.6943,1.6718,1.7338,1.7413,1.6837,1.6959,1.6499,1.544,1.4315,1.3232,1.2229,1.1756,1.1366,1.1116,1.1416,1.1414,1.1169,1.1169,1.1042,1.0693,0.9803,0.8795,0.7788,0.751,0.6911,0.6427,0.0,0.0,0.0,0.0,0.0,0.0,0.0,0.0,0.0,0.0,0.0,0.0,0.0,0.0,0.0,0.8598,0.829,0.7647,0.6481,0.5702,0.5131,0.471,0.3435,0.2824,0.2936,0.0,0.0,0.0,0.0,0.0,0.0,0.0,0.0,0.0,0.0,0.0,0.0,0.0,0.0,0.0,0.8375,0.0,0.0,0.9284,0.8953,0.0,0.0,0.0,0.8822,0.9781,0.8774,0.0,0.0,0.0,0.0,0.0,0.0,0.0,0.0,0.0,0.0,0.0,0.0,0.0,0.4202,0.7284,1.0232,0.0,1.5379,1.8913,1.7769,1.867,1.9404,1.8866,1.8559,1.8694,1.9581,1.9031,1.8687,1.9076,1.8777,1.8538,1.8538,1.806,1.7727,1.7727,1.6245,1.5363,1.5307,1.6312,1.6799,1.6484,1.7669,1.8205,1.7973,1.7927,1.7509,1.6735,1.5231,1.4069,1.3168,1.2248,1.1566,1.1216,1.1065,1.0831,1.059,1.0008,1.0039,1.0412,0.9843,0.8797,0.7531,0.7108,0.678,0.667,0.0,0.0,0.0,0.0,0.0,0.0,0.0,0.0,0.0,0.0,0.0,0.0,0.0,0.0,0.0,0.0,0.74,0.6611,0.5636,0.4888,0.4287,0.3888,0.2304,0.1378,0.1159,0.0,0.0,0.0,0.0,0.0,0.0,0.0,0.0,0.0,0.0,0.0,0.0,0.0,0.0,0.7828,0.8038,0.9078,0.0,0.0,1.0125,0.986,1.1655,1.1224,1.0091,1.1494,1.0665,0.0,0.0,0.0,0.0,0.0,0.277,0.0,0.0,0.0,0.0,0.0,0.3035,0.0,0.404,0.763,1.1145,0.0,1.6474,1.9217,1.7337,1.7049,1.6946,1.6353,1.6381,1.7137,1.9151,1.9576,1.9636,1.9446,1.9576,1.969,1.969,1.9169,1.8765,1.8727,1.6731,1.5085,1.4048,1.5488,1.6305,1.6305,1.7946,1.8779,1.8727,1.8258,1.773,1.7083,1.5423,1.4305,1.3674,1.2395,1.1715,1.1516,1.0312,0.9946,1.0157,0.9005,0.8912,0.9432,0.9701,0.8656,0.6922,0.6582,0.6859,0.7398,0.603,0.0,0.0,0.0,0.0,0.0,0.0,0.0,0.0,0.0,0.0,0.0,0.0,0.0,0.0,0.0,0.6831,0.5848,0.5325,0.4285,0.3479,0.2985,0.2599,0.1744,0.0302,0.212,0.0,0.0,0.0,0.0,0.0,0.0,0.0,0.0,0.0,0.0,0.0,0.0,0.0,0.5659,0.8023,0.8639,0.8435,1.0906,1.0438,0.8805,1.1719,1.1728,1.0369,1.0467,1.0155,0.9087,0.0,0.0,0.0,0.1694,0.0,0.0,0.0,0.0,0.0,0.0,0.113,0.0,0.2634,0.378,0.5626,0.0,1.127,1.2649,1.3998,1.4287,1.4127,1.357,1.3234,1.4139,1.724,1.8861,1.9215,1.7854,1.8891,1.969,1.969,1.8817,1.8039,1.7558,1.5868,1.4778,1.4563,1.5306,1.5752,1.5752,1.7382,1.8066,1.7626,1.8345,1.7993,1.6549,1.5714,1.4507,1.2966,1.215,1.1216,1.0167,0.9909,0.9526,0.912,0.9423,0.9551,0.9584,0.8888,0.8828,0.9011,0.8445,0.8741,0.9458,0.6048,0.0,0.0,0.0,0.0,0.0,0.0,0.0,0.0,0.0,0.0,0.0,0.0,0.0,0.0,0.0,0.0,0.0,0.0,0.0,0.2542,0.2259,0.1667,0.0709,-0.0609,0.0656,0.0,0.0,0.0,0.0,0.0,0.0,0.0,0.0,0.0,0.0,0.0,0.0,0.3828,0.5225,0.7694,0.0,0.8993,1.1553,1.1699,1.0706,1.2302,1.2371,1.1532,1.0366,1.041,0.0,0.7052,0.4875,0.3255,0.0,0.1064,0.0906,0.0,0.0,0.0,0.0445,-0.0844,0.0,0.0,0.2762,0.4918,0.7367,0.9046,1.0403,1.1322,1.1503,1.1481,1.1371,1.1206,1.1712,1.3419,1.6057,1.7949,1.8396,1.8926,1.9281,1.9281,1.8341,1.7354,1.6451,1.5342,1.4698,1.4698,1.5276,1.5588,1.5588,1.6983,1.7585,1.7312,1.7518,1.7246,1.6378,1.4869,1.3684,1.2764,1.1399,1.0415,0.9762,0.9465,0.9023,0.8642,0.8987,0.9332,0.9694,0.9428,0.9534,0.9796,0.9459,0.9835,1.0538,0.5769,0.0,0.0,0.0,0.0,0.0,0.0,0.0,0.0,0.0,0.0,0.0,0.0,0.0,0.0,0.0,0.0,0.0,0.0,0.0,0.0,0.1447,0.0528,-0.0436,-0.1385,-0.0759,0.0363,0.0,0.0,0.0,0.0,0.0,0.0,0.0,0.0,0.0,0.0,0.0,0.0,0.5963,0.0,0.8939,0.962,1.1901,1.2598,1.2422,1.2764,1.2881,1.2579,1.0615,1.0845,1.1496,0.86,0.5565,0.0,0.0,0.0,0.0,0.0,0.0,0.0,0.0,-0.2327,-0.3452,0.0,0.0,0.0,0.5022,0.7156,0.8835,0.8544,0.8672,0.0,0.9155,0.0,0.0,0.0,1.2607,0.0,1.748,1.7551,1.7412,1.7412,1.6755,1.6111,1.5652,1.5039,1.4721,1.4869,1.552,1.5915,1.5915,1.7024,1.7504,1.7312,1.6815,1.6378,1.6046,1.3835,1.2667,1.2376,1.061,0.9718,0.9562,0.9061,0.8671,0.8508,0.8602,0.917,0.9955,1.03,1.0515,1.0601,1.0643,1.1075,1.1707,0.5102,0.6183,0.0,0.0,0.0,0.0,0.0,0.0,0.0,0.0,0.0,0.0,0.0,0.0,0.0,0.0,0.0,0.0,0.3812,0.0,0.0,0.0,0.0061,-0.0536,-0.1706,-0.1867,-0.105,0.0,0.0,0.0,0.0,0.0,0.0,0.0,0.1113,0.0,0.0,0.0,0.6064,0.0,0.9675,0.9143,0.0,1.1031,1.1494,1.0649,1.2278,1.2881,1.2618,0.0,1.0943,1.1225,0.0,0.378,0.1363,-0.0964,0.0,0.0,0.0,0.0,0.0,0.0,-0.2359,-0.3785,-0.1685,0.0,-0.0514,0.1022,0.0,0.4671,0.4846,0.0,0.0,0.0,0.5639,0.5866,0.7952,0.9535,1.0511,1.0549,1.1455,1.2088,1.2088,1.2496,1.357,1.5481,1.4982,1.4824,1.5372,1.6456,1.7014,1.7014,1.8143,1.8263,1.7312,1.7164,1.6341,1.4869,1.349,1.2181,1.1015,1.0167,0.9458,0.891,0.8857,0.8791,0.881,0.9408,1.0038,1.0681,1.0655,1.1506,1.2767,1.2964,1.3506,1.4146,0.4952,0.5926,0.0,0.0,0.0,0.8753,0.0,0.0,0.0,0.0,0.0,0.0,0.0,0.0,0.0,0.0,0.0,0.7396,0.0,0.0,0.0,0.0,0.0258,-0.0359,-0.1087,-0.1662,-0.1627,-0.0965,-0.0213,0.0,0.0,0.0,0.0,0.0,0.1525,0.0,0.6116,0.0,0.6606,0.0,0.0,0.8626,0.0,1.1325,1.2219,1.1669,1.1291,1.193,1.2569,0.0,1.0498,0.0,0.0,0.0,0.0,0.1,0.0,0.0,0.0,0.0,0.0,0.0,0.1194,-0.055,0.0347,-0.1724,-0.3196,-0.0911,0.0,0.0,0.0,0.0,0.0,0.0,0.501,0.5082,0.5747,0.0,0.7531,1.1752,1.1441,1.0967,1.1079,1.0531,1.1335,1.4124,1.3988,1.4401,1.585,1.732,1.8313,1.8746,1.8809,1.8478,1.7719,1.6696,1.5492,1.41,1.2415,1.1149,1.0218,0.951,0.9061,0.8804,0.8804,0.8804,0.8857,0.951,1.0218,1.0881,1.1608,1.26,1.3554,1.3284,1.3816,1.4603,0.4814,0.0,0.0,0.0,0.0,0.0,0.0,0.0,0.0,0.0,0.0,0.0,0.8257,0.7314,0.0,0.0,0.8255,0.8762,0.0,0.0,0.4448,0.0,0.0,0.0,0.0,-0.0367,-0.1586,-0.2012,0.0,0.0,0.0,0.0,0.0,0.0,0.0,0.2958,0.5004,0.0,0.7985,0.9832,0.9768,0.9515,0.9422,1.1383,1.2461,1.2695,1.1094,1.1423,1.2282,1.0095,0.9571,0.0,0.7309,0.5288,0.3668,0.0,0.0,0.0,0.1915,0.0,0.0,0.0,0.3791,0.2091,0.0897,-0.2267,-0.44,-0.2534,-0.1513,0.0,0.0,0.0,0.0,0.0,0.0,0.3793,0.3318,0.2932,0.4841,1.0612,1.0193,0.9192,0.0,0.877,0.997,1.2501,1.3302,1.4472,1.6211,1.8352,1.9737,2.0202,1.9756,1.9177,1.8436,1.6744,1.5201,1.3896,1.1818,1.0356,0.9488,0.8784,0.848,0.848,0.848,0.8593,0.8857,0.971,1.0364,1.0965,1.2307,1.3289,1.3881,1.3597,1.4096,1.4919,0.4596,0.5652,0.0,0.0,0.0,0.0,0.0,0.0,0.0,0.0,0.0,0.0,0.0,0.0,0.0,0.0,0.0,0.8589,0.8557,0.0,0.9213,0.0,0.0,0.402,0.0,0.0,-0.0819,0.0,0.0,0.0,0.0,0.0,0.0,0.0,0.1274,0.1846,0.2263,0.7065,1.1012,1.3924,1.3183,1.2787,1.2568,0.0,1.132,1.2812,1.2297,0.0,0.0,0.9198,0.794,0.0,0.0,0.0,0.0,0.0,0.0,0.0,0.0,0.0,0.0,0.417,0.3817,0.2785,-0.1568,-0.3335,-0.4094,-0.4257,-0.3806,-0.2679,-0.0318,0.0,0.0,0.0,0.0,0.0,0.0,0.1101,0.2011,0.3479,0.5197,0.5244,0.2642,0.6687,0.9896,1.0899,1.3423,1.5421,1.6539,1.9657,2.1287,2.0975,2.1256,2.0815,1.957,1.7763,1.6048,1.4451,1.1978,1.0084,0.8731,0.8025,0.7723,0.7723,0.7723,0.8156,0.891,1.0218,1.0762,1.0922,1.2353,1.3331,1.397,1.453,1.5039,1.5441,0.0,0.0,0.0,0.0,0.0,0.0,0.0,0.8185,0.0,0.0,0.9546,0.0,0.0,1.075,0.9935,0.0,0.0,1.1727,1.0985,1.2713,0.0,0.0,0.0,0.9918,0.0,0.0,0.0,0.0,0.0,0.0,0.0,0.0,0.0,0.0,0.0,0.0826,0.0,0.0,0.0,0.0,0.0,1.2138,1.097,0.0,1.2073,1.2822,1.2383,1.2044,0.0,1.0075,0.918,0.8529,0.7923,0.6679,0.5836,0.7621,0.715,0.6547,0.0,0.0,0.9869,1.1093,0.8819,0.6033,0.5225,0.1418,-0.2032,-0.2304,-0.3572,-0.4287,-0.3114,0.0,0.0,0.0,0.0,0.0,0.0,-0.0505,-0.0021,0.028,0.1355,0.4579,1.1003,0.7819,0.647,0.9167,1.0441,1.1777,1.334,1.709,1.9444,2.005,2.1056,2.1005,1.9798,1.7859,1.5673,1.3309,1.1603,0.9835,0.8019,0.7692,0.7516,0.7407,0.7339,0.7858,0.8805,1.0027,1.0751,1.1213,1.2849,1.3871,1.4418,1.4268,1.4685,1.5434,0.5332,0.0,0.0,0.0,0.0,0.0,0.0,0.0,0.0,0.0,1.1398,0.0,1.2784,0.0,1.1902,0.0,1.1812,1.2555,1.3356,1.2338,0.0,1.424,1.3129,0.0,0.0,0.0,0.0,0.0,0.0,-0.1687,0.0,0.0,0.0,0.0,0.0,-0.0242,0.0362,0.3928,0.7592,0.0,0.0,1.212,0.0,0.0,1.2365,1.256,0.0,1.1691,1.128,1.0194,0.956,0.9105,0.8588,0.7661,0.7163,0.8958,0.8598,0.845,1.2162,1.2793,0.0,1.4559,1.2401,0.9634,0.883,0.5301,0.2339,0.2673,0.1565,-0.003,-0.1816,0.0,0.0,0.0,0.0,0.0,0.0,-0.2009,-0.1573,-0.1775,-0.0932,0.2516,0.9709,0.6615,0.4942,0.6785,0.855,1.0203,1.175,1.6141,1.887,1.9429,2.0978,2.1222,2.002,1.7921,1.5715,1.3299,1.1518,0.9713,0.7872,0.7458,0.7189,0.7133,0.7255,0.7902,0.9029,1.0186,1.0985,1.1558,1.3172,1.4046,1.4384,1.4064,1.4384,1.5202,0.457,0.0,0.0,0.0,0.7582,0.0,0.0,0.0,1.1963,0.0,1.3703,1.2998,1.3626,1.251,1.1927,1.2535,1.0755,1.1227,1.5049,0.9293,0.0,0.0,0.9521,0.8613,1.4935,0.0,0.0,0.0,0.0,0.0,0.0,0.0,0.0,0.0,-0.1477,0.0,-0.0947,0.4269,0.6995,0.8083,1.1491,1.2796,1.2618,1.2213,1.2125,1.2134,1.1509,1.1063,1.0663,0.9604,0.9075,0.8804,0.8804,0.8804,0.8999,0.9911,1.0882,1.1759,1.2295,1.3593,1.4708,1.4375,1.4224,1.3185,0.9244,0.8193,0.847,1.0156,1.0643,0.9074,0.3419,0.0,0.0,0.0,0.0,0.0,0.0,0.0,-0.2844,-0.3018,-0.194,-0.1065,-0.0769,0.3095,0.5126,0.3972,0.7785,1.0618,1.1734,1.6601,1.9263,1.9049,2.0788,2.1163,2.0042,1.7831,1.5932,1.4316,1.1667,0.9624,0.822,0.7261,0.6763,0.6811,0.7311,0.8242,0.9478,1.0625,1.1435,1.1984,1.3273,1.3898,1.3989,1.4017,1.4295,1.4856,0.5072,0.5381,0.6307,0.0,0.9247,1.0449,0.0,0.0,0.0,0.0,1.3655,1.3772,1.3524,1.4139,1.3259,1.004,1.2199,0.0,0.0,0.0,0.0,1.576,1.3521,1.2235,1.2112,0.9552,0.771,0.6675,0.0,0.0,0.1089,0.0,0.0,0.0,0.0,0.0,-0.0888,0.5215,0.8131,0.8918,1.1739,1.1527,0.9734,0.0,1.249,1.2219,1.2397,1.176,1.0746,1.0463,0.9695,0.8804,0.8804,0.8804,0.8999,0.9911,1.0702,1.149,1.2617,1.3607,1.4227,1.4059,1.3361,1.2873,1.3388,1.1486,1.0776,1.4897,1.2431,0.937,0.9025,0.0,0.0,0.0,0.0,0.0,0.0,0.0,-0.531,-0.4941,-0.4993,-0.4448,-0.2909,-0.0116,0.2127,0.3438,0.6316,0.8686,1.0321,1.3001,1.5256,1.6924,1.6593,1.6713,1.7429,1.5298,1.3485,1.1985,1.0915,0.95,0.7771,0.7,0.6602,0.6493,0.6538,0.7623,0.9375,0.9993,1.1242,1.2863,1.3538,1.4362,1.5127,1.4676,1.5316,1.649,0.4956,0.0,0.0,0.8477,0.0,0.0,1.2272,1.319,0.0,1.4625,1.4624,0.0,1.4726,1.5514,1.4967,1.2317,1.2494,0.0,1.2615,0.0,0.0,1.546,1.4049,1.2925,1.2384,1.0563,0.0,0.9124,0.0,0.0,0.242,0.0,0.0,0.0,0.0,-0.2142,-0.1615,0.4442,0.7787,0.9177,1.0192,1.0485,0.0,1.2222,1.2744,1.2549,1.2793,1.1999,1.0762,1.0466,0.9666,0.8804,0.8804,0.8804,0.8981,0.9791,1.0343,1.1048,1.255,1.3313,1.3762,1.415,1.3762,1.3607,1.488,1.3932,1.3783,1.7119,1.5524,1.3386,1.2799,0.0,0.0,0.0,0.0,0.0,0.0,-0.5101,-0.4616,-0.6908,-0.4777,-0.3765,-0.5382,-0.2872,-0.0116,0.2315,0.538,0.7715,0.8998,1.1658,1.3452,1.419,1.4509,1.4762,1.4969,1.3093,1.1833,1.1148,1.0179,0.9209,0.8301,0.7528,0.7006,0.668,0.6881,0.7946,0.9584,1.0107,1.1351,1.3109,1.3907,1.4766,1.5578,1.5248,1.5803,1.6867,0.5174,0.0,0.0,0.0,0.0,0.0,0.0,1.4906,0.0,1.6824,0.0,1.5392,1.6123,1.6391,1.6361,1.6058,0.0,1.191,1.5703,1.0321,0.9497,1.5112,1.2819,1.2175,1.3773,1.0872,1.0436,0.0,0.0,0.0,0.0,0.0,0.0,0.0,0.0,0.0,0.0,0.2968,0.6527,0.9199,0.8288,0.9684,1.2445,1.2754,1.2913,1.2881,1.2774,1.1891,1.0712,1.0115,0.9413,0.8804,0.8804,0.8804,0.8903,0.9563,0.9895,1.0448,1.2109,1.2656,1.2989,1.406,1.4411,1.4495,1.4511,1.5393,1.6532,1.7588,1.8721,1.8655,1.5781,0.0,0.0,0.0,0.0,0.0,-0.8041,-0.3712,-0.2721,-0.8622,-0.3191,0.0,-0.7645,-0.4892,-0.164,0.0982,0.4644,0.7215,0.8185,1.1278,1.2645,1.1776,1.3305,1.3717,1.2805,1.1273,1.0693,1.1102,0.9472,0.8884,0.9172,0.82,0.7489,0.7027,0.7623,0.857,0.9831,1.039,1.1463,1.2861,1.4097,1.4949,1.5472,1.561,1.5971,1.6514,0.8353,0.0,0.0,0.0,0.0,1.3647,1.6113,1.7054,1.6984,1.5672,1.5906,1.5819,1.4805,1.579,1.5745,1.3877,1.4651,0.0,0.0,0.0,0.0,1.4089,1.3162,1.2464,1.2186,1.1619,1.1279,0.0,0.0,0.0,0.0,0.0,0.0,0.0,0.0,0.0,0.4724,0.2881,0.0,0.9736,0.9182,0.9253,0.991,1.2063,1.2888,1.2822,1.2187,1.1475,1.0762,1.0661,0.9814,0.8804,0.8804,0.8804,0.8856,0.9206,0.9331,0.9678,1.1119,1.1084,1.0985,1.2048,1.2725,1.3137,1.3152,1.4832,1.6552,1.7169,1.8783,2.0026,1.9878,0.0,0.0,0.0,0.0,-0.8507,-0.7856,-0.3992,-0.3417,-0.9318,-0.3966,-0.2072,-0.7868,-0.5125,-0.2001,0.0306,0.3307,0.6364,0.9411,0.947,1.0354,0.0,1.0582,1.0257,0.0,1.0191,0.9822,1.071,0.9006,0.8407,0.8766,0.767,0.7105,0.7034,0.7412,0.8125,0.9082,0.9509,1.0588,1.212,1.3385,1.4253,1.4857,1.5365,1.5899,1.6414,0.0,0.0,0.0,0.0,0.0,0.0,0.0,1.6583,1.733,1.6362,1.6408,1.6223,1.5521,1.5789,1.5591,1.4495,1.3946,1.3588,1.3477,1.2883,1.2881,1.3773,1.3198,1.2445,1.164,1.1017,1.0392,0.9708,0.0,0.0,0.0,0.0,0.0,0.0,0.0,0.1121,0.0,0.0,0.7788,1.0098,1.1154,1.1369,1.1136,1.2426,1.2881,1.2774,1.208,1.1366,1.0771,1.0415,0.9614,0.8804,0.8804,0.8804,0.883,0.8933,0.9077,0.9365,1.022,1.0327,1.0367,1.1122,1.1499,1.1935,1.2628,1.4163,1.5825,1.7223,1.878,1.933,1.7455,1.3644,0.9052,0.3774,-0.1621,-0.5029,-0.4641,-0.2624,-0.2476,-0.5946,-0.0838,0.0658,-0.5238,-0.2834,-0.0737,-0.0314,0.2486,0.5412,0.8247,0.8781,0.9349,0.0,0.0,0.0,0.8968,0.0,0.8748,0.9195,0.8691,0.8414,0.8275,0.7739,0.728,0.7034,0.7335,0.7947,0.8761,0.9597,1.0442,1.1408,1.2706,1.3412,1.3767,1.4722,1.5463,1.6053,0.0,1.1626,0.0,0.0,1.2581,1.3927,1.4419,1.5723,1.6818,1.7231,1.6837,1.6522,1.6522,1.5952,1.5648,1.5795,1.3339,1.2616,1.4583,1.2765,1.2197,1.3545,1.2934,1.2206,1.1382,1.0156,0.9241,0.0,0.0,0.0,0.0,0.0,0.0,0.0,0.0,0.0,0.0,0.0,1.1176,1.1416,1.3107,1.342,1.2881,1.2881,1.2881,1.2774,1.1873,1.1266,1.0712,1.0012,0.9361,0.8804,0.8804,0.8804,0.8804,0.8804,0.894,0.9199,0.9695,0.9826,0.9921,1.0382,1.0548,1.082,1.1881,1.3221,1.4786,1.677,1.8441,1.8663,1.5667,1.4483,1.2182,0.6614,0.1866,-0.1407,-0.2184,-0.1153,-0.0964,-0.2748,0.1626,0.2626,-0.2979,-0.1668,-0.0593,-0.0915,0.1744,0.4387,0.6716,0.0,0.0,0.0,0.8965,0.8666,0.7468,0.0,0.831,0.8488,0.8571,0.8442,0.8077,0.7829,0.7447,0.7034,0.7335,0.785,0.8565,0.962,1.0268,1.0712,1.1895,1.2473,1.2725,1.4029,1.4869,1.5531,0.0,0.0,0.0,0.0,0.0,1.4262,1.7224,1.5892,1.5249,1.7044,1.6837,1.6522,1.6522,1.5952,1.5831,1.6387,1.5138,1.446,1.4689,1.3956,1.3366,1.3011,1.2299,1.1571,1.0856,0.9526,0.881,0.0,0.0,0.0911,0.0,0.0,0.0,0.0,0.0,0.0,0.0,1.1748,1.2885,1.4905,1.4139,1.342,1.2881,1.2881,1.2881,1.2725,1.1384,1.0864,1.0712,1.0012,0.9361,0.8804,0.8804,0.8804,0.8804,0.8804,0.8837,0.8974,0.9607,0.9184,0.872,0.9373,0.966,0.9839,0.9969,1.1723,1.3652,1.4838,1.7501,1.9763,2.0225,1.6638,1.2482,0.9013,0.4059,-0.0491,-0.3772,-0.0644,0.0611,-0.3077,-0.0321,0.0283,-0.3808,-0.4851,-0.4172,-0.1545,0.0718,0.3237,0.6114,0.0,0.0,1.0616,0.9856,0.9695,1.0321,0.9434,0.9473,1.0312,0.8872,0.8325,0.8594,0.7565,0.7063,0.7034,0.7335,0.7829,0.8459,0.8786,0.934,0.9969,1.0712,1.1358,1.2052,1.3379,1.4283,1.488,0.0,0.0,0.0,0.0,0.0,0.0,0.0,1.5721,1.5911,1.6731,1.6637,1.6522,1.6522,1.5644,1.5159,1.5386,1.4314,1.3619,1.3617,1.3397,1.3135,1.2894,1.1807,1.0847,1.0163,0.8659,0.7645,0.0,0.0,0.0,0.0,0.0,0.0,0.0,0.0,1.1457,1.3385,1.4545,1.5199,1.5416,1.4664,1.3742,1.2881,1.2881,1.2881,1.2725,1.1325,1.0813,1.0669,0.9562,0.9316,0.9413,0.9413,0.9413,0.9309,0.891,0.8804,0.8857,0.9113,0.8919,0.8642,0.8755,0.9092,0.9455,0.9652,1.1004,1.2521,1.3666,1.6151,1.8491,1.9531,1.8091,1.5677,1.2495,0.9018,0.5459,0.1828,0.185,0.2586,0.3502,0.2788,0.237,0.2745,-0.1145,-0.246,0.0479,0.0974,0.3281,0.8148,0.6916,0.0,1.1431,0.0,0.7086,0.798,0.9036,0.9546,0.9474,0.9274,0.884,0.8193,0.7356,0.7121,0.7295,0.7459,0.7709,0.813,0.8424,0.8938,0.9638,1.0487,1.1216,1.1963,1.3331,1.419,1.4789,1.6908,0.0,1.4676,0.0,1.4452,1.4712,1.403,1.5384,1.6255,1.5575,1.607,1.6522,1.6522,1.5433,1.4665,1.4526,1.3538,1.2905,1.2886,1.2882,1.2918,1.2886,1.1559,0.0,0.9731,0.8203,0.6786,0.5449,0.18,0.0,0.0,0.0,0.0,0.0,1.2193,1.4299,1.4803,1.6383,1.6451,1.5416,1.471,1.3836,1.2881,1.2881,1.2881,1.2725,1.1525,1.0965,1.0661,0.9718,0.9562,0.9762,0.9562,0.9517,0.9413,0.8962,0.8804,0.8804,0.8804,0.8744,0.8662,0.8509,0.8837,0.9229,0.9553,1.0529,1.1727,1.3043,1.5184,1.7092,1.8049,1.8289,1.732,1.4114,1.1847,0.9294,0.5824,0.3743,0.3646,0.6561,0.3461,0.226,0.5259,-0.026,-0.2277,0.2012,0.1274,0.3105,0.8779,0.7451,0.0,0.0,0.0,0.0,0.7379,0.8668,0.9199,0.892,0.9633,0.9391,0.8357,0.7614,0.7397,0.7612,0.7517,0.7589,0.7816,0.8304,0.8763,0.9313,1.0647,1.1478,1.2119,1.3907,1.4721,1.505,1.749,1.7272,1.7107,1.6557,1.6441,1.5721,1.3465,1.5031,1.5678,1.3454,1.5109,1.6522,1.6522,1.5433,1.4538,1.4149,1.3358,1.2886,1.289,1.2912,1.2923,0.0,0.0,1.0434,0.9731,0.8203,0.644,0.4426,0.0,0.0,0.3278,0.0,1.0202,1.2004,1.5585,1.7491,1.7985,1.6873,1.6065,1.5416,1.425,1.3467,1.2881,1.2881,1.2881,1.2774,1.208,1.1366,1.0813,1.0762,1.0364,0.9666,0.9008,0.8804,0.8804,0.8804,0.8804,0.8804,0.8804,0.8597,0.8452,0.8656,0.8911,0.9172,0.9417,1.0264,1.1475,1.3079,1.4686,1.5981,1.6517,1.6997,1.6232,1.2944,1.1168,0.9159,0.6124,0.4419,0.3445,0.3386,-0.0239,-0.1748,0.0734,-0.4733,-0.5274,0.2312,0.1405,0.2445,0.6884,0.9162,1.0448,1.0723,0.9253,0.0,1.0123,0.8734,0.8523,0.9512,0.99,0.9899,0.9439,0.8357,0.7878,0.7893,0.7605,0.7513,0.7585,0.8385,0.871,0.8919,1.1177,1.2083,1.2443,1.5314,1.6046,1.5764,1.3222,1.5171,1.6609,1.4475,1.5436,1.6255,1.555,1.6033,1.6243,1.5496,1.6046,1.6324,1.5908,1.5197,1.4473,0.0,1.3277,1.2918,0.0,1.2884,1.2664,1.2148,0.9985,0.8087,0.6676,0.645,0.575,0.4415,0.0,0.0,0.0,0.9059,1.1925,1.5064,1.6956,1.7706,1.7437,1.6705,1.5823,1.4812,1.4111,1.342,1.2881,1.2881,1.2881,1.2774,1.208,1.1665,1.1366,1.0415,0.9961,0.9666,0.9008,0.9106,0.9413,0.8956,0.8804,0.8804,0.8804,0.8738,0.8697,0.8699,0.9028,0.941,0.947,0.9746,1.0234,1.1055,1.1897,1.2899,1.4177,1.4799,1.4321,1.1865,1.2153,1.154,0.815,0.7179,0.6689,0.6226,0.3633,0.2546,0.4205,-0.1534,-0.1979,0.6237,0.2693,0.285,0.9024,0.7512,0.801,0.0,0.7324,0.0,0.8255,0.8668,0.9086,0.9512,0.9891,0.9692,0.8958,0.8602,0.8234,0.7893,0.7997,0.7699,0.7244,0.8292,0.9282,1.0365,1.2009,1.3352,1.464,1.6338,1.6621,1.6219,1.3246,1.5038,1.6417,1.465,1.5511,1.623,1.5368,1.5954,1.6175,1.5356,1.577,1.592,1.532,1.4732,0.0,1.3815,1.324,1.2904,1.289,1.2633,1.2302,1.1846,0.9715,0.7903,0.6553,0.5658,0.0,0.5599,0.5615,0.7214,1.0248,1.1725,1.3738,1.6133,1.7053,1.6985,1.6213,1.566,1.4993,1.4264,1.3674,1.3238,1.2881,1.2881,1.2881,1.2822,1.2393,1.203,1.1665,1.0813,1.0218,0.9762,0.9614,0.951,0.9361,0.891,0.8804,0.8804,0.8804,0.8804,0.8813,0.8952,0.9244,0.9505,0.9497,0.9359,0.9203,0.9295,1.004,1.0992,1.2001,1.2921,1.323,1.2311,1.2861,1.2739,1.0835,0.9138,0.8043,0.8061,0.537,0.4171,0.5924,0.0342,-0.1095,0.446,0.2151,0.3432,1.0183,0.8442,0.8224,1.038,0.7157,0.6395,0.8384,0.8743,0.923,0.9914,1.0063,0.9839,0.927,0.9072,0.8813,0.8488,0.825,0.7845,0.7391,0.8348,0.9481,1.0822,1.2648,1.4317,1.5758,1.7059,1.704,1.6378,1.6178,1.6266,1.6471,1.6278,1.6366,1.577,1.365,1.5121,1.5703,1.3545,1.4611,1.5365,1.4698,1.4143,1.3768,1.3732,0.0,0.0,1.2822,1.2181,1.1751,1.1657,1.0335,0.9226,0.8502,0.5685,0.5381,0.7811,0.9862,1.1822,1.3752,1.488,1.5452,1.5543,1.6046,1.5652,1.4606,1.405,1.3779,1.3684,1.3152,1.2881,1.2881,1.2881,1.2881,1.2881,1.2881,1.2452,1.1873,1.1814,1.0965,0.9961,1.0618,0.9865,0.8811,0.8857,0.8857,0.8804,0.8804,0.8804,0.8916,0.9353,0.9466,0.9481,0.9406,0.8958,0.8415,0.7803,0.8882,0.9944,0.9958,1.1243,1.2668,1.3749,1.3065,1.2712,1.3465,1.0143,0.786,0.8572,0.5241,0.3725,0.5873,0.1173,-0.1787,-0.1233,0.0356,0.4083,1.0528,0.0,1.0689,0.8234,0.8499,0.9086,0.995,0.8864,0.9082,1.0605,1.0379,1.0307,1.033,0.9814,0.9507,0.9394,0.8423,0.7953,0.787,0.8439,0.926,1.0441,1.3106,1.4802,1.5979,1.7543,1.7395,1.6476,0.0,0.0,1.594,1.4138,1.5312,1.6323,1.577,1.615,1.6139,1.512,1.5365,1.5174,1.4143,1.3909,1.3589,1.3152,1.2964,1.266,1.2092,1.1742,1.1185,1.0289,0.844,0.7,0.6131,0.5614,0.6888,1.0015,1.1065,1.2327,1.3805,1.4075,1.4446,1.4926,1.505,1.4687,1.4003,1.3862,1.3552,1.3104,1.2978,1.2881,1.2881,1.2881,1.2881,1.2881,1.2881,1.2774,1.2559,1.1972,1.1266,1.061,1.0771,0.9865,0.891,0.9413,0.9211,0.8804,0.8804,0.8804,0.8867,0.9173,0.9244,0.9047,0.8411,0.7841,0.7245,0.6713,0.6852,0.7202,0.7685,0.8709,1.0086,1.1946,1.1964,1.1374,1.0358,0.9362,0.7852,0.5477,0.6169,0.6334,0.5024,0.3601,0.2513,0.1908,0.1427,0.4276,1.1424,1.3263,1.2747,0.9691,0.9438,0.9162,0.872,0.902,0.9751,1.0903,1.0857,1.0798,1.0769,1.1101,1.0362,0.882,0.8994,0.8358,0.7273,0.7863,0.8931,1.0441,1.2718,1.4489,1.5979,1.7543,1.7653,1.7008,1.3144,1.4787,1.609,1.481,1.5636,1.6522,1.6522,1.6522,1.6281,1.5676,1.5365,1.4824,1.3909,1.3552,1.3238,1.2929,1.2919,1.2586,1.1837,1.1438,1.0762,0.985,0.8441,0.7582,0.7363,0.7521,0.8803,1.1273,1.1972,1.2822,1.3815,1.3815,1.3956,1.4283,1.4283,1.3967,1.3372,1.3044,1.2871,1.2881,1.255,1.2608,1.2881,1.2881,1.2881,1.2881,1.2881,1.2881,1.2822,1.2452,1.1625,1.0914,1.1534,1.0379,0.9008,0.9961,0.9562,0.8804,0.8804,0.8804,0.8802,0.8938,0.886,0.8606,0.8029,0.7334,0.6606,0.5933,0.5765,0.5839,0.618,0.6857,0.8025,0.9891,0.9479,0.8805,0.8436,0.7481,0.6665,0.6253,0.7123,0.7547,0.6997,0.5667,0.4496,0.3631,0.3493,0.5742,1.0983,1.367,1.3744,1.0806,1.0458,0.9946,0.9291,0.9868,1.0405,1.0908,1.1364,1.1688,1.1859,1.1999,1.1302,1.0029,0.9829,0.8987,0.7807,0.8152,0.9014,1.0399,1.2272,1.4144,1.5938,1.6967,1.7149,1.6828,1.6522,1.6522,1.6522,1.6595,1.6552,1.6522,1.6595,1.6466,1.6151,1.5543,1.4926,1.4329,1.3732,1.319,1.2881,1.2725,1.2715,1.2452,1.1715,1.1015,1.0364,0.9666,0.9113,0.9106,0.9762,1.0012,1.072,1.1972,1.2608,1.3152,1.3637,1.3637,1.3589,1.3484,1.3484,1.3208,1.2666,1.208,1.2236,1.2832,1.2236,1.2344,1.2881,1.2881,1.2881,1.2881,1.2881,1.2832,1.2715,1.2715,1.1792,1.0872,1.2304,1.099,0.9211,1.0415,0.9917,0.891,0.8804,0.8804,0.8775,0.869,0.8485,0.8231,0.7908,0.7106,0.6259,0.5484,0.5178,0.5087,0.5206,0.5578,0.6192,0.7074,0.6271,0.5868,0.686,0.5678,0.5719,0.8488,0.8179,0.833,0.9838,0.755,0.5794,0.5489,0.6781,0.8579,1.0889,1.3785,1.4359,1.2118,1.1611,1.1012,1.0214,1.0524,1.0785,1.1057,1.1971,1.2657,1.3093,1.271,1.2231,1.1608,1.0699,0.9748,0.8788,0.8716,0.931,1.0335,1.1892,1.376,1.5627,1.6304,1.6476,1.6348,1.6522,1.6522,1.6637,1.7118,1.6795,1.6637,1.7118,1.6373,1.5499,1.4926,1.4329,1.3684,1.3104,1.2978,1.2666,1.203,1.1972,1.1674,1.1015,1.032,0.9666,0.8956,0.8857,0.9106,0.9762,1.0914,1.1882,1.2715,1.2822,1.2978,1.3065,1.3065,1.2696,1.211,1.211,1.2061,1.1972,1.1864,1.2236,1.2881,1.2774,1.2774,1.2881,1.2881,1.2881,1.2881,1.2881,1.251,1.1972,1.1972,1.1074,1.0167,1.1525,1.0922,0.9814,1.0559,1.0261,0.951,0.8956,0.8804,0.8724,0.8484,0.8418,0.8228,0.7709,0.6654,0.5752,0.5392,0.453,0.406,0.4679,0.4849,0.4257,0.2159,0.2917,0.399,0.4555,0.6286,0.7828,0.8773,0.9645,1.0228,1.049,0.9136,0.889,1.0363,1.2552,1.3939,1.4237,1.5443,1.5681,1.4755,1.34,1.1602,0.9333,0.9512,1.0466,1.2141,1.27,1.3175,1.3594,1.3621,1.2867,1.1509,1.1002,1.0224,0.9275,0.8861,0.9254,1.0284,1.1954,1.3328,1.4576,1.6456,1.6854,1.6582,1.6879,1.6909,1.7118,1.7626,1.7544,1.7353,1.7312,1.6574,1.5696,1.4835,1.419,1.3552,1.2978,1.2881,1.2774,1.2403,1.203,1.1516,1.0864,1.0167,0.951,0.8804,0.8804,0.9263,1.0312,1.1683,1.2559,1.2881,1.2881,1.2715,1.2295,1.2295,1.1931,1.1266,1.1266,1.1266,1.1266,1.0864,1.1325,1.2295,1.1891,1.2206,1.2881,1.2881,1.2881,1.2881,1.2881,1.2666,1.2344,1.1922,1.1366,1.0965,1.1616,1.0864,0.9909,1.0618,1.0064,0.9211,0.891,0.8691,0.8544,0.841,0.8427,0.8257,0.7816,0.6807,0.5888,0.557,0.4515,0.3714,0.4068,0.4112,0.3799,0.2884,0.3569,0.4584,0.5728,0.7444,0.8632,0.8736,1.013,1.0829,1.0303,0.9932,1.0299,1.1542,1.3108,1.4348,1.5219,1.5847,1.5703,1.4606,1.2797,1.0807,0.8699,0.9694,1.093,1.2306,1.3339,1.4182,1.4834,1.4626,1.3984,1.3032,1.2373,1.1337,1.0166,1.0321,1.0604,1.1135,1.2436,1.3964,1.5561,1.6472,1.6659,1.6544,1.7567,1.7704,1.7963,1.8627,1.841,1.8031,1.7745,1.6723,1.5696,1.4789,1.4061,1.342,1.2978,1.2881,1.2774,1.2461,1.1882,1.1216,1.0364,0.9865,0.9361,0.8804,0.8962,0.9562,1.0762,1.1999,1.2715,1.2881,1.2881,1.251,1.1814,1.1814,1.1366,1.0568,1.0568,1.0568,1.0517,1.0012,1.0559,1.1765,1.1266,1.1792,1.2881,1.2881,1.2881,1.2881,1.2715,1.2657,1.251,1.1823,1.1466,1.1366,1.1516,1.0762,0.9917,1.0415,0.9718,0.8804,0.8804,0.8644,0.8477,0.8477,0.8477,0.8377,0.7968,0.6996,0.6081,0.5702,0.4544,0.3581,0.3581,0.3575,0.3684,0.4065,0.4752,0.5822,0.7521,0.8449,0.9175,0.975,1.0909,1.1316,1.0559,1.0991,1.1612,1.2261,1.3006,1.3984,1.5329,1.5616,1.4998,1.3446,1.1727,1.0154,0.8738,1.039,1.1645,1.2592,1.3977,1.5043,1.577,1.5329,1.4909,1.4512,1.3631,1.2659,1.1737,1.2146,1.2385,1.2578,1.3471,1.4851,1.6374,1.6384,1.6237,1.6096,1.8742,1.8976,1.9335,2.0481,1.9363,1.8446,1.8893,1.6604,1.4789,1.4698,1.3705,1.2978,1.2881,1.2881,1.2363,1.1074,1.0914,1.032,0.9008,0.891,0.8857,0.8804,0.9413,1.0064,1.0762,1.1516,1.2236,1.2881,1.2881,1.251,1.1814,1.1814,1.1116,0.9865,0.9865,0.9865,0.9865,0.9814,1.0559,1.1814,1.1765,1.2187,1.2881,1.2881,1.2881,1.2822,1.2129,1.1864,1.1765,1.1116,1.0466,1.0064,1.0661,1.0364,0.9814,0.9865,0.9361,0.8804,0.8804,0.8791,0.8778,0.8778,0.8778,0.8631,0.8008,0.6996,0.6034,0.5463,0.4412,0.3581,0.3581,0.3561,0.3333,0.2817,0.4701,0.6827,0.8627,0.8832,0.9966,1.3045,1.2783,1.2306,1.221,1.3032,1.3749,1.4164,1.4662,1.4996,1.51,1.4791,1.3706,1.1659,1.1085,1.0572,1.0069,1.1411,1.2647,1.3684,1.4617,1.5329,1.577,1.5329,1.5059,1.4998,1.4146,1.4006,1.4398,1.3978,1.4121,1.4642,1.5327,1.5657,1.5736,1.6237,1.568,1.4891,1.9893,2.0228,2.0479,2.1259,2.0866,2.0366,2.0228,1.8565,1.714,1.6483,1.4982,1.3823,1.3488,1.3104,1.251,1.1516,1.1416,1.0864,0.9517,0.8981,0.8771,0.8804,0.9465,1.0115,1.0762,1.1466,1.2187,1.2881,1.2881,1.2304,1.1166,1.1166,1.0466,0.9159,0.9159,0.9159,0.9159,0.9159,0.9961,1.1166,1.1166,1.1882,1.2881,1.2881,1.2881,1.2774,1.208,1.208,1.2246,1.072,1.0568,1.0965,1.0364,1.002,0.971,0.9309,0.9008,0.8804,0.8804,0.8804,0.8804,0.8804,0.8804,0.8751,0.8524,0.7709,0.6783,0.6013,0.5102,0.4402,0.4304,0.4478,0.5213,0.6999,0.0,0.9625,1.1325,1.1492,1.207,1.3677,1.3042,1.2672,1.3281,1.3881,1.4301,1.446,1.4862,1.4876,1.4374,1.3382,1.2461,1.167,1.1414,1.1037,1.0504,1.1735,1.2997,1.4379,1.5272,1.6162,1.6982,1.6779,1.6701,1.6669,1.6094,1.5811,1.5764,1.596,1.6179,1.644,1.6664,1.6898,1.7042,1.6579,1.5381,1.4109,2.1119,2.1474,2.1615,2.2207,2.1992,2.1654,2.1251,1.9984,1.87,1.7765,1.6032,1.4596,1.3807,1.3046,1.2197,1.1266,1.1166,1.0712,0.9562,0.881,0.8396,0.848,0.8883,0.954,1.0466,1.1166,1.1832,1.2559,1.2774,1.2157,1.0813,1.0813,1.0064,0.8804,0.8804,0.8804,0.8804,0.8804,0.9562,1.0813,1.0813,1.1642,1.2881,1.2881,1.2881,1.2774,1.208,1.2129,1.2304,1.0677,1.0568,1.1015,1.0115,0.9666,0.9413,0.8956,0.8804,0.8804,0.8804,0.8804,0.8804,0.8804,0.8956,0.9058,0.882,0.8193,0.7444,0.6608,0.5672,0.4997,0.4916,0.5384,0.6687,0.9269,1.0281,1.1228,1.2692,1.2889,1.3073,1.3596,1.3088,1.2998,1.3822,1.4422,1.4676,1.4515,1.4903,1.479,1.3947,1.2579,1.1852,1.1998,1.1818,1.164,1.147,1.2689,1.386,1.4965,1.6066,1.6875,1.7384,1.7593,1.7498,1.719,1.7236,1.7127,1.6916,1.7309,1.753,1.7598,1.7384,1.7272,1.7111,1.6194,1.4665,1.3084,2.233,2.2724,2.2918,2.349,2.2672,2.1903,2.1903,2.0392,1.8993,1.83,1.6704,1.5097,1.3751,1.2532,1.1266,0.9917,0.9762,0.951,0.8804,0.8103,0.767,0.767,0.767,0.8349,0.9762,1.0466,1.1116,1.1814,1.255,1.2157,1.0813,1.0813,1.0064,0.8804,0.8804,0.8804,0.8804,0.8804,0.9562,1.0813,1.0813,1.1642,1.2881,1.2881,1.2881,1.2774,1.208,1.1814,1.1715,1.1015,1.0364,0.9814,0.9814,0.9361,0.8804,0.8804,0.8804,0.8804,0.8804,0.8804,0.8804,0.8804,0.9309,0.9591,0.8849,0.84,0.788,0.7157,0.6112,0.5308,0.5308,0.6234,0.7342,0.8335,0.982,1.1179,1.2224,1.239,1.2554,1.3026,1.3094,1.3323,1.3868,1.4755,1.5098,1.4556,1.5002,1.4884,1.3974,1.2555,1.1998,1.2402,1.2092,1.2308,1.3178,1.4598,1.535,1.5527,1.6998,1.7354,1.6725,1.7413,1.7081,1.6096,1.722,1.7787,1.7921,1.7921,1.7984,1.8066,1.7504,1.6617,1.5543,1.4926,1.3423,1.1702,2.2971,2.3325,2.3385,2.3565,2.3301,2.3081,2.3081,2.2263,2.1293,2.0229,1.815,1.6132,1.4437,1.2367,1.0616,0.9362,0.8639,0.7776,0.6568,0.6303,0.614,0.614,0.7122,0.8131,0.9006,1.0195,1.0914,1.1116,1.1774,1.1425,1.0115,1.0115,0.9614,0.8804,0.8804,0.8804,0.8804,0.8804,0.9562,1.0813,1.0813,1.1642,1.2881,1.2881,1.2881,1.2774,1.208,1.1814,1.1616,1.0466,0.9969,0.971,0.9263,0.8956,0.8804,0.8804,0.8804,0.8804,0.8804,0.8804,0.8804,0.8804,0.8956,0.9009,0.8565,0.8378,0.8001,0.6949,0.6437,0.6169,0.595,0.682,0.7911,0.8944,1.0137,1.1164,1.1886,1.1667,1.1729,1.2579,1.2709,1.3192,1.4358,1.5061,1.5362,1.5225,1.5095,1.4913,1.4598,1.345,1.2861,1.2955,1.2391,1.2266,1.2563,1.4153,1.5389,1.619,1.6922,1.7438,1.7678,1.7899,1.781,1.7492,1.7824,1.8007,1.8061,1.8455,1.8403,1.8052,1.7464,1.6511,1.5351,1.3893,1.2366,1.0998,2.3298,2.3595,2.3595,2.3595,2.3595,2.3595,2.3595,2.3275,2.2553,2.1119,1.9014,1.6788,1.4356,1.1924,0.9955,0.8669,0.8001,0.7093,0.5708,0.5826,0.5677,0.5113,0.5968,0.7042,0.8277,0.9415,1.0092,1.0415,1.1065,1.0864,0.9814,0.9814,0.9465,0.8804,0.8804,0.8804,0.8804,0.8804,0.9413,1.0415,1.0415,1.1082,1.2058,1.2058,1.2058,1.1999,1.1575,1.1416,1.1266,1.0167,0.9614,0.9309,0.891,0.8804,0.8804,0.8804,0.8804,0.8804,0.8804,0.8804,0.8804,0.8804,0.8919,0.8917,0.8449,0.8399,0.8205,0.73,0.6937,0.6799,0.6849,0.7384,0.8105,0.9004,0.9679,1.0196,1.0532,1.0475,1.0695,1.1509,1.2188,1.3003,1.4035,1.5018,1.5556,1.5556,1.4678,1.4371,1.4864,1.3587,1.3017,1.3468,1.2861,1.265,1.2884,1.4109,1.5208,1.6152,1.7045,1.7584,1.7708,1.7995,1.785,1.7408,1.7877,1.7987,1.7827,1.8145,1.8066,1.7693,1.6873,1.5997,1.4993,1.3375,1.1944,1.0712,2.3355,2.3595,2.3595,2.3595,2.3595,2.3595,2.3595,2.3595,2.2966,2.1175,1.9423,1.7049,1.3872,1.1328,0.9323,0.7892,0.741,0.6716,0.5538,0.5918,0.5652,0.4405,0.4443,0.5471,0.7563,0.8324,0.9006,0.9607,1.0364,1.0364,0.971,0.971,0.9361,0.8804,0.8804,0.8804,0.8804,0.8804,0.9211,0.9814,0.9814,1.0218,1.0813,1.0813,1.0813,1.0813,1.0864,1.0813,1.0618,0.9909,0.9316,0.8804,0.8804,0.8804,0.8804,0.8778,0.8784,0.8798,0.8778,0.8791,0.8798,0.8778,0.904,0.9085,0.8401,0.8335,0.8303,0.7896,0.7405,0.7238,0.7787,0.7953,0.8111,0.8635,0.8716,0.8692,0.8725,0.9171,0.9692,1.0244,1.1641,1.2794,1.3385,1.4863,1.5768,1.5768,1.4228,1.3796,1.4976,1.3425,1.2958,1.3938,1.3407,1.3303,1.3732,1.4329,1.4942,1.5599,1.7089,1.7514,1.6987,1.7555,1.7197,1.6229,1.7384,1.7612,1.7133,1.7175,1.7175,1.705,1.5915,1.5141,1.4457,1.3205,1.1895,1.0712,2.3445,2.3595,2.3595,2.3595,2.3595,2.3595,2.3595,2.3595,2.3113,2.1718,1.9648,1.7087,1.3873,1.0872,0.8515,0.6953,0.4673,0.3208,0.2982,0.3109,0.3219,0.3342,0.4064,0.5218,0.6804,0.8053,0.8534,0.8143,0.9392,0.9658,0.9008,0.9008,0.8962,0.8804,0.8804,0.8804,0.8804,0.8804,0.9211,0.9814,0.9814,1.0218,1.0813,1.0813,1.0813,1.0864,1.1416,1.0914,0.9909,0.9263,0.891,0.8804,0.8804,0.8804,0.8764,0.8537,0.8631,0.8758,0.853,0.8637,0.8751,0.8524,0.8342,0.8174,0.8044,0.7864,0.7602,0.7257,0.7447,0.7746,0.7878,0.8234,0.8561,0.8675,0.8716,0.8774,0.897,0.9096,0.9657,1.0918,1.1767,1.2827,1.434,1.5598,1.6333,1.6333,1.5954,1.5849,1.6115,1.4917,1.4294,1.4541,1.3512,1.3014,1.3104,1.3695,1.4539,1.5584,1.5516,1.5592,1.5917,1.5592,1.5283,1.5068,1.5823,1.6102,1.6015,1.6434,1.6348,1.5872,1.5116,1.4494,1.3805,1.2492,1.1507,1.0618,2.3041,2.3385,2.3595,2.3595,2.3595,2.3595,2.3595,2.3355,2.2731,2.1481,1.9105,1.6411,1.3375,1.0789,0.7712,0.3898,0.2105,0.1244,0.1225,0.1188,0.161,0.2554,0.3849,0.4857,0.5609,0.6612,0.7528,0.8209,0.8949,0.9159,0.8804,0.8804,0.8804,0.8804,0.8804,0.8804,0.8804,0.8804,0.9008,0.9309,0.9309,0.951,0.9865,0.9865,0.9865,0.9917,1.0269,0.9917,0.9309,0.9263,0.9061,0.8804,0.8804,0.8711,0.8571,0.8417,0.8383,0.8357,0.8203,0.8377,0.8564,0.8417,0.8257,0.8063,0.7776,0.7475,0.7208,0.7054,0.7489,0.7919,0.7919,0.8118,0.8372,0.8495,0.83,0.8207,0.8498,0.8761,0.922,0.9962,1.1268,1.2927,1.4998,1.5707,1.6194,1.6466,1.5976,1.5876,1.6466,1.5062,1.4376,1.4709,1.3525,1.2881,1.2881,1.319,1.3826,1.4721,1.4687,1.488,1.5141,1.4835,1.4698,1.4709,1.5005,1.5186,1.5186,1.5487,1.5301,1.4783,1.3858,1.3198,1.2589,1.1001,1.0075,0.9554,2.2589,2.3086,2.3475,2.358,2.3505,2.3445,2.3445,2.2906,2.2041,2.0765,1.8304,1.5576,1.2636,0.9707,0.592,0.0738,-0.0244,-0.0599,-0.0582,-0.0453,0.0278,0.1773,0.3289,0.4249,0.4512,0.516,0.6465,0.8427,0.8533,0.8699,0.8804,0.891,0.8956,0.8956,0.8956,0.8956,0.8956,0.8857,0.8804,0.8804,0.8804,0.8804,0.8804,0.8804,0.8804,0.8804,0.891,0.8956,0.9061,0.9614,0.9325,0.8731,0.8888,0.8633,0.829,0.8237,0.8028,0.7773,0.7674,0.786,0.8062,0.8213,0.8219,0.8088,0.7736,0.7388,0.7118,0.7108,0.7574,0.7938,0.7927,0.7915,0.8,0.8085,0.7681,0.7458,0.7765,0.8174,0.8561,0.8857,1.086,1.3011,1.5071,1.5487,1.5864,1.6466,1.5567,1.5421,1.6436,1.4869,1.419,1.4698,1.3525,1.2881,1.2881,1.2881,1.3152,1.3637,1.4154,1.4433,1.4514,1.4433,1.4387,1.4387,1.4525,1.456,1.456,1.456,1.4226,1.3696,1.2695,1.192,1.1189,0.9504,0.8736,0.8523,2.2589,2.2783,2.2966,2.3505,2.3161,2.2802,2.2802,2.2248,2.1228,1.9472,1.7772,1.5264,1.1541,0.5232,0.1075,0.0446,-0.237,-0.4013,-0.3882,-0.2604,-0.1219,0.0222,0.1719,0.3157,0.4488,0.5152,0.5977,0.6912,0.7557,0.8156,0.8804,0.9413,0.9666,0.9666,0.9666,0.9666,0.9614,0.9061,0.8804,0.8804,0.8804,0.8804,0.8804,0.8804,0.8804,0.8857,0.9465,0.9666,0.9666,0.9762,0.9183,0.8582,0.9162,0.87,0.7936,0.7669,0.7416,0.7145,0.6862,0.6724,0.6815,0.7488,0.7544,0.7577,0.8164,0.8023,0.7729,0.7462,0.785,0.8164,0.793,0.8102,0.8034,0.7428,0.7096,0.702,0.7354,0.744,0.8024,0.9497,1.1483,1.303,1.3882,1.4971,1.5864,1.6466,1.6337,1.6337,1.6479,1.5287,1.4617,1.4698,1.3525,1.2881,1.2881,1.2881,1.2929,1.3017,1.3113,1.342,1.3909,1.3382,1.3152,1.3152,1.3695,1.3909,1.3909,1.3909,1.3382,1.2504,1.2289,1.1379,1.0049,0.9198,0.8864,0.8776,2.2012,2.2443,2.2877,2.349,2.3086,2.2724,2.2724,2.1543,2.0405,1.9601,1.7254,1.4782,1.2392,0.6018,0.1221,-0.0501,-0.3899,-0.5727,-0.5227,-0.4649,-0.3485,-0.1713,0.0055,0.2094,0.4457,0.4783,0.5273,0.5982,0.7534,0.8659,0.9361,1.0064,1.0167,0.9814,0.9814,0.9347,0.8613,0.8309,0.8209,0.8209,0.8209,0.8427,0.8804,0.8804,0.8804,0.8857,0.9159,0.9263,0.9235,0.9066,0.8919,0.8827,0.8602,0.8381,0.8053,0.7643,0.7263,0.6937,0.651,0.6486,0.6707,0.7162,0.7392,0.7611,0.7924,0.8204,0.829,0.7822,0.813,0.8407,0.7961,0.7888,0.7789,0.7344,0.6826,0.6733,0.7408,0.7501,0.8111,0.9644,1.1232,1.259,1.3601,1.4869,1.5983,1.6866,1.668,1.6637,1.6909,1.5543,1.4698,1.4698,1.3525,1.2881,1.2881,1.2881,1.2881,1.2881,1.2881,1.3065,1.3286,1.3017,1.2881,1.2881,1.2774,1.2686,1.2628,1.2101,1.1668,1.1284,1.0758,0.9821,0.8747,0.8267,0.7923,0.7603]}]]